[[{"header":{"parameterUnit":"m.s-1","parameterCategory":1,"la1":30.6,"la2":29.2853,"lo1":-89.7004,"lo2":-87.6739,"dy":0.0162,"dx":0.0183,"nx":112,"ny":82,"refTime":"2026-02-28T00:00:00:Z","depth":0,"parameterNumber":2,"parameterNumberName":"U-component_of_WINDS"},"data":[0.0,0.0,0.0,0.0,0.0,0.0,0.0,0.0,0.0,0.0,0.0,0.0,0.0,0.0,0.0,0.0,0.0,0.0,0.0,0.0,0.0,0.0,0.0,0.0,0.0,0.0,0.0,0.0,0.0,0.0,0.0,0.0,0.0,0.0,0.0,0.0,0.0,0.0,0.0,0.0,0.0,0.0,0.0,0.0,0.0,0.0,0.0,0.0,0.0,0.0,0.0,0.0,0.0,0.0,0.0,0.0,0.0,0.0,0.0,0.0,0.0,0.0,0.0,0.0,0.0,0.0,0.0,0.0,0.0,0.0,0.0,0.0,0.0,0.0,0.0,0.0,0.0,0.0,0.0,0.0,0.0,0.0,0.0,0.0,0.0,0.0,0.0,0.0,0.0,0.0,-3.2342,-3.1781,-3.3529,-3.4471,-3.3965,-3.4472,-3.4198,-3.2646,0.0,0.0,0.0,0.0,0.0,0.0,0.0,0.0,0.0,0.0,0.0,0.0,0.0,0.0,0.0,0.0,0.0,0.0,0.0,0.0,0.0,0.0,0.0,0.0,0.0,0.0,0.0,0.0,0.0,0.0,0.0,0.0,0.0,0.0,0.0,0.0,0.0,0.0,0.0,0.0,0.0,0.0,0.0,0.0,0.0,0.0,0.0,0.0,0.0,0.0,0.0,0.0,0.0,0.0,0.0,0.0,0.0,0.0,0.0,0.0,0.0,0.0,0.0,0.0,0.0,0.0,0.0,0.0,0.0,0.0,0.0,0.0,0.0,0.0,0.0,0.0,0.0,0.0,0.0,0.0,0.0,0.0,0.0,0.0,0.0,0.0,0.0,0.0,0.0,0.0,0.0,0.0,0.0,0.0,0.0,0.0,0.0,0.0,0.0,0.0,0.0,0.0,0.0,0.0,-3.1286,-3.307,-3.3593,-3.3848,-3.3882,-3.4298,-3.4065,-3.2899,0.0,0.0,0.0,0.0,0.0,0.0,0.0,0.0,0.0,0.0,0.0,0.0,0.0,0.0,0.0,0.0,0.0,0.0,0.0,0.0,0.0,0.0,0.0,0.0,0.0,0.0,0.0,0.0,0.0,0.0,0.0,0.0,0.0,0.0,0.0,0.0,0.0,0.0,0.0,0.0,0.0,0.0,0.0,0.0,0.0,0.0,0.0,0.0,0.0,0.0,0.0,0.0,0.0,0.0,0.0,0.0,0.0,0.0,0.0,0.0,0.0,0.0,0.0,0.0,0.0,0.0,0.0,0.0,0.0,0.0,0.0,0.0,0.0,0.0,0.0,0.0,0.0,0.0,0.0,0.0,0.0,0.0,0.0,0.0,0.0,0.0,0.0,0.0,0.0,0.0,0.0,0.0,0.0,0.0,0.0,0.0,0.0,0.0,0.0,0.0,0.0,0.0,0.0,-3.056,-3.1278,-3.3656,-3.3628,-3.3466,-3.357,-3.3755,-3.3454,-3.2571,-3.1448,0.0,0.0,0.0,0.0,0.0,0.0,0.0,0.0,0.0,0.0,0.0,0.0,0.0,0.0,0.0,0.0,0.0,0.0,0.0,0.0,0.0,0.0,0.0,0.0,0.0,0.0,0.0,0.0,0.0,0.0,0.0,0.0,0.0,0.0,0.0,0.0,0.0,0.0,0.0,0.0,0.0,0.0,0.0,0.0,0.0,0.0,0.0,0.0,0.0,0.0,0.0,0.0,0.0,0.0,0.0,0.0,0.0,0.0,0.0,0.0,0.0,0.0,0.0,0.0,0.0,0.0,0.0,0.0,0.0,0.0,0.0,0.0,0.0,0.0,0.0,0.0,0.0,0.0,0.0,0.0,0.0,0.0,0.0,0.0,0.0,0.0,0.0,0.0,0.0,0.0,0.0,0.0,0.0,0.0,0.0,0.0,0.0,0.0,0.0,0.0,0.0,0.0,-3.1668,-3.223,-3.381,-3.3697,-3.3445,-3.329,-3.329,-3.293,-3.2101,-3.0782,0.0,0.0,0.0,0.0,0.0,0.0,0.0,0.0,0.0,0.0,0.0,0.0,0.0,0.0,0.0,0.0,0.0,0.0,0.0,0.0,0.0,0.0,0.0,0.0,0.0,0.0,0.0,0.0,0.0,0.0,0.0,0.0,0.0,0.0,0.0,0.0,0.0,0.0,0.0,0.0,0.0,0.0,0.0,0.0,0.0,0.0,0.0,0.0,0.0,0.0,0.0,0.0,0.0,0.0,0.0,0.0,0.0,0.0,0.0,0.0,0.0,0.0,0.0,0.0,0.0,0.0,0.0,0.0,0.0,0.0,0.0,0.0,0.0,0.0,0.0,0.0,0.0,0.0,0.0,0.0,0.0,0.0,0.0,0.0,0.0,0.0,0.0,0.0,0.0,0.0,0.0,0.0,0.0,0.0,0.0,0.0,0.0,0.0,0.0,0.0,0.0,0.0,-3.2784,-3.4486,-3.3459,-3.3824,-3.3908,-3.3333,-3.329,-3.2792,-3.1636,-3.0337,0.0,0.0,0.0,0.0,0.0,0.0,0.0,0.0,0.0,0.0,0.0,0.0,0.0,0.0,0.0,0.0,0.0,0.0,0.0,0.0,0.0,0.0,0.0,0.0,0.0,0.0,0.0,0.0,0.0,0.0,0.0,0.0,0.0,0.0,0.0,0.0,0.0,0.0,0.0,0.0,0.0,0.0,0.0,0.0,0.0,0.0,0.0,0.0,0.0,0.0,0.0,0.0,0.0,0.0,0.0,0.0,0.0,0.0,0.0,0.0,0.0,0.0,0.0,0.0,0.0,0.0,0.0,0.0,0.0,0.0,0.0,0.0,0.0,0.0,0.0,0.0,0.0,0.0,0.0,0.0,0.0,0.0,0.0,0.0,0.0,0.0,0.0,0.0,0.0,0.0,0.0,0.0,0.0,0.0,0.0,0.0,0.0,0.0,0.0,0.0,0.0,0.0,-3.1587,-3.3099,0.0,-3.3487,-3.3543,-3.3304,-3.329,-3.2623,-3.0993,0.0,0.0,0.0,0.0,0.0,0.0,0.0,0.0,0.0,0.0,0.0,0.0,0.0,0.0,0.0,0.0,0.0,0.0,0.0,0.0,0.0,0.0,0.0,0.0,0.0,0.0,0.0,0.0,0.0,0.0,0.0,0.0,0.0,0.0,0.0,0.0,0.0,0.0,0.0,0.0,0.0,0.0,0.0,0.0,0.0,0.0,0.0,0.0,0.0,0.0,0.0,0.0,0.0,0.0,0.0,0.0,0.0,0.0,0.0,0.0,0.0,0.0,0.0,0.0,0.0,0.0,0.0,0.0,0.0,0.0,0.0,0.0,0.0,0.0,0.0,0.0,0.0,0.0,0.0,0.0,0.0,0.0,0.0,0.0,0.0,0.0,0.0,0.0,0.0,0.0,0.0,0.0,0.0,0.0,0.0,0.0,0.0,0.0,0.0,0.0,0.0,0.0,-2.9226,-3.1282,-3.2753,0.0,-3.309,-3.3131,-3.2937,-3.2729,-3.1958,-3.042,0.0,0.0,0.0,0.0,0.0,0.0,0.0,0.0,0.0,0.0,0.0,0.0,0.0,0.0,0.0,0.0,0.0,0.0,0.0,0.0,0.0,0.0,0.0,0.0,0.0,0.0,0.0,0.0,0.0,0.0,0.0,0.0,0.0,0.0,0.0,0.0,0.0,0.0,0.0,0.0,0.0,0.0,0.0,0.0,0.0,0.0,0.0,0.0,0.0,0.0,0.0,0.0,0.0,0.0,0.0,0.0,0.0,0.0,0.0,0.0,0.0,0.0,0.0,0.0,0.0,0.0,0.0,0.0,0.0,0.0,0.0,0.0,0.0,0.0,0.0,0.0,0.0,0.0,0.0,0.0,0.0,0.0,0.0,0.0,0.0,0.0,0.0,0.0,0.0,0.0,0.0,0.0,0.0,0.0,0.0,0.0,0.0,0.0,0.0,0.0,0.0,0.0,-2.875,-3.2273,-3.4161,-3.2281,-3.2684,-3.2806,-3.2146,-3.1549,-3.0834,0.0,0.0,0.0,0.0,0.0,0.0,0.0,0.0,0.0,0.0,0.0,0.0,0.0,0.0,0.0,0.0,0.0,0.0,0.0,0.0,0.0,0.0,0.0,0.0,0.0,0.0,0.0,0.0,0.0,0.0,0.0,0.0,0.0,0.0,0.0,0.0,0.0,0.0,0.0,0.0,0.0,0.0,0.0,0.0,0.0,0.0,0.0,0.0,0.0,0.0,0.0,0.0,0.0,0.0,0.0,0.0,0.0,0.0,0.0,0.0,0.0,0.0,0.0,0.0,0.0,0.0,0.0,0.0,0.0,0.0,0.0,0.0,0.0,0.0,0.0,0.0,0.0,0.0,0.0,0.0,0.0,0.0,0.0,0.0,0.0,0.0,0.0,0.0,0.0,0.0,0.0,0.0,0.0,0.0,0.0,0.0,0.0,0.0,0.0,0.0,0.0,0.0,0.0,-2.8685,-3.1631,-3.3331,-3.2204,-3.2291,-3.2331,-3.2119,-3.1942,-3.1002,-2.9097,0.0,0.0,0.0,0.0,0.0,0.0,0.0,0.0,0.0,0.0,0.0,0.0,0.0,0.0,0.0,0.0,0.0,0.0,0.0,0.0,0.0,0.0,0.0,0.0,0.0,0.0,0.0,0.0,0.0,0.0,0.0,0.0,0.0,0.0,0.0,0.0,0.0,0.0,0.0,0.0,0.0,0.0,0.0,0.0,0.0,0.0,0.0,0.0,0.0,0.0,0.0,0.0,0.0,0.0,0.0,0.0,0.0,0.0,0.0,0.0,0.0,0.0,0.0,0.0,0.0,0.0,0.0,0.0,0.0,0.0,0.0,0.0,0.0,0.0,0.0,0.0,0.0,0.0,0.0,0.0,0.0,0.0,0.0,0.0,0.0,0.0,0.0,0.0,0.0,0.0,0.0,0.0,0.0,0.0,0.0,0.0,0.0,0.0,0.0,0.0,0.0,0.0,-2.8219,-3.0834,-3.243,-3.1736,-3.1666,-3.1666,-3.1666,-3.1666,-3.0735,-2.8508,0.0,0.0,0.0,0.0,0.0,0.0,0.0,0.0,0.0,0.0,0.0,0.0,0.0,0.0,0.0,0.0,0.0,0.0,0.0,0.0,0.0,0.0,0.0,0.0,0.0,0.0,0.0,0.0,0.0,0.0,0.0,0.0,0.0,0.0,0.0,0.0,0.0,0.0,0.0,0.0,0.0,0.0,0.0,0.0,0.0,0.0,0.0,0.0,0.0,0.0,0.0,0.0,0.0,0.0,0.0,0.0,0.0,0.0,0.0,0.0,0.0,0.0,0.0,0.0,0.0,0.0,0.0,0.0,0.0,0.0,0.0,0.0,0.0,0.0,0.0,0.0,0.0,0.0,0.0,0.0,0.0,0.0,0.0,0.0,0.0,0.0,0.0,0.0,0.0,0.0,0.0,0.0,0.0,0.0,0.0,0.0,0.0,0.0,0.0,0.0,0.0,0.0,-2.7434,-2.9988,-3.1602,-3.0901,-3.0861,-3.0911,-3.0911,-3.0911,-3.0079,-2.8166,0.0,0.0,0.0,0.0,0.0,0.0,0.0,0.0,0.0,0.0,0.0,0.0,0.0,0.0,0.0,0.0,0.0,0.0,0.0,0.0,0.0,0.0,0.0,0.0,0.0,0.0,0.0,0.0,0.0,0.0,0.0,0.0,0.0,0.0,0.0,0.0,0.0,0.0,0.0,0.0,0.0,0.0,0.0,0.0,0.0,0.0,0.0,0.0,0.0,0.0,0.0,0.0,0.0,0.0,0.0,0.0,0.0,0.0,0.0,0.0,-2.5597,-2.6105,0.0,0.0,0.0,0.0,0.0,0.0,0.0,0.0,0.0,0.0,0.0,0.0,0.0,0.0,0.0,0.0,0.0,0.0,0.0,0.0,0.0,0.0,0.0,0.0,0.0,0.0,0.0,0.0,0.0,0.0,0.0,0.0,0.0,0.0,0.0,0.0,0.0,0.0,0.0,0.0,-2.6471,-2.9905,-3.1746,-2.97,-2.9922,-3.019,-3.019,-3.019,-2.9685,-2.841,-2.7767,0.0,0.0,0.0,0.0,0.0,0.0,0.0,0.0,0.0,0.0,0.0,0.0,0.0,0.0,0.0,0.0,0.0,0.0,0.0,0.0,0.0,0.0,0.0,0.0,0.0,0.0,0.0,0.0,0.0,0.0,0.0,0.0,0.0,0.0,0.0,0.0,0.0,0.0,0.0,0.0,0.0,0.0,0.0,0.0,0.0,0.0,0.0,0.0,0.0,0.0,0.0,0.0,0.0,0.0,0.0,0.0,0.0,0.0,0.0,-2.5149,-2.548,0.0,0.0,0.0,0.0,0.0,0.0,0.0,0.0,0.0,0.0,0.0,0.0,0.0,0.0,0.0,0.0,0.0,0.0,0.0,0.0,0.0,0.0,0.0,0.0,0.0,0.0,0.0,0.0,0.0,0.0,0.0,0.0,0.0,0.0,0.0,0.0,0.0,0.0,0.0,0.0,-2.5828,-2.8772,-3.0474,-2.922,-2.9185,-2.9319,-2.9542,-2.9347,-2.8848,-2.7984,-2.7158,0.0,0.0,0.0,0.0,0.0,0.0,0.0,0.0,0.0,0.0,0.0,0.0,0.0,0.0,0.0,0.0,0.0,0.0,0.0,0.0,0.0,0.0,0.0,0.0,0.0,0.0,0.0,0.0,0.0,0.0,0.0,0.0,0.0,0.0,0.0,0.0,0.0,0.0,0.0,0.0,0.0,0.0,0.0,0.0,0.0,0.0,0.0,0.0,0.0,0.0,0.0,0.0,0.0,-2.512,-2.5367,-2.5765,-2.6195,-2.6161,-2.5781,-2.4948,-2.5131,-2.5905,-2.496,0.0,0.0,0.0,0.0,0.0,0.0,0.0,0.0,0.0,0.0,0.0,0.0,0.0,0.0,0.0,0.0,0.0,0.0,0.0,0.0,0.0,0.0,-2.3886,-2.4066,-2.4133,-2.3979,-2.3205,0.0,0.0,0.0,0.0,0.0,0.0,0.0,0.0,0.0,0.0,0.0,-2.5254,-2.751,-2.9036,-2.878,-2.8444,-2.8438,-2.8899,-2.8495,-2.7992,-2.7477,-2.6445,-2.5328,0.0,0.0,0.0,0.0,0.0,0.0,0.0,0.0,0.0,0.0,0.0,0.0,0.0,0.0,0.0,0.0,0.0,0.0,0.0,0.0,0.0,0.0,0.0,0.0,0.0,0.0,0.0,0.0,0.0,0.0,0.0,0.0,-2.4413,-2.4437,0.0,0.0,0.0,0.0,0.0,0.0,0.0,0.0,0.0,0.0,0.0,0.0,0.0,-2.3736,-2.4451,-2.4828,-2.5046,-2.5171,-2.5576,-2.5816,-2.5878,-2.5941,-2.5972,-2.5872,-2.5745,0.0,-2.5776,-2.5231,0.0,0.0,0.0,0.0,0.0,0.0,0.0,0.0,0.0,0.0,0.0,0.0,0.0,0.0,0.0,0.0,0.0,0.0,0.0,0.0,0.0,0.0,-2.4211,-2.3517,-2.3362,-2.3302,-2.3221,-2.3401,-2.3444,-2.2865,-2.2568,-2.2177,0.0,0.0,0.0,0.0,0.0,0.0,-2.4659,-2.7316,-2.8803,-2.7568,-2.7557,-2.7827,-2.8271,-2.7881,-2.7594,-2.7582,-2.6588,-2.5505,-2.4484,-2.3803,0.0,0.0,0.0,0.0,0.0,0.0,0.0,0.0,0.0,0.0,0.0,0.0,0.0,0.0,0.0,0.0,0.0,0.0,0.0,0.0,0.0,0.0,0.0,0.0,0.0,0.0,0.0,0.0,0.0,-2.3374,-2.4161,-2.3402,-2.3809,-2.3508,0.0,0.0,0.0,0.0,0.0,0.0,0.0,0.0,0.0,-2.4291,-2.4333,-2.4643,-2.5285,-2.5492,-2.573,-2.5989,-2.6175,-2.6357,-2.6485,-2.6615,-2.6615,-2.6485,-2.6615,-2.6687,-2.6564,-2.5591,-2.4997,-2.4692,0.0,0.0,0.0,0.0,-2.4322,-2.4173,-2.4692,-2.4724,-2.4355,-2.3507,0.0,0.0,0.0,0.0,0.0,0.0,0.0,-2.2524,-2.3083,-2.3662,-2.413,-2.4242,-2.4079,-2.3949,-2.3949,-2.3738,-2.328,-2.2396,-2.2124,-2.1691,-2.0664,-2.0741,0.0,0.0,0.0,-2.4607,-2.382,-2.6119,-2.7433,-2.656,-2.63,-2.6401,-2.6867,-2.6736,-2.6742,-2.7037,-2.633,-2.5559,-2.4825,-2.4042,-2.3489,0.0,0.0,0.0,0.0,0.0,0.0,0.0,0.0,0.0,0.0,0.0,0.0,0.0,0.0,0.0,0.0,0.0,0.0,0.0,0.0,0.0,0.0,0.0,0.0,0.0,0.0,0.0,0.0,-2.3143,-2.3911,-2.2974,-2.3529,-2.3307,0.0,0.0,0.0,0.0,0.0,0.0,-2.3443,-2.3494,-2.4058,-2.531,-2.5351,-2.5567,-2.6043,-2.6043,-2.6218,-2.6557,-2.6557,-2.6648,-2.6805,-2.6976,-2.6986,-2.6794,-2.7023,-2.7119,-2.7026,-2.5995,-2.5368,-2.5016,-2.4571,-2.422,-2.396,-2.4547,-2.4555,-2.4454,-2.5355,-2.5488,-2.502,-2.4171,-2.3975,-2.3843,-2.2402,0.0,0.0,0.0,0.0,-2.2884,-2.3878,-2.4219,-2.444,-2.4982,-2.4862,-2.4645,-2.4535,-2.4031,-2.3318,-2.2395,-2.21,-2.1621,-2.0518,-2.0555,0.0,0.0,0.0,-2.3795,-2.3567,-2.5109,-2.6134,-2.5906,-2.5492,-2.5407,-2.5853,-2.5802,-2.5922,-2.64,-2.5948,-2.5486,-2.509,-2.4287,-2.3636,-2.3056,0.0,0.0,0.0,0.0,0.0,0.0,0.0,0.0,0.0,0.0,0.0,0.0,0.0,0.0,0.0,0.0,0.0,0.0,0.0,0.0,0.0,0.0,0.0,0.0,0.0,0.0,0.0,0.0,0.0,-2.3857,-2.4209,0.0,0.0,0.0,0.0,-2.2361,-2.2773,-2.3416,-2.4299,-2.4339,-2.4761,-2.5732,-2.5762,-2.5973,-2.6474,-2.6474,-2.6484,-2.6514,-2.6514,-2.6524,-2.6496,-2.6544,-2.6544,-2.6496,-2.6544,-2.6544,-2.6552,-2.6526,-2.6532,-2.647,-2.5958,-2.5761,-2.5751,-2.5542,-2.5462,-2.5406,-2.5229,-2.5138,-2.5118,-2.5032,-2.446,-2.3858,-2.4135,-2.3654,0.0,0.0,-2.4631,-2.4962,-2.5022,-2.5364,-2.5585,-2.5203,-2.5093,-2.4962,-2.4595,-2.4142,-2.3702,-2.3471,-2.2888,-2.2304,-2.1787,0.0,-2.1725,-2.1704,-2.2946,-2.4022,-2.4373,-2.491,-2.5451,-2.5834,-2.5492,-2.5399,-2.5858,-2.5516,-2.5453,-2.5913,-2.5474,-2.5225,-2.5205,-2.4717,-2.4146,-2.3476,-2.302,0.0,0.0,0.0,0.0,0.0,0.0,0.0,0.0,0.0,0.0,0.0,0.0,0.0,0.0,0.0,0.0,0.0,0.0,0.0,0.0,0.0,0.0,0.0,0.0,0.0,0.0,0.0,0.0,-2.413,-2.4702,0.0,-2.3311,-2.3571,-2.378,-2.3694,-2.3467,-2.3638,-2.4262,-2.4291,-2.4562,-2.5199,-2.591,-2.6335,-2.6496,-2.6496,-2.6496,-2.6496,-2.6496,-2.64,-2.6245,-2.64,-2.64,-2.6245,-2.6448,-2.6496,-2.6486,-2.6516,-2.6367,-2.6093,-2.5884,-2.564,-2.5417,-2.5629,-2.5684,-2.5724,-2.5923,-2.6023,-2.5966,-2.5777,-2.504,-2.4329,-2.5002,-2.4608,-2.4073,-2.4674,-2.4743,-2.4713,-2.5046,-2.5233,-2.5382,-2.5472,-2.5285,-2.5075,-2.4927,-2.4415,-2.3993,-2.3877,-2.3254,-2.2541,-2.208,-2.2373,-2.2594,-2.2294,-2.3422,-2.426,-2.4136,-2.4767,-2.5137,-2.5026,-2.4838,-2.4807,-2.4962,-2.5106,-2.542,-2.5854,-2.573,-2.5782,-2.6082,-2.5044,-2.4397,-2.4147,-2.3127,-2.2046,0.0,0.0,0.0,0.0,0.0,0.0,0.0,0.0,0.0,0.0,0.0,0.0,0.0,0.0,0.0,0.0,0.0,0.0,0.0,0.0,0.0,0.0,0.0,0.0,0.0,0.0,-2.4845,-2.4321,-2.5082,-2.5128,-2.4011,-2.4286,-2.4405,-2.4134,-2.3747,-2.3548,-2.3618,-2.3975,-2.4309,-2.463,-2.5654,-2.6217,-2.6217,-2.6217,-2.6217,-2.6217,-2.6217,-2.6159,-2.5965,-2.6159,-2.611,-2.5965,-2.6159,-2.6217,-2.6217,-2.6217,-2.6038,-2.5769,-2.5959,-2.5873,-2.5595,-2.5802,-2.5902,-2.5952,-2.6156,-2.6217,-2.6207,-2.6014,-2.5475,-2.4923,-2.5508,-2.5284,-2.4922,-2.5215,-2.5088,-2.4932,-2.5215,-2.5293,-2.5371,-2.5615,-2.5508,-2.5254,-2.5145,-2.4758,-2.4398,-2.425,-2.3641,-2.299,-2.2544,-2.3002,-2.3279,-2.2908,-2.3648,-2.4223,-2.4104,-2.4537,-2.4751,-2.4538,-2.4497,-2.4497,-2.4497,-2.4642,-2.4964,-2.5399,-2.5285,-2.5409,-2.5865,-2.4881,-2.4197,-2.4042,-2.2729,-2.1497,-2.0385,0.0,0.0,0.0,0.0,0.0,0.0,0.0,0.0,0.0,0.0,0.0,0.0,0.0,0.0,0.0,0.0,0.0,0.0,0.0,0.0,0.0,0.0,0.0,-2.3459,-2.4285,-2.4713,-2.4436,-2.5263,-2.5371,-2.4241,-2.4538,-2.4442,-2.3588,-2.3471,-2.3148,-2.2466,-2.3434,-2.4038,-2.4038,-2.5069,-2.5635,-2.5635,-2.5635,-2.5635,-2.5586,-2.5586,-2.5586,-2.5586,-2.5586,-2.5586,-2.5586,-2.5635,-2.5635,-2.5635,-2.5693,-2.5693,-2.5732,-2.6255,-2.6506,-2.6448,-2.6197,-2.61,-2.6052,-2.5781,-2.5693,-2.5693,-2.5693,-2.5693,-2.5693,-2.5693,-2.5693,-2.5693,-2.5693,-2.5693,-2.5693,-2.5693,-2.5693,-2.5693,-2.5693,-2.5693,-2.5567,-2.5185,-2.5125,-2.4988,-2.4521,-2.4118,-2.3697,-2.3307,-2.3569,-2.3733,-2.353,-2.3697,0.0,-2.4411,-2.4292,-2.4249,-2.4454,-2.4497,-2.4497,-2.4497,-2.4094,-2.4064,-2.4476,-2.4084,-2.4074,-2.4476,-2.4073,-2.366,-2.3194,-2.18,-2.087,-2.0405,0.0,0.0,0.0,0.0,0.0,0.0,0.0,0.0,0.0,0.0,0.0,0.0,0.0,0.0,0.0,0.0,0.0,0.0,0.0,0.0,0.0,-2.3006,-2.3606,-2.3702,-2.474,-2.5414,-2.5172,-2.567,-2.5833,-2.532,-2.4689,-2.4203,-2.3972,-2.2488,-2.1534,-2.1328,-2.1633,-2.2139,-2.2935,-2.3998,-2.455,-2.455,-2.455,-2.4146,-2.3402,-2.3402,-2.3402,-2.3402,-2.3402,-2.3402,-2.3402,-2.4205,-2.455,-2.4599,-2.5382,-2.5693,-2.5684,-2.5878,-2.5927,-2.5927,-2.583,-2.583,-2.5781,-2.5732,-2.5693,-2.5693,-2.5693,-2.5693,-2.5693,-2.5693,-2.5693,-2.5693,-2.5693,-2.5693,-2.5693,-2.5693,-2.5693,-2.5693,-2.5693,-2.5693,-2.5654,-2.5586,-2.5293,-2.5077,-2.4912,-2.4536,-2.4151,-2.3904,-2.3841,-2.38,-2.3723,-2.376,0.0,-2.397,-2.3927,-2.3927,-2.397,-2.397,-2.397,-2.397,-2.3618,-2.36,-2.4046,-2.363,-2.358,-2.4026,-2.361,-2.3174,-2.2757,-2.1732,-2.0943,0.0,0.0,0.0,0.0,0.0,0.0,0.0,0.0,0.0,0.0,0.0,0.0,0.0,0.0,0.0,0.0,0.0,0.0,0.0,0.0,0.0,0.0,-2.371,-2.4351,-2.4351,-2.5109,-2.561,-2.5513,-2.5759,-2.5713,-2.5069,-2.4452,-2.3741,-2.2844,-2.1582,-2.0885,-2.0885,-2.1336,-2.2038,-2.3135,-2.3791,-2.4088,-2.4088,-2.3633,-2.3135,-2.2484,-2.2484,-2.2484,-2.2534,-2.2994,-2.2944,-2.2534,-2.3633,-2.4088,-2.4137,-2.4756,-2.5274,-2.5693,0.0,0.0,0.0,0.0,-2.5693,-2.5693,-2.5693,-2.5693,-2.5693,-2.5693,-2.5693,-2.5693,-2.5693,-2.5693,-2.5693,-2.5693,-2.5693,-2.5693,-2.5693,-2.5693,-2.5693,-2.5693,-2.5693,-2.5693,-2.5693,-2.5527,-2.5352,-2.5352,-2.499,0.0,-2.4549,-2.4281,-2.4083,-2.4216,-2.4118,-2.4118,-2.4305,-2.4101,-2.3981,-2.4078,-2.3908,-2.3797,-2.3797,-2.3438,0.0,0.0,0.0,-2.2644,-2.2765,-2.2523,0.0,0.0,0.0,0.0,0.0,0.0,0.0,0.0,-2.0715,-2.0709,0.0,0.0,0.0,0.0,0.0,0.0,0.0,0.0,0.0,0.0,0.0,0.0,0.0,0.0,0.0,0.0,-2.4503,-2.5223,-2.5321,-2.5369,-2.5477,-2.5654,-2.5586,-2.5167,-2.4196,-2.389,-2.2985,-2.1234,-2.0987,-2.0936,-2.1081,-2.1988,0.0,0.0,0.0,-2.384,-2.3741,-2.2785,-2.2341,-2.2341,-2.2341,-2.2391,-2.2534,-2.3493,-2.3384,-2.2534,-2.3633,-2.4088,-2.4088,-2.4245,-2.4864,-2.5693,-2.5693,-2.5693,-2.5693,-2.5693,-2.5693,-2.5693,-2.5693,0.0,0.0,-2.5693,-2.5693,-2.5693,-2.5693,-2.5693,-2.5693,-2.5693,-2.5693,-2.5693,-2.5693,-2.5693,-2.5693,-2.5693,-2.5693,-2.5693,-2.5693,-2.5693,-2.5693,-2.5693,-2.541,-2.5194,-2.5194,-2.4736,-2.447,-2.47,-2.4562,-2.4552,-2.4975,-2.45,-2.4217,-2.4451,0.0,0.0,-2.3781,-2.3383,-2.2942,-2.2541,-2.206,-2.164,-2.1298,-2.1278,-2.1479,-2.187,-2.188,-2.211,-2.2591,-2.2772,-2.2853,-2.2863,-2.1411,-2.1273,0.0,0.0,0.0,0.0,0.0,0.0,0.0,0.0,0.0,0.0,0.0,0.0,0.0,0.0,0.0,-2.4555,-2.5262,-2.585,-2.6543,-2.5835,-2.5355,-2.5654,-2.4962,-2.4344,-2.4137,-2.2534,-2.1692,-2.2139,-2.1387,-2.1285,-2.2139,-2.2391,-2.2584,-2.2785,-2.2793,-2.2383,-2.154,-2.1336,-2.1183,-2.1183,-2.1183,0.0,-2.2492,-2.2685,-2.2685,-2.2534,-2.3633,-2.4088,-2.4187,-2.502,-2.5528,-2.5693,-2.5693,-2.5693,-2.5693,-2.5693,-2.5693,-2.5693,-2.5693,-2.5693,-2.5693,-2.5693,-2.5693,-2.5693,-2.5693,-2.5693,0.0,-2.5693,-2.5693,-2.5693,-2.5693,-2.5693,-2.5693,-2.5693,-2.5693,-2.5693,-2.5693,-2.5693,-2.5693,-2.5693,-2.5615,-2.5557,-2.5557,-2.4951,-2.4414,-2.447,-2.4414,-2.4414,-2.4506,-2.4438,-2.4343,-2.4434,-2.4051,-2.3796,-2.3796,-2.3089,-2.2608,-2.2519,-2.2117,-2.1842,-2.1763,-2.1753,-2.195,-2.2382,-2.235,-2.2556,-2.2977,-2.3075,-2.33,-2.357,-2.2928,-2.2938,0.0,0.0,0.0,0.0,0.0,0.0,0.0,0.0,0.0,0.0,0.0,-2.2043,-2.2794,0.0,-2.4085,-2.442,-2.4852,-2.5192,-2.5234,-2.4726,-2.4562,-2.517,-2.4258,-2.3254,-2.2551,-2.1988,-2.1684,-2.1684,-2.1684,-2.1937,-2.2484,-2.2484,-2.2484,-2.2484,-2.1988,-2.1684,-2.1684,-2.0637,-2.0637,-2.1684,-2.1132,-2.1438,-2.2534,-2.3035,-2.2994,-2.2534,-2.3633,-2.4088,-2.4187,-2.5274,-2.5693,-2.5693,-2.5693,-2.5693,-2.5693,-2.5693,-2.5693,-2.5693,-2.5693,-2.5693,-2.5693,-2.5693,-2.5693,-2.5693,-2.5693,-2.5693,-2.5693,-2.5693,-2.5693,-2.5693,-2.5693,-2.5693,-2.5693,-2.5693,-2.5693,-2.5693,-2.5693,-2.5693,-2.5693,-2.5693,-2.5693,-2.5693,-2.5693,-2.5323,-2.5031,-2.5031,-2.5031,-2.5031,-2.5031,-2.4883,-2.4746,-2.4746,-2.4355,-2.4102,-2.4102,-2.3525,-2.3154,-2.3154,-2.2754,-2.2519,-2.251,-2.2519,-2.2725,-2.3144,-2.3154,-2.3359,-2.3734,-2.4004,-2.4264,-2.4434,-2.4443,-2.4443,0.0,0.0,0.0,0.0,0.0,0.0,0.0,0.0,-2.1618,-2.2397,-2.2722,-2.3115,-2.3896,-2.4518,-2.4707,-2.4244,-2.4352,-2.4346,-2.3785,-2.3524,-2.3629,-2.4177,-2.3315,-2.2243,-2.1019,-2.1684,-2.1937,-2.1234,-2.1988,-2.2584,-2.2785,-2.2584,-2.2391,-2.219,-2.1336,-2.1336,-2.219,-2.0483,-2.0688,-2.2785,-2.1937,-2.2089,-2.3144,-2.3998,-2.3949,-2.3194,-2.4048,-2.4393,-2.4501,-2.5323,-2.5693,-2.5693,-2.5693,-2.5693,-2.5693,-2.5693,-2.5693,-2.5693,-2.5693,-2.5693,-2.5693,-2.5693,-2.5693,-2.5693,-2.5693,-2.5693,-2.5693,-2.5693,-2.5693,-2.5693,-2.5693,-2.5693,-2.5693,-2.5693,-2.5693,-2.5693,-2.5693,-2.5693,-2.5693,-2.5693,-2.5693,-2.5693,-2.5693,-2.5693,-2.5693,-2.5693,-2.5693,-2.5693,-2.5693,-2.542,-2.5195,-2.5195,-2.4805,-2.4512,-2.4424,-2.4111,-2.3906,-2.3906,-2.3594,-2.3398,-2.3344,-2.3398,-2.3648,-2.4023,-2.4043,-2.4248,-2.4631,-2.5019,-2.5195,-2.5205,-2.5566,-2.5547,-2.3053,-2.1977,-2.1248,-2.1362,-2.1679,-2.2251,0.0,0.0,-2.3609,-2.4033,-2.417,-2.4346,-2.4881,-2.4467,-2.4271,-2.493,-2.4545,-2.4233,-2.4547,-2.3675,-2.2885,-2.2371,-2.1856,-2.1378,-2.0917,-2.0987,-2.1438,-2.224,-2.2433,-2.2935,-2.389,-2.3035,-2.2038,-2.1089,-2.0987,-2.0987,-2.1081,-2.0834,-2.1785,-2.3939,-2.3791,-2.4304,-2.5333,-2.5489,-2.5479,-2.5333,-2.5479,-2.5528,-2.5528,-2.5635,-2.5693,-2.5693,-2.5693,-2.5693,-2.5693,-2.5693,-2.5693,-2.5693,-2.5693,-2.5693,-2.5693,-2.5693,-2.5693,-2.5693,-2.5693,-2.5693,-2.5693,-2.5693,-2.5693,-2.5693,-2.5693,-2.5693,-2.5693,-2.5693,-2.5693,-2.5693,-2.5693,-2.5693,-2.5693,-2.5693,-2.5693,-2.5693,-2.5693,-2.5693,-2.5693,-2.5693,-2.5693,-2.5693,-2.5693,-2.5645,-2.5615,-2.5615,-2.5264,-2.4834,-2.4453,-2.4375,-2.4346,-2.4346,-2.4307,-2.4277,-2.4268,-2.4277,-2.4482,-2.4969,-2.4969,-2.5146,-2.5538,-2.5596,-2.5615,-2.5615,-2.5664,-2.5664,-2.4229,-2.3238,-2.2494,0.0,-2.2794,-2.3202,-2.3717,-2.3975,-2.4277,-2.4707,-2.4795,-2.4733,-2.4562,-2.4427,-2.4062,0.0,-2.3125,-2.3222,-2.3638,-2.307,-2.2702,-2.2876,-2.2609,-2.1933,-2.0968,-2.2038,-2.2693,-2.2484,-2.3085,-2.3085,-2.2291,-2.1836,-2.1081,-1.9983,-2.0585,-2.1183,-2.1836,-2.1836,-2.2894,-2.502,-2.4402,-2.4658,-2.5693,-2.5693,-2.5693,-2.5693,-2.5693,-2.5693,-2.5693,-2.5693,-2.5693,-2.5693,-2.5693,-2.5693,-2.5693,-2.5693,-2.5693,-2.5693,-2.5693,-2.5693,-2.5693,-2.5693,-2.5693,-2.5693,-2.5693,-2.5693,-2.5693,-2.5693,-2.5693,-2.5693,-2.5693,-2.5693,-2.5693,-2.5693,-2.5693,-2.5693,-2.5693,-2.5693,-2.5693,-2.5693,-2.5693,-2.5693,-2.5693,-2.5693,-2.5693,-2.5693,-2.5693,-2.5693,-2.5693,-2.5693,-2.5693,-2.5693,-2.5566,-2.5381,-2.5148,-2.5138,-2.5138,-2.5138,-2.5138,-2.5138,-2.5138,-2.5138,-2.5273,-2.5449,-2.5459,-2.5547,-2.5693,-2.5693,-2.5693,-2.5693,-2.5693,-2.5693,-2.4657,-2.4068,-2.355,-2.3384,-2.3785,-2.4141,-2.4141,-2.4473,-2.4873,-2.5185,-2.5254,-2.5044,-2.4239,-2.4368,-2.4106,-2.2548,-2.2592,-2.2923,-2.3237,-2.2996,-2.2982,-2.3353,-2.3168,-2.2552,-2.1471,-2.2743,-2.3335,-2.2534,-2.2944,-2.2534,-2.0987,-2.0885,-2.0534,-1.9783,-2.0783,-2.1836,-2.2935,-2.2643,-2.3552,-2.5693,-2.4609,-2.4658,-2.5693,-2.5693,-2.5693,-2.5693,-2.5693,-2.5693,-2.5693,-2.5693,-2.5693,-2.5693,-2.5693,-2.5693,-2.5693,-2.5693,-2.5693,-2.5693,-2.5693,-2.5693,-2.5693,-2.5693,-2.5693,-2.5693,-2.5693,-2.5693,-2.5693,-2.5693,-2.5693,-2.5693,-2.5693,-2.5693,-2.5693,-2.5693,-2.5693,-2.5693,-2.5693,-2.5693,-2.5693,-2.5693,-2.5693,-2.5693,-2.5693,-2.5693,-2.5693,-2.5693,-2.5693,-2.5693,-2.5693,-2.5693,-2.5693,-2.5693,-2.5693,-2.5693,-2.5693,-2.5693,-2.5693,-2.5693,-2.5693,-2.5693,-2.5693,-2.5693,-2.5693,-2.5693,-2.5693,-2.5693,-2.5693,-2.5693,-2.5693,-2.5693,-2.5693,-2.5752,-2.3908,-2.3789,-2.3769,-2.3769,-2.445,-2.5077,-2.5077,-2.5371,-2.5654,-2.5664,-2.5664,-2.5362,-2.4295,-2.4368,-2.4362,-2.3651,-2.3815,-2.4071,-2.4079,-2.4071,-2.3798,-2.3108,-2.3014,-2.2852,0.0,-2.2484,-2.2534,-2.2484,-2.1591,-2.0987,-2.0885,-2.0885,-2.0885,-2.0834,-2.1887,-2.2994,-2.4038,-2.3035,-2.3552,-2.5693,-2.4609,-2.4658,-2.5693,-2.5693,-2.5693,-2.5693,-2.5693,-2.5693,-2.5693,-2.5693,-2.5693,-2.5693,-2.5693,-2.5693,-2.5693,-2.5693,-2.5693,-2.5693,-2.5693,-2.5693,-2.5693,-2.5693,-2.5693,-2.5693,-2.5693,-2.5693,-2.5693,-2.5693,-2.5693,-2.5693,-2.5693,-2.5693,-2.5693,-2.5693,-2.5693,-2.5693,-2.5693,-2.5693,-2.5693,-2.5693,-2.5693,-2.5693,-2.5693,-2.5693,-2.5693,-2.5693,-2.5693,-2.5693,-2.5693,-2.5693,-2.5693,-2.5693,-2.5693,-2.5693,-2.5693,-2.5693,-2.5693,-2.5693,-2.5693,-2.5693,-2.5693,-2.5693,-2.5693,-2.5693,-2.5693,-2.5693,-2.5693,-2.5693,-2.5693,-2.5693,-2.5693,-2.5967,-2.4209,-2.4209,-2.4277,-2.456,-2.49,-2.5194,-2.5439,-2.5586,-2.5693,-2.5693,-2.5693,-2.5372,-2.4295,-2.4368,-2.4281,-2.3376,-2.3715,-2.4246,-2.4739,-2.4852,-2.4673,-2.4224,-2.391,0.0,0.0,0.0,0.0,-2.2484,-2.219,-2.1937,-2.1937,-2.1937,-2.1937,-2.1937,-2.2985,-2.3384,-2.3035,-2.3393,-2.3939,-2.4648,-2.4962,-2.5323,-2.5693,-2.5693,-2.5693,-2.5693,-2.5693,-2.5693,-2.5693,-2.5693,-2.5693,-2.5693,-2.5693,-2.5693,-2.5693,-2.5693,-2.5693,-2.5693,-2.5693,-2.5693,-2.5693,-2.5693,-2.5693,-2.5693,-2.5693,-2.5693,-2.5693,-2.5693,-2.5693,-2.5693,-2.5693,-2.5693,-2.5693,-2.5693,-2.5693,-2.5693,-2.5693,-2.5693,-2.5693,-2.5693,-2.5693,-2.5693,-2.5693,-2.5693,-2.5693,-2.5693,-2.5693,-2.5693,-2.5693,-2.5693,-2.5693,-2.5693,-2.5693,-2.5693,-2.5693,-2.5693,-2.5693,-2.5693,-2.5693,-2.5693,-2.5693,-2.5693,-2.5693,-2.5693,-2.5693,-2.5693,-2.5693,-2.5693,-2.5693,-2.5693,-2.5693,-2.5977,-2.457,-2.4648,-2.4756,-2.5195,-2.5303,-2.5381,-2.5625,-2.5693,-2.5693,-2.5693,-2.5693,-2.5372,-2.4295,-2.4566,-2.4697,-2.3768,-2.4481,-2.5231,-2.5563,-2.5741,-2.568,-2.5195,-2.452,-2.384,0.0,0.0,0.0,-2.2484,-2.2484,-2.2484,-2.2484,-2.2835,-2.3085,-2.3085,-2.3741,-2.3791,-2.3085,-2.2985,-2.3144,-2.3543,-2.4609,-2.5323,-2.5693,-2.5693,-2.5693,-2.5693,-2.5693,-2.5693,-2.5693,-2.5693,-2.5693,-2.5693,-2.5693,-2.5693,-2.5703,-2.5869,-2.5967,-2.5947,-2.5742,-2.5693,-2.5693,-2.5693,-2.5693,-2.5693,-2.5693,-2.5693,-2.5693,-2.5693,-2.5693,-2.5693,-2.5693,-2.5693,-2.5693,-2.5693,-2.5693,-2.5693,-2.5693,-2.5693,-2.5693,-2.5693,-2.5693,-2.5693,-2.5693,-2.5693,-2.5693,-2.5693,-2.5693,-2.5693,-2.5693,-2.5693,-2.5693,-2.5693,-2.5693,-2.5693,-2.5693,-2.5693,-2.5693,-2.5693,-2.5693,-2.5693,-2.5693,-2.5693,-2.5693,-2.5693,-2.5693,-2.5693,-2.5693,-2.5693,-2.5693,-2.5693,-2.5849,-2.6201,-2.4891,-2.5135,-2.5205,-2.5586,-2.5693,-2.5693,-2.5693,-2.5693,-2.5693,-2.5693,-2.5674,-2.5343,0.0,0.0,-2.5497,-2.495,-2.605,-2.6865,-2.6445,-2.6748,-2.6649,0.0,0.0,0.0,0.0,0.0,0.0,-2.2584,0.0,-2.2593,-2.2634,-2.3642,-2.4187,-2.4187,-2.4187,-2.4146,-2.4088,-2.2089,-2.1582,-2.2584,-2.3692,-2.4707,-2.5693,-2.5693,-2.5693,-2.5693,-2.5693,-2.5693,-2.5693,-2.5693,-2.5693,-2.5693,-2.5693,-2.5693,-2.5742,-2.623,-2.6387,-2.6338,-2.5888,-2.5752,-2.5752,-2.5732,-2.5723,-2.5713,-2.5693,-2.5693,-2.5693,-2.5693,-2.5693,-2.5693,-2.5693,-2.5693,-2.5693,-2.5693,-2.5693,-2.5693,-2.5693,-2.5693,-2.5693,-2.5693,-2.5693,-2.5693,-2.5693,-2.5693,-2.5693,-2.5693,-2.5693,-2.5693,-2.5693,-2.5693,-2.5693,-2.5693,-2.5693,-2.5693,-2.5693,-2.5693,-2.5693,-2.5693,-2.5693,-2.5693,-2.5693,-2.5693,-2.5693,-2.5693,-2.5693,-2.5693,-2.5693,-2.5693,-2.5703,-2.5732,-2.6191,-2.6631,-2.4922,-2.5312,-2.5596,-2.5664,-2.5693,-2.5693,-2.5693,-2.5693,-2.5693,-2.5693,-2.5469,-2.5187,0.0,0.0,0.0,-2.5429,-2.6323,0.0,-2.6445,-2.6748,0.0,-2.4702,0.0,-2.3791,-2.2994,-2.3384,0.0,0.0,-2.3683,-2.4048,-2.4824,-2.5118,-2.5274,-2.5274,-2.5274,-2.4913,-2.4088,-2.3543,-2.3434,-2.3692,-2.4766,-2.543,-2.5693,-2.5693,-2.5693,-2.5693,-2.5693,-2.5693,-2.5693,-2.5693,-2.5693,-2.5693,-2.5693,-2.5693,-2.5742,-2.623,-2.6387,-2.6416,-2.6621,-2.6689,-2.6641,-2.6328,-2.6221,-2.6162,-2.5791,-2.5693,-2.5693,-2.5693,-2.5693,-2.5693,-2.5693,-2.5693,-2.5693,-2.5693,-2.5693,-2.5693,-2.5693,-2.5693,-2.5693,-2.5693,-2.5693,-2.5693,-2.5693,-2.5693,-2.5693,-2.5693,-2.5693,-2.5693,-2.5693,-2.5693,-2.5693,-2.5693,-2.5693,-2.5693,-2.5693,-2.5693,-2.5693,-2.5693,-2.5693,-2.5693,-2.5693,-2.5693,-2.5693,-2.5693,-2.5693,-2.5693,-2.5693,-2.5693,-2.5908,-2.6221,-2.6338,-2.6787,-2.5244,-2.5547,-2.5693,-2.5693,-2.5693,-2.5635,-2.5488,-2.5439,-2.5391,-2.5148,-2.4961,0.0,-2.4785,-2.4941,0.0,0.0,0.0,0.0,-2.6445,-2.6748,-2.6427,0.0,-2.4805,0.0,-2.3958,-2.4461,-2.4805,0.0,-2.4805,-2.5069,-2.5684,-2.5693,-2.5693,-2.5693,-2.5226,-2.4461,-2.3393,-2.3384,-2.3633,-2.4088,-2.4707,-2.5226,-2.5693,-2.5693,-2.5693,-2.5693,-2.5693,-2.5693,-2.5693,-2.5693,-2.5693,-2.5703,-2.5947,-2.6025,-2.6103,-2.6719,-2.6953,-2.7012,-2.7432,-2.7578,-2.7471,-2.6865,-2.6533,-2.6338,-2.6103,-2.584,-2.5693,-2.5693,-2.5693,-2.5693,-2.5693,-2.5693,-2.5693,-2.5693,-2.5693,-2.5693,-2.5693,-2.5693,-2.5693,-2.5693,-2.5693,-2.5693,-2.5693,-2.5693,-2.5693,-2.5693,-2.5693,-2.5693,-2.5693,-2.5693,-2.5693,-2.5693,-2.5693,-2.5693,-2.5693,-2.5693,-2.5693,-2.5693,-2.5693,-2.5693,-2.5693,-2.5693,-2.5693,-2.5693,-2.5693,-2.5693,-2.5693,-2.5928,-2.6152,-2.6396,-2.6768,-2.7207,-2.5567,-2.5693,-2.5693,-2.5693,-2.5693,-2.5567,-2.5166,-2.5067,-2.4853,-2.4424,0.0,-2.4248,-2.4248,-2.4648,-2.5127,-2.5528,0.0,-2.6807,-2.6435,-2.6699,-2.6631,-2.5781,-2.5693,-2.5693,-2.5693,-2.5693,-2.5693,-2.5693,-2.5693,-2.5693,-2.5693,-2.5693,-2.5693,-2.5693,-2.4805,-2.385,-2.2944,-2.2944,-2.3393,-2.4295,-2.4295,-2.4805,-2.5693,-2.5693,-2.5693,-2.5693,-2.5693,-2.5693,-2.5693,-2.5693,-2.5723,-2.581,-2.624,-2.6387,-2.6494,-2.7405,-2.7679,-2.7646,-2.8125,-2.8291,-2.8164,-2.7363,-2.6855,-2.6543,-2.6494,-2.6211,-2.5859,-2.5859,-2.5859,-2.5859,-2.5859,-2.582,-2.5791,-2.5849,-2.582,-2.5771,-2.5771,-2.5732,-2.5693,-2.5693,-2.5693,-2.5693,-2.5693,-2.5693,-2.5693,-2.5693,-2.5693,-2.5693,-2.5693,-2.5693,-2.5693,-2.5693,-2.5693,-2.5693,-2.5693,-2.5693,-2.5693,-2.5693,-2.5693,-2.5693,-2.5693,-2.5693,-2.5693,-2.5693,-2.5693,-2.5713,-2.5771,-2.6201,-2.6445,-2.6572,-2.7366,-2.7748,-2.5567,-2.5693,-2.5693,-2.5693,-2.5693,-2.5567,-2.5166,-2.4785,0.0,0.0,-2.3623,-2.3379,-2.3315,-2.4004,-2.4678,-2.5117,-2.5928,-2.6475,-2.6396,-2.6455,-2.6309,0.0,-2.5693,-2.5693,-2.5693,-2.5693,0.0,0.0,-2.5693,-2.5693,-2.5693,-2.5693,-2.5693,-2.5693,-2.5528,-2.5333,-2.5128,-2.5128,-2.5226,-2.543,-2.543,-2.5528,-2.5693,-2.5693,-2.5693,-2.5693,-2.5693,0.0,-2.5693,-2.5693,-2.5947,-2.6279,-2.6357,-2.6387,-2.6494,-2.7405,-2.7432,-2.7236,-2.8018,-2.8291,-2.8213,-2.7715,-2.7552,-2.7373,-2.7012,-2.6855,-2.6797,-2.6797,-2.6797,-2.6797,-2.6797,-2.6543,-2.6357,-2.6709,-2.6523,-2.6279,-2.6279,-2.5986,-2.5693,-2.5693,-2.5693,-2.5693,-2.5693,-2.5693,-2.5693,-2.5693,-2.5693,-2.5693,-2.5693,-2.5693,-2.5693,-2.5693,-2.5693,-2.5693,-2.5693,-2.5693,-2.5693,-2.5693,-2.5693,-2.5693,-2.5693,-2.5693,-2.5693,-2.5693,-2.5693,-2.5869,-2.6279,-2.6357,-2.6758,-2.7503,-2.765,-2.7851,-2.5635,-2.5693,-2.5693,-2.5693,-2.5693,-2.5508,-2.4883,0.0,0.0,0.0,-2.2793,-2.25,-2.249,-2.3184,0.0,-2.4629,-2.5273,-2.5859,-2.6328,-2.6191,0.0,-2.5713,-2.5693,-2.5693,0.0,-2.5693,-2.5693,-2.5693,-2.5693,-2.5693,-2.5693,-2.5693,-2.5693,-2.5693,-2.5693,-2.5693,-2.5693,-2.5693,-2.5693,-2.5693,-2.5693,-2.5693,-2.5693,-2.5693,-2.5693,-2.5693,-2.5693,-2.5693,-2.5693,-2.5693,-2.581,-2.6094,-2.6543,-2.6709,-2.6816,-2.7676,-2.7861,-2.7744,-2.8144,-2.8291,-2.8262,-2.8057,-2.7894,-2.7679,-2.7412,-2.7197,-2.7012,-2.7012,-2.7012,-2.7012,-2.7012,-2.6865,-2.6768,-2.6973,-2.6865,-2.6709,-2.6709,-2.6553,-2.6288,-2.6123,-2.6074,-2.6006,-2.5732,-2.5879,-2.5996,-2.5723,-2.5937,-2.5996,-2.5713,-2.5693,-2.5693,-2.5693,-2.5693,-2.5693,-2.5693,-2.5693,-2.5693,-2.5693,-2.5693,-2.5693,-2.5693,-2.5693,-2.5693,-2.5693,-2.5967,-2.6182,-2.6387,-2.6836,-2.7266,-2.7728,-2.7891,-2.8096,-2.5693,-2.5693,-2.5693,-2.5693,-2.5693,-2.546,-2.4619,-2.4023,0.0,0.0,-2.2041,-2.1748,-2.1748,0.0,-2.3271,0.0,-2.4512,-2.5145,-2.5977,-2.581,-2.5586,0.0,-2.5693,0.0,-2.5693,-2.5693,0.0,-2.5693,-2.5693,-2.5693,-2.5693,-2.5693,-2.5693,-2.5693,-2.5693,-2.5693,-2.5693,-2.5693,-2.5693,-2.5693,-2.5693,-2.5693,-2.5693,-2.5693,-2.5693,-2.5693,-2.5693,-2.5693,-2.5693,-2.5693,-2.5742,-2.5947,-2.6621,-2.6934,-2.71,-2.7773,-2.8018,-2.8018,-2.8018,-2.8076,-2.8154,-2.8154,-2.7998,-2.7855,-2.7855,-2.7559,-2.7285,-2.7285,-2.7285,-2.7285,-2.7285,-2.7217,-2.7158,-2.7158,-2.7158,-2.7158,-2.7158,-2.708,-2.6914,-2.6592,-2.6523,-2.6416,-2.6015,-2.6289,-2.6377,-2.5947,-2.6172,-2.623,-2.5742,-2.5693,-2.5693,-2.5693,-2.5693,-2.5693,-2.5693,-2.5771,-2.583,-2.583,-2.5908,-2.5966,-2.5966,-2.5966,-2.5966,-2.5966,-2.6348,-2.6572,-2.666,-2.7386,-2.7767,-2.7865,-2.8135,-2.834,-2.5693,-2.5693,-2.5693,-2.5693,-2.5693,-2.546,-2.4619,0.0,-2.2916,-2.2119,-2.1592,-2.1249,-2.1249,-2.2002,0.0,0.0,0.0,-2.4209,-2.5116,-2.5204,-2.5283,-2.5635,0.0,0.0,-2.5693,-2.5693,-2.5693,-2.5693,-2.5693,-2.5693,-2.5693,-2.5693,-2.5693,-2.5693,-2.5693,-2.5693,-2.5693,-2.5693,-2.5693,-2.5693,-2.5693,-2.5693,-2.5693,-2.5693,-2.5693,-2.5693,-2.5693,-2.5693,0.0,-2.5693,-2.5967,-2.6338,-2.6416,-2.668,-2.7021,-2.71,-2.7129,-2.7129,-2.7129,-2.7393,-2.7777,-2.7777,-2.7959,-2.8232,-2.8232,-2.8203,-2.8174,-2.8174,-2.8174,-2.8174,-2.8174,-2.7891,-2.766,-2.766,-2.766,-2.766,-2.766,-2.7295,-2.7002,-2.6963,-2.6953,-2.6943,-2.6904,-2.6934,-2.6816,-2.6396,-2.6367,-2.623,-2.5742,-2.5693,-2.5693,-2.5693,-2.5693,-2.5693,-2.5693,-2.6103,-2.6328,-2.6328,-2.6689,-2.6894,-2.6894,-2.6894,-2.6894,-2.6894,-2.6934,-2.7148,-2.7601,-2.7679,-2.7914,-2.8232,-2.8271,-2.8496,-2.5615,-2.5693,-2.5693,-2.5693,-2.5693,-2.546,-2.4619,0.0,-2.2857,-2.206,-2.1328,-2.083,-2.083,-2.1328,-2.1921,0.0,0.0,0.0,-2.4521,-2.4678,-2.4834,-2.5283,-2.5528,0.0,0.0,0.0,-2.5693,-2.5693,-2.5693,-2.5693,-2.5693,-2.5693,-2.5693,-2.5693,-2.5693,-2.5693,-2.5693,-2.5693,-2.5693,-2.5693,-2.5693,-2.5693,-2.5693,-2.5693,-2.5693,-2.5693,-2.5693,-2.5693,0.0,-2.5693,-2.5791,-2.6025,-2.6289,-2.6494,-2.667,-2.6924,-2.7012,-2.7012,-2.7012,-2.7305,-2.7718,-2.7718,-2.7949,-2.8291,-2.8291,-2.8291,-2.8291,-2.8291,-2.8291,-2.8291,-2.8291,-2.8164,-2.8047,-2.8047,-2.8047,-2.8047,-2.8047,-2.79,-2.7705,-2.7461,-2.7402,-2.7324,-2.706,-2.7236,-2.7256,-2.6826,-2.6992,-2.7002,-2.6562,-2.6504,-2.6504,-2.6504,-2.6279,-2.6133,-2.6133,-2.6523,-2.6768,-2.6768,-2.6924,-2.7012,-2.7012,-2.7012,-2.7012,-2.7012,-2.7275,-2.749,-2.7718,-2.792,-2.8125,-2.8291,-2.8291,-2.8525,-2.5771,-2.5791,-2.5693,-2.5693,-2.5693,-2.546,0.0,-2.3715,-2.2857,-2.206,-2.1222,-2.0605,-2.0605,-2.0937,-2.1434,-2.2207,0.0,-2.292,-2.4062,-2.4228,-2.4443,0.0,0.0,-2.5596,0.0,-2.5693,-2.5693,-2.5693,-2.5693,-2.5693,-2.5693,-2.5693,-2.5693,-2.5693,-2.5693,-2.5693,-2.5693,-2.5693,-2.5693,-2.5693,-2.5693,-2.5693,-2.5693,-2.5693,-2.5693,-2.5693,-2.5693,-2.5693,0.0,-2.5693,-2.5693,-2.5713,-2.6074,-2.6279,-2.6406,-2.6572,-2.6719,-2.6807,-2.668,-2.7002,-2.7471,-2.7471,-2.7842,-2.8291,-2.8291,-2.8291,-2.8291,-2.8291,-2.8291,-2.8291,-2.8291,-2.8291,-2.8291,-2.8291,-2.8291,-2.8291,-2.8291,-2.8291,-2.8203,-2.791,-2.7851,-2.7754,-2.7441,-2.7646,-2.7705,-2.7275,-2.7471,-2.751,-2.707,-2.7012,-2.7012,-2.7012,-2.6865,-2.6709,-2.6582,-2.6963,-2.7207,-2.7207,-2.7324,-2.7393,-2.7393,-2.7393,-2.7393,-2.7393,-2.7695,-2.7851,-2.7851,-2.8144,-2.8291,-2.8301,-2.8418,-2.8769,-2.6192,-2.6064,-2.5693,-2.5693,-2.5693,-2.546,-2.4619,-2.3715,-2.2857,-2.206,-2.1222,-2.0605,-2.0605,-2.0937,-2.1377,-2.1816,-2.2236,0.0,-2.3672,-2.3799,-2.4111,0.0,0.0,-2.5254,-2.5645,-2.5693,-2.5693,-2.5693,-2.5693,0.0,-2.5693,-2.5693,-2.5693,-2.5693,-2.5693,-2.5693,-2.5693,-2.5693,-2.5693,-2.5693,-2.5693,-2.5693,-2.5693,-2.5693,-2.5693,-2.5693,-2.5693,-2.5693,0.0,-2.5693,-2.5693,-2.5693,-2.5693,-2.6006,-2.6338,-2.5859,-2.6025,-2.6338,-2.5849,-2.6259,-2.7021,-2.7021,-2.7598,-2.8291,-2.8291,-2.8291,-2.8291,-2.8291,-2.8291,-2.8291,-2.8291,-2.8291,-2.8291,-2.8291,-2.8291,-2.8291,-2.8291,-2.8291,-2.8291,-2.8281,-2.8281,-2.8281,-2.8281,-2.8281,-2.8144,-2.7777,-2.7718,-2.751,-2.707,-2.7012,-2.7012,-2.7012,-2.7402,-2.748,-2.7041,-2.7402,-2.7708,-2.7708,-2.8047,-2.8281,-2.8281,-2.8281,-2.8281,-2.8281,-2.8281,-2.8281,-2.8281,-2.8291,-2.8291,-2.8301,-2.8721,-2.9365,-2.5428,-2.5381,-2.5205,-2.4902,-2.4787,-2.4609,-2.376,-2.3125,-2.2471,-2.1621,-2.0977,-2.0605,-2.0605,-2.0684,-2.1113,-2.2148,-2.2432,0.0,0.0,0.0,0.0,-2.4629,-2.5156,-2.5586,0.0,0.0,-2.5693,-2.5693,-2.5693,-2.5693,-2.5693,-2.5693,-2.5693,-2.5693,-2.5693,-2.5693,-2.5693,-2.5693,-2.5693,-2.5693,-2.5693,-2.5693,-2.5693,-2.5693,-2.5693,-2.5693,-2.5693,-2.5693,-2.5693,-2.5693,-2.5693,-2.5693,-2.5693,-2.5771,-2.5879,-2.5742,-2.5771,-2.5967,-2.6133,-2.6553,-2.706,-2.7363,-2.7842,-2.8291,-2.8291,-2.8291,-2.8291,-2.8291,-2.8291,-2.8291,-2.8291,-2.8291,-2.8291,-2.8291,-2.8291,-2.8291,-2.8291,-2.8291,-2.8291,-2.8291,-2.8291,-2.8291,-2.8291,-2.8291,-2.8252,-2.8115,-2.8096,-2.8047,-2.79,-2.7891,-2.7891,-2.7891,-2.8008,-2.792,-2.749,-2.7851,-2.8096,-2.8096,-2.8223,-2.8291,-2.8291,-2.8291,-2.8291,-2.8291,-2.8291,-2.8291,-2.8291,-2.8291,-2.8437,-2.873,-2.916,-2.9658,-2.4965,-2.4951,-2.4756,-2.4482,-2.4414,-2.4199,-2.3403,-2.2822,-2.2266,-2.1366,-2.0879,-2.0605,-2.0605,-2.0703,-2.1084,-2.1894,-2.2305,0.0,0.0,0.0,0.0,-2.4658,0.0,0.0,0.0,-2.5693,-2.5693,-2.5693,-2.5693,-2.5693,-2.5693,-2.5693,-2.5693,-2.5693,-2.5693,-2.5693,-2.5693,-2.5693,-2.5693,-2.5693,-2.5693,-2.5693,-2.5693,-2.5693,-2.5693,-2.5693,-2.5693,-2.5693,0.0,-2.5693,-2.5693,-2.5693,-2.5693,-2.5693,-2.5693,-2.5693,-2.5693,-2.5752,-2.624,-2.666,-2.709,-2.7529,-2.7949,-2.8291,-2.8291,-2.8291,-2.8291,-2.8291,-2.8291,-2.8291,-2.8291,-2.8291,-2.8291,-2.8291,-2.8291,-2.8291,-2.8291,-2.8291,-2.8291,-2.8291,-2.8291,-2.8291,-2.8291,-2.8291,-2.8291,-2.8291,-2.8291,-2.8291,-2.8291,-2.8291,-2.8291,-2.8291,-2.8291,-2.8184,-2.792,-2.8144,-2.8291,-2.8291,-2.8291,-2.8291,-2.8291,-2.8291,-2.8291,-2.8291,-2.8291,-2.8291,-2.8291,-2.8447,-2.8828,-2.9404,-2.9678,-3.0039,0.0,-2.457,-2.4277,-2.4248,-2.4238,-2.4023,-2.3257,-2.2715,0.0,-2.1317,-2.0859,-2.0615,-2.0644,-2.0928,-2.119,-2.1307,-2.197,0.0,0.0,-2.331,0.0,0.0,-2.5488,0.0,-2.5693,-2.5693,-2.5693,-2.5693,-2.5693,-2.5693,-2.5693,-2.5693,-2.5693,-2.5693,-2.5693,-2.5693,-2.5693,-2.5693,-2.5693,-2.5693,-2.5693,-2.5693,-2.5693,-2.5693,-2.5693,0.0,-2.5693,-2.5693,-2.5693,-2.5693,-2.5693,-2.5693,-2.5693,-2.5693,-2.5693,-2.5693,-2.5693,-2.5752,-2.6269,-2.6689,-2.709,-2.7559,-2.7978,-2.8291,-2.8291,-2.8291,-2.8291,-2.8291,-2.8291,-2.8291,-2.8291,-2.8291,-2.8291,-2.8291,-2.8291,-2.8291,-2.8291,-2.8291,-2.8291,-2.8291,-2.8291,-2.8291,-2.8291,-2.8291,-2.8291,-2.8291,-2.8291,-2.8291,-2.8291,-2.8291,-2.8291,-2.8291,-2.8291,-2.8291,-2.8291,-2.8291,-2.8291,-2.8291,-2.8291,-2.8291,-2.8291,-2.8291,-2.8291,-2.8291,-2.832,-2.834,-2.834,-2.876,-2.9394,-3.0195,-3.0195,-3.0449,-2.2559,0.0,-2.2881,-2.2559,-2.248,-2.2344,0.0,-2.157,-2.1377,-2.084,-2.0674,-2.0713,-2.1016,-2.0879,-2.1152,-2.2438,0.0,-2.2734,-2.3398,0.0,0.0,-2.5478,-2.5625,-2.5693,-2.5693,-2.5693,-2.5693,-2.5693,-2.5693,-2.5693,-2.5693,-2.5693,-2.5693,-2.5693,-2.5693,-2.5693,-2.5693,-2.5693,-2.5693,-2.5693,-2.5693,-2.5693,-2.5693,-2.5693,-2.5693,-2.5693,-2.5693,-2.5693,-2.5693,-2.5693,-2.5693,-2.5693,-2.5693,-2.5693,-2.5693,-2.5693,-2.5693,-2.5801,-2.6602,-2.6934,-2.7139,-2.79,-2.8213,-2.8291,-2.8291,-2.8291,-2.8291,-2.8291,-2.8291,-2.8291,-2.8291,-2.8291,-2.8291,-2.8291,-2.8291,-2.8291,-2.8291,-2.8291,-2.8291,-2.8291,-2.8291,-2.8291,-2.8291,-2.8291,-2.8291,-2.8291,-2.8291,-2.8291,-2.8291,-2.8291,-2.8291,-2.8291,-2.8291,-2.8291,-2.8291,-2.8291,-2.8291,-2.8291,-2.8291,-2.8291,-2.8291,-2.8291,-2.8291,-2.8291,-2.8603,-2.8769,-2.8769,-2.9209,-2.9687,-3.0195,-3.0195,-3.0449,-2.1471,-2.1977,-2.2461,-2.2227,-2.2168,-2.206,-2.1631,-2.1337,-2.1103,-2.0693,0.0,-2.0674,-2.0879,-2.0898,-2.1182,-2.2068,-2.236,0.0,0.0,0.0,-2.4971,-2.5606,-2.5693,-2.5693,0.0,-2.5693,-2.5693,-2.5693,-2.5693,-2.5693,-2.5693,-2.5693,-2.5693,-2.5693,-2.5693,-2.5693,-2.5693,-2.5693,-2.5693,-2.5693,-2.5693,-2.5693,-2.5693,-2.5693,-2.5693,-2.5693,-2.5693,-2.5693,-2.5693,-2.5693,-2.5693,-2.5693,-2.5693,-2.5693,-2.5693,-2.5693,-2.5693,-2.581,-2.6719,-2.7275,-2.7676,-2.8144,-2.8291,-2.8291,-2.8291,-2.8291,-2.8291,-2.8291,-2.8291,-2.8291,-2.8291,-2.8291,-2.8291,-2.8291,-2.8291,-2.8291,-2.8291,-2.8291,-2.8291,-2.8291,-2.8291,-2.8291,-2.8291,-2.8291,-2.8291,-2.8291,-2.8291,-2.8291,-2.8291,-2.8291,-2.8291,-2.8291,-2.8291,-2.8291,-2.8291,-2.8291,-2.8291,-2.8291,-2.8291,-2.8291,-2.8291,-2.8291,-2.8389,-2.8574,-2.9004,-2.9316,-2.9502,-2.9746,-3.0088,-3.0518,-3.0518,-3.0644,-2.0985,-2.1655,-2.2383,-2.2246,-2.2266,-2.2207,-2.1777,0.0,0.0,0.0,0.0,0.0,0.0,-2.1133,0.0,0.0,0.0,0.0,-2.4355,-2.4834,-2.5234,-2.5635,-2.5693,0.0,-2.5693,-2.5693,-2.5693,-2.5693,-2.5693,-2.5693,-2.5693,-2.5693,-2.5693,-2.5693,-2.5693,-2.5693,-2.5693,-2.5693,-2.5693,-2.5693,-2.5693,-2.5693,-2.5693,-2.5693,-2.5693,-2.5693,-2.5693,0.0,-2.5693,-2.5693,-2.5693,-2.5693,-2.5693,-2.5693,-2.5693,-2.5693,-2.5732,-2.5908,-2.6816,-2.7627,-2.8291,-2.8291,-2.8291,-2.8291,-2.8291,-2.8291,-2.8291,-2.8291,-2.8291,-2.8291,-2.8291,-2.8291,-2.8291,-2.8291,-2.8291,-2.8291,-2.8291,-2.8291,-2.8291,-2.8291,-2.8291,-2.8291,-2.8291,-2.8291,-2.8291,-2.8291,-2.8291,-2.8291,-2.8291,-2.8291,-2.8291,-2.8291,-2.8291,-2.8291,-2.8291,-2.8291,-2.832,-2.8389,-2.833,-2.832,-2.8389,-2.8389,-2.8584,-2.9014,-2.9443,-2.9844,-3.0195,-3.0264,-3.0508,-3.0889,-3.0889,-3.0889,-2.1154,-2.1553,-2.1807,-2.1094,-2.1152,-2.1278,-2.0909,-2.0752,-2.0683,0.0,0.0,0.0,0.0,-2.2031,-2.2549,0.0,0.0,-2.4326,0.0,0.0,-2.5234,-2.5635,0.0,-2.5693,-2.5693,-2.5693,-2.5693,-2.5693,-2.5693,-2.5693,-2.5693,-2.5693,-2.5693,-2.5693,-2.5693,-2.5693,-2.5693,-2.5693,-2.5693,-2.5693,-2.5693,-2.5693,-2.5693,-2.5693,-2.5693,-2.5693,0.0,-2.5693,-2.5693,-2.5693,-2.5693,-2.5693,-2.5693,-2.5693,-2.5693,-2.5693,-2.5977,-2.6406,-2.7266,-2.7881,-2.8291,-2.8291,-2.8291,-2.8291,-2.8291,-2.8291,-2.8291,-2.8291,-2.8291,-2.8291,-2.8291,-2.8291,-2.8291,-2.8291,-2.8291,-2.8291,-2.8291,-2.8291,-2.8291,-2.8291,-2.8291,-2.8291,-2.8291,-2.8291,-2.8291,-2.8291,-2.8291,-2.8291,-2.8291,-2.8291,-2.8291,-2.8291,-2.8291,-2.8291,-2.8291,-2.8291,-2.8447,-2.8799,-2.8496,-2.8447,-2.8809,-2.8818,-2.9023,-2.9463,-2.9893,-3.0137,-3.0195,-3.0596,-3.082,-3.0889,-3.0889,-3.0889,-2.1183,-2.1528,-2.1728,-2.1094,-2.1435,-2.1865,-2.166,-2.1445,-2.1319,0.0,0.0,0.0,0.0,0.0,-2.3144,-2.3984,0.0,-2.4834,-2.5086,-2.5273,-2.5508,0.0,0.0,-2.5693,-2.5693,-2.5693,-2.5693,-2.5693,-2.5693,-2.5693,-2.5693,-2.5693,-2.5693,-2.5693,-2.5693,-2.5693,-2.5693,-2.5693,-2.5693,-2.5693,-2.5693,-2.5693,-2.5693,-2.5693,-2.5693,-2.5693,0.0,-2.5693,-2.5693,-2.5693,-2.5693,-2.5693,-2.5693,-2.5693,-2.5713,-2.6006,-2.6504,-2.7139,-2.7581,-2.7939,-2.8291,-2.8291,-2.8291,-2.8291,-2.8291,-2.8291,-2.8291,-2.8291,-2.8291,-2.8291,-2.8291,-2.8291,-2.8291,-2.8291,-2.8291,-2.8291,-2.8291,-2.8291,-2.8291,-2.8291,-2.8291,-2.8291,-2.8291,-2.8291,-2.8291,-2.8291,-2.8291,-2.8291,-2.8291,-2.8496,-2.8545,-2.831,-2.8701,-2.8887,-2.8652,-2.8848,-2.8965,-2.8916,-2.8955,-2.9072,-2.9258,-2.9492,-2.9707,-2.9902,-3.0342,-3.0576,-3.0576,-3.0781,-3.0889,-3.0889,-3.0889,-3.0889,-2.1409,-2.158,-2.168,-2.1445,-2.1885,-2.2393,-2.249,-2.2187,-2.1943,0.0,0.0,0.0,0.0,-2.2881,0.0,-2.459,-2.501,-2.5225,-2.5225,-2.5518,-2.5693,-2.5693,-2.5693,-2.5693,-2.5693,-2.5693,-2.5693,-2.5693,-2.5693,-2.5693,-2.5693,-2.5693,-2.5693,-2.5693,-2.5693,-2.5693,-2.5693,-2.5693,-2.5693,-2.5693,-2.5693,-2.5693,-2.5693,-2.5693,-2.5693,-2.5693,-2.5693,-2.5693,-2.5693,-2.5693,-2.5693,-2.5693,-2.5693,-2.5752,-2.5947,-2.6377,-2.7012,-2.7728,-2.7836,-2.8027,-2.8291,-2.8291,-2.8291,-2.8291,-2.8291,-2.8291,-2.8291,-2.8291,-2.8291,-2.8291,-2.8291,-2.8291,-2.8291,-2.8291,-2.8291,-2.8291,-2.8291,-2.8291,-2.8291,-2.8291,-2.8291,-2.8291,-2.8291,-2.8291,-2.8291,-2.8291,-2.8379,-2.8437,-2.8437,-2.8809,-2.8945,-2.8633,-2.918,-2.9434,-2.9101,-2.9463,-2.958,-2.9238,-2.9434,-2.9619,-2.9717,-3.0029,-3.0244,-3.0361,-3.0713,-3.0889,-3.0889,-3.0889,-3.0889,-3.0889,-3.0889,-3.0889,-2.2088,-2.1696,-2.1327,-2.1748,-2.1885,-2.2031,-2.2422,-2.2187,-2.2109,-2.2953,0.0,0.0,0.0,-2.376,-2.4609,-2.545,-2.5615,-2.5635,-2.5635,0.0,-2.5693,-2.5693,-2.5693,-2.5693,-2.5693,-2.5693,-2.5693,-2.5693,-2.5693,-2.5693,-2.5693,-2.5693,-2.5693,-2.5693,-2.5693,-2.5693,-2.5693,-2.5693,-2.5693,-2.5693,-2.5693,-2.5693,-2.5693,-2.5693,-2.5693,-2.5693,-2.5693,-2.5693,-2.5693,-2.5693,-2.5693,-2.5693,-2.5693,-2.5986,-2.6396,-2.6816,-2.7266,-2.7777,-2.8115,-2.8271,-2.8291,-2.8291,-2.8291,-2.8291,-2.8291,-2.8291,-2.8291,-2.8291,-2.8291,-2.8291,-2.8291,-2.8291,-2.8291,-2.8291,-2.8291,-2.8291,-2.8291,-2.8291,-2.8291,-2.8291,-2.8291,-2.8291,-2.8291,-2.8291,-2.8291,-2.8291,-2.8623,-2.8877,-2.8877,-2.9248,-2.9567,-2.9482,-2.9531,-2.9616,-2.9531,-2.9912,-3.0137,-3.0107,-2.9766,-2.9746,-3.0137,-3.0176,-3.04,-3.083,-3.0869,-3.0889,-3.0889,-3.0889,-3.0889,-3.0889,-3.0889,-3.0889,-2.192,-2.1599,-2.1298,-2.1777,-2.208,-2.2383,0.0,-2.2988,-2.3232,-2.3828,-2.3945,0.0,0.0,0.0,-2.5019,-2.5586,-2.5693,-2.5693,-2.5693,-2.5693,-2.5693,-2.5693,-2.5693,-2.5693,-2.5693,-2.5693,-2.5693,-2.5693,-2.5693,-2.5693,-2.5693,-2.5693,-2.5693,-2.5693,-2.5693,-2.5693,-2.5693,-2.5693,-2.5693,-2.5693,-2.5693,-2.5693,-2.5693,-2.5693,-2.5693,-2.5693,-2.5693,-2.5693,-2.5693,-2.5693,-2.5693,-2.5693,-2.5693,-2.6006,-2.6435,-2.6865,-2.7295,-2.7777,-2.8144,-2.8291,-2.8291,-2.8291,-2.8291,-2.8291,-2.8291,-2.8291,-2.8291,-2.8291,-2.8291,-2.8291,-2.8291,-2.8291,-2.8291,-2.8291,-2.8291,-2.8291,-2.8291,-2.8291,-2.8291,-2.8291,-2.8291,-2.8379,-2.8643,-2.8682,-2.8769,-2.9043,-2.9228,-2.9326,-2.9326,-2.9697,-2.9863,-2.9655,-2.9805,-3.0078,-3.0371,-3.0537,-3.0635,-3.0635,-3.0478,-3.0469,-3.0625,-3.0635,-3.0713,-3.0889,-3.0889,-3.0889,-3.0889,-3.0889,-3.0889,-3.0889,-3.0889,-3.0889,-2.1859,-2.1551,-2.1298,-2.1777,-2.21,0.0,-2.3184,-2.3574,-2.3984,-2.4687,-2.4717,-2.4717,-2.5057,0.0,0.0,0.0,-2.5693,-2.5693,-2.5693,-2.5693,-2.5693,-2.5693,-2.5693,-2.5693,-2.5693,-2.5693,-2.5693,-2.5693,-2.5693,-2.5693,-2.5693,-2.5693,-2.5693,-2.5693,-2.5693,-2.5693,-2.5693,-2.5693,-2.5693,-2.5693,-2.5693,-2.5693,-2.5693,-2.5693,-2.5693,-2.5693,-2.5693,-2.5693,-2.5693,-2.5693,-2.5693,-2.5693,-2.5693,-2.6006,-2.6435,-2.6865,-2.7295,-2.7777,-2.8144,-2.8291,-2.8291,-2.8291,-2.8291,-2.8291,-2.8291,-2.8291,-2.8291,-2.8291,-2.8291,-2.8291,-2.8291,-2.8291,-2.8291,-2.8291,-2.8291,-2.8291,-2.8291,-2.8291,-2.8291,-2.8291,-2.8291,-2.8428,-2.8848,-2.8916,-2.9062,-2.9502,-2.9687,-2.9766,-2.9766,-3.0146,-3.0312,-3.0019,-3.0244,-3.0547,-3.0859,-3.0889,-3.0889,-3.0889,-3.0889,-3.0889,-3.0889,-3.0889,-3.0889,-3.0889,-3.0889,-3.0889,-3.0889,-3.0889,-3.0889,-3.0889,-3.0889,-3.0889,-2.205,-2.1491,-2.1298,-2.1777,0.0,0.0,-2.3506,-2.3799,-2.417,-2.5421,-2.5381,-2.5125,-2.5125,-2.5125,0.0,-2.5615,-2.5693,-2.5693,-2.5693,-2.5693,-2.5693,-2.5693,-2.5693,-2.5693,-2.5693,-2.5693,-2.5693,-2.5693,-2.5693,-2.5693,-2.5693,-2.5693,-2.5693,-2.5693,-2.5693,-2.5693,-2.5693,-2.5693,-2.5693,-2.5693,-2.5693,-2.5693,-2.5693,-2.5693,-2.5693,-2.5693,-2.5693,-2.5693,-2.5693,-2.5693,-2.5693,-2.5693,-2.5693,-2.6006,-2.6435,-2.6855,-2.7285,-2.7767,-2.8135,-2.8291,-2.8291,-2.8291,-2.8291,-2.8291,-2.8291,-2.8291,-2.8291,-2.8291,-2.8291,-2.8291,-2.8291,-2.8291,-2.8291,-2.8291,-2.8291,-2.8291,-2.8291,-2.8291,-2.8291,-2.8291,-2.8301,-2.8428,-2.8848,-2.8926,-2.9082,-2.9512,-2.9932,-3.0205,-3.0205,-3.0605,-3.0889,-3.0889,-3.0889,-3.0889,-3.0889,-3.0889,-3.0889,-3.0889,-3.0889,-3.0889,-3.0889,-3.0889,-3.0889,-3.0889,-3.0889,-3.0889,-3.0889,-3.0889,-3.0889,-3.0889,-3.0889,-3.0889,-2.1506,-2.1163,-2.1066,-2.174,0.0,0.0,0.0,-2.4228,0.0,0.0,-2.5635,-2.5537,-2.5537,-2.5537,0.0,-2.5664,-2.5693,-2.5693,-2.5693,-2.5693,-2.5693,-2.5693,-2.5693,-2.5693,-2.5693,-2.5693,-2.5693,-2.5693,-2.5693,-2.5693,-2.5693,-2.5693,-2.5693,-2.5693,-2.5693,-2.5693,-2.5693,-2.5693,-2.5693,-2.5693,-2.5693,-2.5693,-2.5693,-2.5693,-2.5693,-2.5693,-2.5693,-2.5693,-2.5693,-2.5693,-2.5693,-2.5693,-2.5693,-2.5771,-2.5986,-2.6416,-2.6846,-2.7266,-2.7705,-2.8047,-2.8291,-2.8291,-2.8291,-2.8291,-2.8291,-2.8291,-2.8291,-2.8291,-2.8291,-2.8291,-2.8291,-2.8291,-2.8291,-2.8291,-2.8291,-2.8291,-2.8291,-2.8291,-2.8291,-2.8291,-2.8535,-2.8867,-2.9307,-2.9619,-2.9971,-3.043,-3.0605,-3.0684,-3.0684,-3.0801,-3.0889,-3.0889,-3.0889,-3.0889,-3.0889,-3.0889,-3.0889,-3.0889,-3.0889,-3.0889,-3.0889,-3.0889,-3.0889,-3.0889,-3.0889,-3.0889,-3.0889,-3.0889,-3.0889,-3.0889,-3.0889,-3.1055,-2.1717,-2.1491,0.0,-2.2425,-2.3086,-2.373,-2.4502,0.0,0.0,0.0,-2.5693,-2.5693,-2.5693,-2.5693,0.0,-2.5693,-2.5693,-2.5693,-2.5693,-2.5693,-2.5693,-2.5693,-2.5693,-2.5693,-2.5693,-2.5693,-2.5693,-2.5693,-2.5693,-2.5693,-2.5693,-2.5693,-2.5693,-2.5693,-2.5693,-2.5693,-2.5693,-2.5693,-2.5693,-2.5693,-2.5693,-2.5693,-2.5693,-2.5693,-2.5693,-2.5693,-2.5693,-2.5693,-2.5693,-2.5693,-2.5693,-2.5693,-2.5693,-2.5693,-2.5742,-2.623,-2.665,-2.708,-2.7562,-2.7939,-2.8291,-2.8291,-2.8291,-2.8291,-2.8291,-2.8291,-2.8291,-2.8291,-2.8291,-2.8291,-2.8291,-2.8291,-2.8291,-2.8291,-2.8291,-2.8291,-2.8291,-2.8291,-2.8291,-2.8291,-2.8633,-2.9053,-2.9492,-2.9912,-3.0351,-3.082,-3.0889,-3.0889,-3.0889,-3.0889,-3.0889,-3.0889,-3.0889,-3.0889,-3.0889,-3.0889,-3.0889,-3.0889,-3.0889,-3.0889,-3.0889,-3.0889,-3.0889,-3.0889,-3.0889,-3.0889,-3.0889,-3.0889,-3.0889,-3.0898,-3.1064,-3.1279,-2.2291,-2.2186,-2.222,-2.3428,-2.3525,0.0,-2.4853,-2.5449,-2.5693,-2.5693,0.0,-2.5693,-2.5693,-2.5693,-2.5693,-2.5693,-2.5693,-2.5693,-2.5693,-2.5693,-2.5693,-2.5693,-2.5693,-2.5693,-2.5693,-2.5693,-2.5693,-2.5693,-2.5693,-2.5693,-2.5693,-2.5693,-2.5693,-2.5693,-2.5693,-2.5693,-2.5693,-2.5693,-2.5693,-2.5693,-2.5693,-2.5693,-2.5693,-2.5693,-2.5693,-2.5693,-2.5693,-2.5693,-2.5693,-2.5693,-2.5693,-2.5693,-2.5693,-2.5693,-2.5732,-2.6182,-2.6592,-2.7021,-2.7451,-2.7881,-2.8242,-2.8281,-2.8291,-2.8291,-2.8291,-2.8291,-2.8291,-2.8291,-2.8291,-2.8291,-2.8291,-2.8291,-2.8291,-2.8291,-2.8291,-2.8291,-2.8291,-2.8291,-2.8291,-2.8291,-2.8662,-2.9101,-2.9558,-2.9951,-3.04,-3.083,-3.0889,-3.0889,-3.0889,-3.0889,-3.0889,-3.0889,-3.0889,-3.0889,-3.0889,-3.0889,-3.0889,-3.0889,-3.0889,-3.0889,-3.0889,-3.0889,-3.0889,-3.0889,-3.0889,-3.0889,-3.0889,-3.0889,-3.0908,-3.0957,-3.1338,-3.1562,-2.1534,-2.192,0.0,-2.309,-2.3975,-2.4814,-2.5449,-2.5625,-2.5693,-2.5693,-2.5693,-2.5693,-2.5693,-2.5693,-2.5693,-2.5693,-2.5693,-2.5693,-2.5693,-2.5693,-2.5693,-2.5693,-2.5693,-2.5693,-2.5693,-2.5693,-2.5693,-2.5693,-2.5693,-2.5693,-2.5693,-2.5693,-2.5693,-2.5693,-2.5693,-2.5693,-2.5693,-2.5693,-2.5693,-2.5693,-2.5693,-2.5693,-2.5693,-2.5693,-2.5693,-2.5693,-2.5693,-2.5693,-2.5693,-2.5693,-2.5693,-2.5693,-2.5693,-2.5693,-2.5703,-2.5791,-2.6152,-2.6582,-2.7012,-2.7441,-2.7851,-2.8184,-2.8291,-2.8291,-2.8291,-2.8291,-2.8291,-2.8291,-2.8291,-2.8291,-2.8291,-2.8291,-2.8291,-2.8291,-2.8291,-2.8291,-2.8291,-2.8291,-2.8291,-2.8291,-2.8906,-2.9453,-2.9551,-3.0225,-3.0771,-3.0869,-3.0889,-3.0889,-3.0889,-3.0889,-3.0889,-3.0889,-3.0889,-3.0889,-3.0889,-3.0889,-3.0889,-3.0889,-3.0889,-3.0889,-3.0889,-3.0889,-3.0889,-3.0889,-3.0889,-3.0889,-3.0889,-3.0889,-3.1064,-3.1387,-3.1475,-3.1875,-2.1676,0.0,0.0,-2.3482,0.0,-2.5449,-2.5635,-2.5693,-2.5693,-2.5693,-2.5693,-2.5693,-2.5693,-2.5693,-2.5693,-2.5693,-2.5693,-2.5693,-2.5693,-2.5693,-2.5693,-2.5693,-2.5693,-2.5693,-2.5693,-2.5693,-2.5693,-2.5693,-2.5693,-2.5693,-2.5693,-2.5693,-2.5693,-2.5693,-2.5693,-2.5693,-2.5693,-2.5693,-2.5693,-2.5693,-2.5693,-2.5693,-2.5693,-2.5693,-2.5693,-2.5693,-2.5693,-2.5693,-2.5693,-2.5693,-2.5693,-2.5693,-2.5693,-2.5693,-2.5693,-2.5693,-2.6016,-2.6416,-2.6641,-2.7139,-2.7748,-2.792,-2.8125,-2.8291,-2.8291,-2.8291,-2.8291,-2.8291,-2.8291,-2.8291,-2.8291,-2.8291,-2.8291,-2.8291,-2.8291,-2.8291,-2.8291,-2.8447,-2.8594,-2.8594,-2.9287,-2.9873,-2.9873,-3.0439,-3.0889,-3.0889,-3.0889,-3.0889,-3.0889,-3.0889,-3.0889,-3.0889,-3.0889,-3.0889,-3.0889,-3.0889,-3.0889,-3.0889,-3.0889,-3.0889,-3.0889,-3.0889,-3.0889,-3.0889,-3.0889,-3.0889,-3.0889,-3.0889,-3.1103,-3.1523,-3.1728,-3.2178,-2.1857,0.0,-2.2715,-2.4114,-2.5078,0.0,-2.5693,-2.5693,-2.5693,-2.5693,-2.5693,-2.5693,-2.5693,-2.5693,-2.5693,-2.5693,-2.5693,-2.5693,-2.5693,-2.5693,-2.5693,-2.5693,-2.5693,-2.5693,-2.5693,-2.5693,-2.5693,-2.5693,-2.5693,-2.5693,-2.5693,-2.5693,-2.5693,-2.5693,-2.5693,-2.5693,-2.5693,-2.5693,-2.5693,-2.5693,-2.5693,-2.5693,-2.5693,-2.5693,-2.5693,-2.5693,-2.5693,-2.5693,-2.5693,-2.5693,-2.5693,-2.5693,-2.5693,-2.5693,-2.5693,-2.5693,-2.5967,-2.6289,-2.6367,-2.6855,-2.7523,-2.7669,-2.7953,-2.8193,-2.8271,-2.8291,-2.8291,-2.8291,-2.8291,-2.8291,-2.8291,-2.8291,-2.8291,-2.8291,-2.8291,-2.8291,-2.8291,-2.8623,-2.8916,-2.8916,-2.9609,-3.0225,-3.0303,-3.0635,-3.0889,-3.0889,-3.0889,-3.0889,-3.0889,-3.0889,-3.0889,-3.0889,-3.0889,-3.0889,-3.0889,-3.0889,-3.0889,-3.0889,-3.0889,-3.0889,-3.0889,-3.0889,-3.0889,-3.0889,-3.0889,-3.0889,-3.0889,-3.0967,-3.1221,-3.1641,-3.208,-3.25,-2.1033,0.0,-2.3499,0.0,-2.523,-2.5693,0.0,0.0,-2.5693,0.0,-2.5693,-2.5693,-2.5693,-2.5693,-2.5693,-2.5693,-2.5693,-2.5693,-2.5693,-2.5693,-2.5693,-2.5693,-2.5693,-2.5693,-2.5693,-2.5693,-2.5693,-2.5693,-2.5693,-2.5693,-2.5693,-2.5693,-2.5693,-2.5693,-2.5693,-2.5693,-2.5693,-2.5693,-2.5693,-2.5693,-2.5693,-2.5693,-2.5693,-2.5693,-2.5693,-2.5693,-2.5693,-2.5693,-2.5693,-2.5693,-2.5693,-2.5693,-2.5693,-2.5693,-2.5693,-2.5693,-2.5723,-2.583,-2.626,-2.6465,-2.668,-2.7474,-2.7757,-2.7875,-2.8184,-2.8291,-2.8291,-2.8291,-2.8291,-2.8291,-2.8291,-2.8291,-2.8291,-2.8291,-2.8291,-2.8291,-2.8291,-2.8623,-2.8916,-2.8916,-2.9609,-3.0322,-3.0732,-3.085,-3.0889,-3.0889,-3.0889,-3.0889,-3.0889,-3.0889,-3.0889,-3.0889,-3.0889,-3.0889,-3.0889,-3.0889,-3.0889,-3.0889,-3.0889,-3.0889,-3.0889,-3.0889,-3.0889,-3.0889,-3.0889,-3.0889,-3.0889,-3.126,-3.166,-3.209,-3.2519,-3.2939,-2.1298,-2.2564,-2.3823,0.0,-2.5174,-2.5564,-2.5674,-2.5693,-2.5693,-2.5693,-2.5693,-2.5693,-2.5693,-2.5693,-2.5693,-2.5693,-2.5693,-2.5693,-2.5693,-2.5693,-2.5693,-2.5693,-2.5693,-2.5693,-2.5693,-2.5693,-2.5693,-2.5693,-2.5693,-2.5693,-2.5693,-2.5693,-2.5693,-2.5693,-2.5693,-2.5693,-2.5693,-2.5693,-2.5693,-2.5693,-2.5693,-2.5693,-2.5693,-2.5693,-2.5693,-2.5693,-2.5693,-2.5693,-2.5693,-2.5693,-2.5693,-2.5693,-2.5693,-2.5693,-2.5693,-2.5693,-2.5693,-2.5713,-2.5957,-2.6182,-2.6494,-2.71,-2.7471,-2.7796,-2.8164,-2.8291,-2.8291,-2.8291,-2.8291,-2.8291,-2.8291,-2.8291,-2.8291,-2.8291,-2.8476,-2.8643,-2.8643,-2.8984,-2.9434,-2.9932,-3.0332,-3.0644,-3.0859,-3.0889,-3.0889,-3.0889,-3.0889,-3.0889,-3.0889,-3.0889,-3.0889,-3.0889,-3.0889,-3.0889,-3.0889,-3.0889,-3.0889,-3.0889,-3.0889,-3.0889,-3.0889,-3.0889,-3.0889,-3.0889,-3.0889,-3.1006,-3.124,-3.1426,-3.1865,-3.2519,-3.2715,-3.3027,0.0,0.0,-2.3569,-2.4451,-2.5053,-2.5431,0.0,0.0,-2.5693,0.0,-2.5693,-2.5693,-2.5693,-2.5693,-2.5693,-2.5693,-2.5693,-2.5693,-2.5693,-2.5693,-2.5693,-2.5693,-2.5693,-2.5693,-2.5693,-2.5693,-2.5693,-2.5693,-2.5693,-2.5693,-2.5693,-2.5693,-2.5693,-2.5693,-2.5693,-2.5693,-2.5693,-2.5693,-2.5693,-2.5693,-2.5693,-2.5693,-2.5693,-2.5693,-2.5693,-2.5693,-2.5693,-2.5693,-2.5693,-2.5693,-2.5693,-2.5693,-2.5693,-2.5693,-2.5693,-2.5693,-2.5693,-2.5693,-2.5693,-2.5947,-2.6309,-2.6846,-2.7236,-2.7598,-2.8135,-2.8291,-2.8291,-2.8291,-2.8291,-2.8291,-2.8291,-2.8291,-2.8291,-2.8291,-2.8613,-2.8975,-2.9199,-2.9502,-2.9961,-3.0742,-3.0889,-3.0889,-3.0889,-3.0889,-3.0889,-3.0889,-3.0889,-3.0889,-3.0889,-3.0889,-3.0889,-3.0889,-3.0889,-3.0889,-3.0889,-3.0889,-3.0889,-3.0889,-3.0889,-3.0889,-3.0889,-3.0996,-3.1055,-3.1055,-3.1162,-3.1318,-3.1514,-3.1738,-3.2168,-3.2793,-3.29,-3.3115,0.0,-2.2007,0.0,-2.3898,-2.4832,-2.5389,0.0,0.0,-2.5693,-2.5693,-2.5693,-2.5693,-2.5693,-2.5693,-2.5693,-2.5693,-2.5693,-2.5693,-2.5693,-2.5693,-2.5693,-2.5693,-2.5693,-2.5693,-2.5693,-2.5693,-2.5693,-2.5693,-2.5693,-2.5693,-2.5693,-2.5693,-2.5693,-2.5693,-2.5693,-2.5693,-2.5693,-2.5693,-2.5693,-2.5693,-2.5693,-2.5693,-2.5693,-2.5693,-2.5693,-2.5693,-2.5693,-2.5693,-2.5693,-2.5693,-2.5693,-2.5693,-2.5693,-2.5693,-2.5693,-2.5693,-2.5693,-2.5693,-2.5693,-2.5703,-2.5859,-2.6738,-2.7031,-2.7207,-2.8037,-2.8291,-2.8291,-2.8291,-2.8291,-2.8291,-2.8291,-2.8291,-2.8291,-2.8291,-2.8613,-2.9141,-2.9951,-3.0146,-3.0303,-3.0801,-3.0889,-3.0889,-3.0889,-3.0889,-3.0889,-3.0889,-3.0889,-3.0889,-3.0889,-3.0889,-3.0889,-3.0889,-3.0889,-3.0889,-3.0889,-3.0889,-3.0889,-3.0889,-3.0889,-3.0889,-3.0889,-3.1269,-3.1484,-3.1484,-3.1894,-3.1904,-3.1514,-3.2334,-3.2754,-3.2803,-3.3203,-3.3398,0.0,0.0,0.0,-2.3502,-2.4378,-2.5072,-2.5354,-2.5688,-2.5917,-2.5732,-2.5693,-2.5693,-2.5693,-2.5693,-2.5693,-2.5693,-2.5693,-2.5693,-2.5693,-2.5693,-2.5693,-2.5693,-2.5693,-2.5693,-2.5693,-2.5693,-2.5693,-2.5693,-2.5693,-2.5693,-2.5693,-2.5693,-2.5693,-2.5693,-2.5693,-2.5693,-2.5693,-2.5693,-2.5693,-2.5693,-2.5693,-2.5693,-2.5693,-2.5693,-2.5693,-2.5693,-2.5693,-2.5693,-2.5693,-2.5693,-2.5693,-2.5693,-2.5693,-2.5693,-2.5693,-2.5693,-2.5693,-2.5693,-2.5693,-2.5918,-2.625,-2.6826,-2.7207,-2.7539,-2.8125,-2.8291,-2.8291,-2.8291,-2.8291,-2.8291,-2.8291,-2.8496,-2.8828,-2.9385,-2.9629,-2.9902,-3.0508,-3.0644,-3.0693,-3.0859,-3.0889,-3.0889,-3.0889,-3.0889,-3.0889,-3.0889,-3.0889,-3.0889,-3.0889,-3.0889,-3.0889,-3.0889,-3.0889,-3.0889,-3.0889,-3.0889,-3.0889,-3.0889,-3.1143,-3.1299,-3.1299,-3.1709,-3.1934,-3.1934,-3.2353,-3.249,-3.2334,-3.2646,-3.293,-3.3203,-3.335,-3.3418,-2.0203,0.0,0.0,0.0,-2.3789,-2.4317,-2.5145,-2.5493,-2.5599,-2.5527,-2.5635,-2.5693,-2.5693,-2.5693,-2.5693,-2.5693,-2.5693,-2.5693,-2.5693,-2.5693,-2.5693,-2.5693,-2.5693,-2.5693,-2.5693,-2.5693,-2.5693,-2.5693,-2.5693,-2.5693,-2.5693,-2.5693,-2.5693,-2.5693,-2.5693,-2.5693,-2.5693,-2.5693,-2.5693,-2.5693,-2.5693,-2.5693,-2.5693,-2.5693,-2.5693,-2.5693,-2.5693,-2.5693,-2.5693,-2.5693,-2.5693,-2.5693,-2.5693,-2.5693,-2.5693,-2.5693,-2.5693,-2.5713,-2.5908,-2.6143,-2.6484,-2.7051,-2.7432,-2.7796,-2.8164,-2.8291,-2.8291,-2.8291,-2.8291,-2.833,-2.8467,-2.8818,-2.9316,-3.0029,-3.0195,-3.0322,-3.0791,-3.0889,-3.0889,-3.0889,-3.0889,-3.0889,-3.0889,-3.0889,-3.0889,-3.0889,-3.0889,-3.0889,-3.0889,-3.0889,-3.0889,-3.0889,-3.0889,-3.0889,-3.0889,-3.0889,-3.0957,-3.1094,-3.1367,-3.1582,-3.1728,-3.2148,-3.2383,-3.2383,-3.2793,-3.3008,-3.3008,-3.3008,-3.3144,-3.3418,-3.3418,-3.3418,0.0,0.0,0.0,0.0,0.0,0.0,-2.4795,0.0,-2.4759,-2.5045,-2.5391,-2.5654,-2.5684,-2.5693,-2.5693,-2.5693,-2.5693,-2.5693,-2.5693,-2.5693,-2.5693,-2.5693,-2.5693,-2.5693,-2.5693,-2.5693,-2.5693,-2.5693,-2.5693,-2.5693,-2.5693,-2.5693,-2.5693,-2.5693,-2.5693,-2.5693,-2.5693,-2.5693,-2.5693,-2.5693,-2.5693,-2.5693,-2.5693,-2.5693,-2.5693,-2.5693,-2.5693,-2.5693,-2.5693,-2.5693,-2.5693,-2.5693,-2.5693,-2.5693,-2.5693,-2.5693,-2.5693,-2.5752,-2.624,-2.6396,-2.6543,-2.7444,-2.7728,-2.7816,-2.8164,-2.8291,-2.8291,-2.8291,-2.8301,-2.8408,-2.8848,-2.9277,-2.9697,-3.0117,-3.0215,-3.0342,-3.0791,-3.0889,-3.0889,-3.0889,-3.0889,-3.0889,-3.0889,-3.0889,-3.0889,-3.0889,-3.0889,-3.0889,-3.0889,-3.0889,-3.0889,-3.0889,-3.0889,-3.0898,-3.0908,-3.0908,-3.1094,-3.1514,-3.1543,-3.1748,-3.2229,-3.2588,-3.2812,-3.2812,-3.3213,-3.3418,-3.3418,-3.3418,-3.3418,-3.3418,-3.3418,-3.3418,-1.9793,0.0,0.0,0.0,0.0,0.0,0.0,0.0,-2.4032,-2.4697,-2.492,-2.5112,-2.5615,-2.5693,-2.5693,-2.5693,-2.5693,-2.5693,-2.5693,-2.5693,-2.5693,-2.5693,-2.5693,-2.5693,-2.5693,-2.5693,-2.5693,0.0,-2.5693,-2.5693,-2.5693,-2.5693,-2.5693,-2.5693,-2.5693,-2.5693,-2.5693,-2.5693,-2.5693,-2.5693,-2.5693,-2.5693,-2.5693,-2.5693,-2.5693,-2.5693,-2.5693,-2.5693,-2.5693,-2.5693,-2.5693,-2.5693,-2.5693,-2.5693,-2.5693,-2.5693,-2.5693,-2.5752,-2.624,-2.6592,-2.6934,-2.748,-2.7924,-2.8135,-2.8262,-2.8291,-2.8291,-2.8291,-2.8506,-2.8916,-2.9648,-2.9932,-3.0137,-3.0596,-3.0703,-3.0732,-3.0859,-3.0889,-3.0889,-3.0889,-3.0889,-3.0889,-3.0889,-3.0889,-3.0889,-3.0889,-3.0889,-3.0889,-3.0889,-3.0889,-3.0889,-3.0889,-3.0889,-3.1016,-3.1318,-3.1348,-3.1533,-3.1963,-3.2275,-3.249,-3.2617,-3.3027,-3.3252,-3.3252,-3.3359,-3.3418,-3.3418,-3.3418,-3.3418,-3.3418,-3.3418,-3.3418,-1.9896,-2.0224,0.0,0.0,0.0,0.0,-2.3033,-2.3277,-2.3549,0.0,-2.5023,-2.5325,-2.5789,-2.5868,-2.582,-2.5742,-2.5693,-2.5693,-2.5693,-2.5693,-2.5693,-2.5693,-2.5693,-2.5693,-2.5693,-2.5693,-2.5693,-2.5693,-2.5693,-2.5693,-2.5693,-2.5693,-2.5693,-2.5693,-2.5693,-2.5693,-2.5693,-2.5693,-2.5693,-2.5693,-2.5693,-2.5693,-2.5693,-2.5693,-2.5693,-2.5693,-2.5693,-2.5693,-2.5693,-2.5693,-2.5693,-2.5693,-2.5693,-2.5693,-2.5693,-2.5693,-2.5801,-2.6074,-2.6504,-2.6924,-2.7353,-2.7793,-2.8096,-2.8291,-2.8291,-2.8291,-2.833,-2.8506,-2.8984,-2.957,-3.0068,-3.0342,-3.0557,-3.083,-3.0889,-3.0889,-3.0889,-3.0889,-3.0889,-3.0889,-3.0889,-3.0889,-3.0889,-3.0889,-3.0889,-3.0889,-3.0889,-3.0889,-3.0889,-3.0889,-3.0889,-3.0889,-3.1055,-3.125,-3.1494,-3.168,-3.1973,-3.2402,-3.2656,-3.2871,-3.3047,-3.3291,-3.3418,-3.3418,-3.3418,-3.3418,-3.3418,-3.3418,-3.3418,-3.3418,-3.3418,-3.3418,-2.0155,-2.0503,0.0,0.0,-2.1455,0.0,-2.3371,-2.3237,-2.3134,0.0,-2.5275,-2.5635,-2.5889,-2.597,-2.5894,-2.5614,-2.5596,-2.5674,-2.5684,-2.5693,-2.5693,-2.5693,-2.5693,-2.5693,-2.5693,-2.5693,-2.5693,-2.5693,-2.5693,-2.5693,-2.5693,-2.5693,-2.5693,-2.5693,-2.5693,-2.5693,-2.5693,-2.5693,-2.5693,-2.5693,-2.5693,-2.5693,-2.5693,-2.5693,-2.5693,-2.5693,-2.5693,-2.5693,-2.5693,-2.5693,-2.5693,-2.5693,-2.5693,-2.5693,-2.5693,-2.5742,-2.6055,-2.6455,-2.6924,-2.7344,-2.7787,-2.8154,-2.8291,-2.8291,-2.8291,-2.8291,-2.8389,-2.8857,-2.958,-3.0205,-3.0264,-3.0576,-3.0889,-3.0889,-3.0889,-3.0889,-3.0889,-3.0889,-3.0889,-3.0889,-3.0889,-3.0889,-3.0889,-3.0889,-3.0889,-3.0889,-3.0889,-3.0889,-3.0889,-3.0889,-3.0889,-3.0889,-3.1269,-3.1533,-3.1592,-3.1992,-3.2422,-3.2842,-3.2861,-3.3037,-3.3408,-3.3418,-3.3418,-3.3418,-3.3418,-3.3418,-3.3418,-3.3418,-3.3418,-3.3418,-3.3418,-3.3418,-2.0803,-2.0979,-2.1155,-2.1342,-2.1455,0.0,-2.1669,-2.1855,-2.223,0.0,-2.3642,-2.4115,-2.4636,-2.5031,-2.5161,-2.471,-2.5109,-2.5513,-2.5684,-2.5693,-2.5693,-2.5693,-2.5693,-2.5693,-2.5693,-2.5693,-2.5693,-2.5693,-2.5693,-2.5693,-2.5693,-2.5693,-2.5693,-2.5693,-2.5693,-2.5693,-2.5693,-2.5693,-2.5693,-2.5693,-2.5693,-2.5693,-2.5693,-2.5693,-2.5693,-2.5693,-2.5693,-2.5693,-2.5693,-2.5693,-2.5693,-2.5693,-2.5693,-2.5693,-2.5732,-2.6133,-2.6318,-2.6494,-2.7266,-2.7598,-2.7787,-2.8154,-2.8291,-2.8291,-2.8291,-2.8291,-2.8457,-2.9228,-2.9805,-3.0283,-3.0664,-3.082,-3.0889,-3.0889,-3.0889,-3.0889,-3.0889,-3.0889,-3.0889,-3.0889,-3.0889,-3.0889,-3.0889,-3.0889,-3.0889,-3.0889,-3.0889,-3.0889,-3.0889,-3.0889,-3.0889,-3.0889,-3.1269,-3.166,-3.2012,-3.2432,-3.2851,-3.3271,-3.3301,-3.334,-3.3418,-3.3418,-3.3418,-3.3418,-3.3418,-3.3418,-3.3418,-3.3418,-3.3418,-3.3418,-3.3418,-3.3418,-2.1176,-2.128,-2.1518,-2.1745,0.0,0.0,0.0,-2.1973,-2.2162,-2.3402,-2.369,-2.3883,-2.451,-2.4638,-2.4593,-2.444,-2.4866,-2.5292,-2.5379,-2.5555,-2.5693,-2.5693,-2.5693,-2.5693,-2.5693,-2.5693,-2.5693,-2.5693,-2.5693,-2.5693,-2.5693,-2.5693,-2.5693,-2.5693,-2.5693,-2.5693,-2.5693,-2.5693,-2.5693,-2.5693,-2.5693,-2.5693,-2.5693,-2.5693,-2.5693,-2.5693,-2.5693,-2.5693,-2.5693,-2.5693,-2.5693,-2.5693,-2.5693,-2.5693,-2.5742,-2.623,-2.6523,-2.6797,-2.7441,-2.7855,-2.8018,-2.8223,-2.8291,-2.8291,-2.8291,-2.8584,-2.9062,-2.9707,-3.0195,-3.0596,-3.083,-3.0889,-3.0889,-3.0889,-3.0889,-3.0889,-3.0889,-3.0889,-3.0889,-3.0889,-3.0889,-3.0889,-3.0889,-3.0889,-3.0889,-3.0889,-3.0889,-3.0889,-3.0889,-3.0889,-3.0889,-3.0889,-3.1269,-3.1699,-3.2129,-3.2559,-3.2969,-3.3389,-3.3418,-3.3418,-3.3418,-3.3418,-3.3418,-3.3418,-3.3418,-3.3418,-3.3418,-3.3418,-3.3418,-3.3418,-3.3418,-3.3418,-2.1714,-2.1849,-2.2252,0.0,0.0,-2.1869,0.0,0.0,0.0,0.0,0.0,0.0,0.0,0.0,0.0,-2.4028,0.0,0.0,0.0,-2.5179,0.0,-2.5634,-2.5605,-2.5596,-2.5674,-2.5538,-2.5508,-2.5674,-2.5528,-2.5508,-2.5674,-2.5693,-2.5693,-2.5693,-2.5693,-2.5693,-2.5693,-2.5693,-2.5693,-2.5693,-2.5693,-2.5693,-2.5693,-2.5693,-2.5693,-2.5693,-2.5693,-2.5693,-2.5693,-2.5693,-2.5693,-2.5693,-2.5693,-2.5742,-2.5869,-2.6348,-2.6777,-2.7207,-2.7637,-2.8008,-2.8291,-2.8291,-2.8291,-2.831,-2.8389,-2.8955,-2.9658,-3.0078,-3.0537,-3.0889,-3.0889,-3.0889,-3.0889,-3.0889,-3.0889,-3.0889,-3.0889,-3.0889,-3.0889,-3.0889,-3.0889,-3.0889,-3.0889,-3.0889,-3.0889,-3.0889,-3.0889,-3.0889,-3.0889,-3.0889,-3.0889,-3.0889,-3.1269,-3.1699,-3.2129,-3.2559,-3.2969,-3.3389,-3.3418,-3.3418,-3.3418,-3.3418,-3.3418,-3.3418,-3.3418,-3.3418,-3.3418,-3.3418,-3.3418,-3.3418,-3.3418,-3.3418,0.0,0.0,0.0,0.0,-2.3039,0.0,0.0,0.0,-2.2356,-2.2159,0.0,0.0,0.0,0.0,0.0,0.0,0.0,0.0,-2.3724,-2.4162,-2.478,-2.5369,-2.5279,-2.5303,-2.5654,-2.4982,-2.4893,-2.5635,-2.4962,-2.4865,-2.5645,-2.5693,-2.5693,-2.5693,-2.5693,-2.5693,-2.5693,-2.5693,-2.5693,-2.5693,-2.5693,-2.5693,-2.5693,-2.5693,-2.5693,-2.5693,-2.5693,-2.5693,-2.5693,-2.5693,-2.5693,-2.5693,-2.5693,-2.5977,-2.6367,-2.6787,-2.7217,-2.7708,-2.8076,-2.8252,-2.8291,-2.8291,-2.8291,-2.8359,-2.874,-2.9189,-2.9658,-3.0078,-3.0537,-3.0889,-3.0889,-3.0889,-3.0889,-3.0889,-3.0889,-3.0889,-3.0889,-3.0889,-3.0889,-3.0889,-3.0889,-3.0889,-3.0889,-3.0889,-3.0889,-3.0889,-3.0889,-3.0889,-3.0889,-3.0889,-3.0889,-3.0889,-3.1269,-3.1699,-3.2129,-3.2559,-3.2969,-3.3389,-3.3418,-3.3418,-3.3418,-3.3418,-3.3418,-3.3418,-3.3418,-3.3418,-3.3418,-3.3418,-3.3418,-3.3418,-3.3418,-3.3418,0.0,0.0,0.0,0.0,0.0,0.0,-2.2397,0.0,-2.2118,0.0,0.0,0.0,0.0,0.0,0.0,0.0,-2.3124,0.0,0.0,0.0,-2.4196,0.0,0.0,0.0,-2.509,-2.491,-2.4951,-2.5322,-2.5,-2.4961,-2.5332,-2.5547,-2.5693,-2.5693,-2.5693,-2.5693,-2.5693,-2.5693,-2.5693,-2.5693,-2.5693,-2.5693,-2.5693,-2.5693,-2.5693,-2.5693,-2.5693,-2.5693,-2.5693,-2.5693,-2.5693,-2.5693,-2.5693,-2.6006,-2.6435,-2.6865,-2.7295,-2.7777,-2.8144,-2.8291,-2.8291,-2.8291,-2.8457,-2.874,-2.916,-2.959,-3.0029,-3.0478,-3.0742,-3.0889,-3.0889,-3.0889,-3.0889,-3.0889,-3.0889,-3.0889,-3.0889,-3.0889,-3.0889,-3.0889,-3.0889,-3.0889,-3.0889,-3.0889,-3.0889,-3.0889,-3.0889,-3.0889,-3.0889,-3.0889,-3.0889,-3.0889,-3.1269,-3.1699,-3.2129,-3.2559,-3.2969,-3.3389,-3.3418,-3.3418,-3.3418,-3.3418,-3.3418,-3.3418,-3.3418,-3.3418,-3.3418,-3.3418,-3.3418,-3.3418,-3.3418,-3.3418,-2.3681,0.0,0.0,0.0,0.0,0.0,0.0,0.0,0.0,0.0,0.0,0.0,0.0,0.0,0.0,0.0,0.0,-2.3143,0.0,-2.3114,0.0,0.0,0.0,0.0,0.0,-2.4723,-2.4778,-2.5014,-2.4715,-2.4697,-2.5096,-2.5371,-2.5605,-2.5684,-2.5693,-2.5693,-2.5693,-2.5693,-2.5693,-2.5693,-2.5693,-2.5693,-2.5693,-2.5693,-2.5693,-2.5693,-2.5693,-2.5693,-2.5693,-2.5693,-2.5693,-2.5703,-2.582,-2.6182,-2.6602,-2.6904,-2.7363,-2.7933,-2.8184,-2.8291,-2.831,-2.8428,-2.8672,-2.9023,-2.958,-2.9961,-3.0293,-3.0762,-3.0889,-3.0889,-3.0889,-3.0889,-3.0889,-3.0889,-3.0889,-3.0889,-3.0889,-3.0889,-3.0889,-3.0889,-3.0889,-3.0928,-3.1045,-3.0967,-3.0889,-3.0889,-3.0986,-3.1064,-3.1064,-3.1172,-3.124,-3.124,-3.1514,-3.1865,-3.2305,-3.2617,-3.2969,-3.3389,-3.3418,-3.3418,-3.3418,-3.3418,-3.3418,-3.3418,-3.3418,-3.3418,-3.3418,-3.3418,-3.3418,-3.3418,-3.3418,-3.3418,0.0,0.0,0.0,-2.3525,0.0,0.0,0.0,0.0,-2.3018,0.0,0.0,0.0,0.0,0.0,0.0,0.0,0.0,0.0,0.0,0.0,0.0,0.0,0.0,0.0,0.0,-2.4182,-2.391,0.0,-2.3806,-2.375,-2.5047,-2.5125,-2.5293,-2.5674,-2.5693,-2.5693,-2.5693,-2.5693,-2.5693,-2.5693,-2.5693,-2.5693,-2.5693,-2.5693,-2.5693,-2.5693,-2.5693,-2.5693,-2.5693,-2.5693,-2.5693,-2.5732,-2.6201,-2.6621,-2.6992,-2.7012,-2.7549,-2.8271,-2.8291,-2.8291,-2.8359,-2.876,-2.8906,-2.9072,-2.9922,-3.0185,-3.0293,-3.0762,-3.0889,-3.0889,-3.0889,-3.0889,-3.0889,-3.0889,-3.0889,-3.0889,-3.0889,-3.0889,-3.0889,-3.0889,-3.0889,-3.1025,-3.1426,-3.1162,-3.0889,-3.0889,-3.124,-3.1494,-3.1494,-3.1865,-3.219,-3.219,-3.2139,-3.2314,-3.2744,-3.2793,-3.2969,-3.3389,-3.3418,-3.3418,-3.3418,-3.3418,-3.3418,-3.3418,-3.3418,-3.3418,-3.3418,-3.3418,-3.3418,-3.3418,-3.3418,-3.3418,0.0,0.0,-2.5792,-2.4426,0.0,0.0,0.0,0.0,0.0,0.0,0.0,0.0,0.0,0.0,0.0,0.0,0.0,0.0,0.0,0.0,0.0,0.0,0.0,0.0,0.0,0.0,-2.393,-2.3939,-2.3708,-2.376,-2.4199,-2.4812,-2.5184,-2.5293,-2.5586,-2.5693,-2.5693,-2.5693,-2.5693,-2.5693,-2.5693,-2.5693,-2.5693,-2.5693,-2.5693,-2.5693,-2.5693,-2.5693,-2.5693,-2.5693,-2.5693,-2.5732,-2.6221,-2.665,-2.7051,-2.7344,-2.7803,-2.8291,-2.8291,-2.8291,-2.8359,-2.8779,-2.9111,-2.9453,-3.0019,-3.041,-3.0693,-3.085,-3.0889,-3.0889,-3.0889,-3.0889,-3.0889,-3.0889,-3.0889,-3.0889,-3.0889,-3.0889,-3.0889,-3.0889,-3.1113,-3.1348,-3.1494,-3.1641,-3.1738,-3.1738,-3.1611,-3.1621,-3.1914,-3.208,-3.2229,-3.2229,-3.2422,-3.2637,-3.2783,-3.3047,-3.3271,-3.3408,-3.3418,-3.3418,-3.3418,-3.3418,-3.3418,-3.3418,-3.3418,-3.3418,-3.3418,-3.3418,-3.3418,-3.3418,-3.3418,-3.3418,-2.5972,-2.6262,0.0,-2.5044,-2.4745,0.0,-2.3267,0.0,-2.3784,0.0,0.0,0.0,0.0,0.0,0.0,0.0,0.0,0.0,0.0,-2.1694,0.0,0.0,0.0,0.0,0.0,0.0,-2.3627,-2.3624,-2.3333,-2.3389,0.0,-2.4453,-2.4912,-2.5106,-2.5508,-2.5693,-2.5693,-2.5693,-2.5693,-2.5693,-2.5693,-2.5693,-2.5693,-2.5693,-2.5693,-2.5693,-2.5693,-2.5693,-2.5693,-2.5693,-2.5693,-2.5742,-2.6377,-2.6777,-2.707,-2.751,-2.793,-2.8291,-2.8291,-2.8389,-2.8584,-2.9014,-2.9443,-2.9873,-3.0312,-3.0654,-3.0889,-3.0889,-3.0889,-3.0889,-3.0889,-3.0889,-3.0889,-3.0889,-3.0889,-3.0889,-3.0889,-3.0889,-3.0937,-3.1084,-3.1328,-3.1611,-3.1914,-3.208,-3.2229,-3.2229,-3.206,-3.207,-3.2353,-3.2519,-3.2617,-3.2617,-3.2861,-3.3018,-3.3018,-3.3271,-3.3418,-3.3418,-3.3418,-3.3418,-3.3418,-3.3418,-3.3418,-3.3418,-3.3418,-3.3418,-3.3418,-3.3418,-3.3418,-3.3418,-3.3418,-3.3418]},{"header":{"parameterUnit":"m.s-1","parameterCategory":1,"la1":30.6,"la2":29.2853,"lo1":-89.7004,"lo2":-87.6739,"dy":0.0162,"dx":0.0183,"nx":112,"ny":82,"refTime":"2026-02-28T00:00:00:Z","depth":0,"parameterNumber":3,"parameterNumberName":"V-component_of_WINDS"},"data":[0.0,0.0,0.0,0.0,0.0,0.0,0.0,0.0,0.0,0.0,0.0,0.0,0.0,0.0,0.0,0.0,0.0,0.0,0.0,0.0,0.0,0.0,0.0,0.0,0.0,0.0,0.0,0.0,0.0,0.0,0.0,0.0,0.0,0.0,0.0,0.0,0.0,0.0,0.0,0.0,0.0,0.0,0.0,0.0,0.0,0.0,0.0,0.0,0.0,0.0,0.0,0.0,0.0,0.0,0.0,0.0,0.0,0.0,0.0,0.0,0.0,0.0,0.0,0.0,0.0,0.0,0.0,0.0,0.0,0.0,0.0,0.0,0.0,0.0,0.0,0.0,0.0,0.0,0.0,0.0,0.0,0.0,0.0,0.0,0.0,0.0,0.0,0.0,0.0,0.0,2.9896,2.9122,2.9926,3.0835,3.1535,3.1039,2.9728,2.7576,0.0,0.0,0.0,0.0,0.0,0.0,0.0,0.0,0.0,0.0,0.0,0.0,0.0,0.0,0.0,0.0,0.0,0.0,0.0,0.0,0.0,0.0,0.0,0.0,0.0,0.0,0.0,0.0,0.0,0.0,0.0,0.0,0.0,0.0,0.0,0.0,0.0,0.0,0.0,0.0,0.0,0.0,0.0,0.0,0.0,0.0,0.0,0.0,0.0,0.0,0.0,0.0,0.0,0.0,0.0,0.0,0.0,0.0,0.0,0.0,0.0,0.0,0.0,0.0,0.0,0.0,0.0,0.0,0.0,0.0,0.0,0.0,0.0,0.0,0.0,0.0,0.0,0.0,0.0,0.0,0.0,0.0,0.0,0.0,0.0,0.0,0.0,0.0,0.0,0.0,0.0,0.0,0.0,0.0,0.0,0.0,0.0,0.0,0.0,0.0,0.0,0.0,0.0,0.0,2.9111,3.1177,3.1533,3.1633,3.1596,3.2123,3.1283,2.8662,0.0,0.0,0.0,0.0,0.0,0.0,0.0,0.0,0.0,0.0,0.0,0.0,0.0,0.0,0.0,0.0,0.0,0.0,0.0,0.0,0.0,0.0,0.0,0.0,0.0,0.0,0.0,0.0,0.0,0.0,0.0,0.0,0.0,0.0,0.0,0.0,0.0,0.0,0.0,0.0,0.0,0.0,0.0,0.0,0.0,0.0,0.0,0.0,0.0,0.0,0.0,0.0,0.0,0.0,0.0,0.0,0.0,0.0,0.0,0.0,0.0,0.0,0.0,0.0,0.0,0.0,0.0,0.0,0.0,0.0,0.0,0.0,0.0,0.0,0.0,0.0,0.0,0.0,0.0,0.0,0.0,0.0,0.0,0.0,0.0,0.0,0.0,0.0,0.0,0.0,0.0,0.0,0.0,0.0,0.0,0.0,0.0,0.0,0.0,0.0,0.0,0.0,0.0,2.8685,2.9746,3.2289,3.2262,3.2036,3.1927,3.2243,3.1539,2.9327,2.7945,0.0,0.0,0.0,0.0,0.0,0.0,0.0,0.0,0.0,0.0,0.0,0.0,0.0,0.0,0.0,0.0,0.0,0.0,0.0,0.0,0.0,0.0,0.0,0.0,0.0,0.0,0.0,0.0,0.0,0.0,0.0,0.0,0.0,0.0,0.0,0.0,0.0,0.0,0.0,0.0,0.0,0.0,0.0,0.0,0.0,0.0,0.0,0.0,0.0,0.0,0.0,0.0,0.0,0.0,0.0,0.0,0.0,0.0,0.0,0.0,0.0,0.0,0.0,0.0,0.0,0.0,0.0,0.0,0.0,0.0,0.0,0.0,0.0,0.0,0.0,0.0,0.0,0.0,0.0,0.0,0.0,0.0,0.0,0.0,0.0,0.0,0.0,0.0,0.0,0.0,0.0,0.0,0.0,0.0,0.0,0.0,0.0,0.0,0.0,0.0,0.0,0.0,3.0581,3.1124,3.2721,3.2612,3.2368,3.2218,3.2218,3.1523,2.9869,2.8705,0.0,0.0,0.0,0.0,0.0,0.0,0.0,0.0,0.0,0.0,0.0,0.0,0.0,0.0,0.0,0.0,0.0,0.0,0.0,0.0,0.0,0.0,0.0,0.0,0.0,0.0,0.0,0.0,0.0,0.0,0.0,0.0,0.0,0.0,0.0,0.0,0.0,0.0,0.0,0.0,0.0,0.0,0.0,0.0,0.0,0.0,0.0,0.0,0.0,0.0,0.0,0.0,0.0,0.0,0.0,0.0,0.0,0.0,0.0,0.0,0.0,0.0,0.0,0.0,0.0,0.0,0.0,0.0,0.0,0.0,0.0,0.0,0.0,0.0,0.0,0.0,0.0,0.0,0.0,0.0,0.0,0.0,0.0,0.0,0.0,0.0,0.0,0.0,0.0,0.0,0.0,0.0,0.0,0.0,0.0,0.0,0.0,0.0,0.0,0.0,0.0,0.0,3.159,3.323,3.2381,3.2735,3.2816,3.2259,3.2218,3.1667,3.0417,2.9232,0.0,0.0,0.0,0.0,0.0,0.0,0.0,0.0,0.0,0.0,0.0,0.0,0.0,0.0,0.0,0.0,0.0,0.0,0.0,0.0,0.0,0.0,0.0,0.0,0.0,0.0,0.0,0.0,0.0,0.0,0.0,0.0,0.0,0.0,0.0,0.0,0.0,0.0,0.0,0.0,0.0,0.0,0.0,0.0,0.0,0.0,0.0,0.0,0.0,0.0,0.0,0.0,0.0,0.0,0.0,0.0,0.0,0.0,0.0,0.0,0.0,0.0,0.0,0.0,0.0,0.0,0.0,0.0,0.0,0.0,0.0,0.0,0.0,0.0,0.0,0.0,0.0,0.0,0.0,0.0,0.0,0.0,0.0,0.0,0.0,0.0,0.0,0.0,0.0,0.0,0.0,0.0,0.0,0.0,0.0,0.0,0.0,0.0,0.0,0.0,0.0,0.0,3.0973,3.2526,0.0,3.2409,3.2463,3.2232,3.2218,3.1504,2.993,0.0,0.0,0.0,0.0,0.0,0.0,0.0,0.0,0.0,0.0,0.0,0.0,0.0,0.0,0.0,0.0,0.0,0.0,0.0,0.0,0.0,0.0,0.0,0.0,0.0,0.0,0.0,0.0,0.0,0.0,0.0,0.0,0.0,0.0,0.0,0.0,0.0,0.0,0.0,0.0,0.0,0.0,0.0,0.0,0.0,0.0,0.0,0.0,0.0,0.0,0.0,0.0,0.0,0.0,0.0,0.0,0.0,0.0,0.0,0.0,0.0,0.0,0.0,0.0,0.0,0.0,0.0,0.0,0.0,0.0,0.0,0.0,0.0,0.0,0.0,0.0,0.0,0.0,0.0,0.0,0.0,0.0,0.0,0.0,0.0,0.0,0.0,0.0,0.0,0.0,0.0,0.0,0.0,0.0,0.0,0.0,0.0,0.0,0.0,0.0,0.0,0.0,2.8972,3.1418,3.304,0.0,3.2731,3.2772,3.258,3.2374,3.1542,2.9763,0.0,0.0,0.0,0.0,0.0,0.0,0.0,0.0,0.0,0.0,0.0,0.0,0.0,0.0,0.0,0.0,0.0,0.0,0.0,0.0,0.0,0.0,0.0,0.0,0.0,0.0,0.0,0.0,0.0,0.0,0.0,0.0,0.0,0.0,0.0,0.0,0.0,0.0,0.0,0.0,0.0,0.0,0.0,0.0,0.0,0.0,0.0,0.0,0.0,0.0,0.0,0.0,0.0,0.0,0.0,0.0,0.0,0.0,0.0,0.0,0.0,0.0,0.0,0.0,0.0,0.0,0.0,0.0,0.0,0.0,0.0,0.0,0.0,0.0,0.0,0.0,0.0,0.0,0.0,0.0,0.0,0.0,0.0,0.0,0.0,0.0,0.0,0.0,0.0,0.0,0.0,0.0,0.0,0.0,0.0,0.0,0.0,0.0,0.0,0.0,0.0,0.0,2.9771,3.3347,3.5297,3.3501,3.3845,3.3972,3.3361,3.2742,3.1722,0.0,0.0,0.0,0.0,0.0,0.0,0.0,0.0,0.0,0.0,0.0,0.0,0.0,0.0,0.0,0.0,0.0,0.0,0.0,0.0,0.0,0.0,0.0,0.0,0.0,0.0,0.0,0.0,0.0,0.0,0.0,0.0,0.0,0.0,0.0,0.0,0.0,0.0,0.0,0.0,0.0,0.0,0.0,0.0,0.0,0.0,0.0,0.0,0.0,0.0,0.0,0.0,0.0,0.0,0.0,0.0,0.0,0.0,0.0,0.0,0.0,0.0,0.0,0.0,0.0,0.0,0.0,0.0,0.0,0.0,0.0,0.0,0.0,0.0,0.0,0.0,0.0,0.0,0.0,0.0,0.0,0.0,0.0,0.0,0.0,0.0,0.0,0.0,0.0,0.0,0.0,0.0,0.0,0.0,0.0,0.0,0.0,0.0,0.0,0.0,0.0,0.0,0.0,2.9834,3.3259,3.52,3.3494,3.3438,3.348,3.3333,3.315,3.2103,2.9869,0.0,0.0,0.0,0.0,0.0,0.0,0.0,0.0,0.0,0.0,0.0,0.0,0.0,0.0,0.0,0.0,0.0,0.0,0.0,0.0,0.0,0.0,0.0,0.0,0.0,0.0,0.0,0.0,0.0,0.0,0.0,0.0,0.0,0.0,0.0,0.0,0.0,0.0,0.0,0.0,0.0,0.0,0.0,0.0,0.0,0.0,0.0,0.0,0.0,0.0,0.0,0.0,0.0,0.0,0.0,0.0,0.0,0.0,0.0,0.0,0.0,0.0,0.0,0.0,0.0,0.0,0.0,0.0,0.0,0.0,0.0,0.0,0.0,0.0,0.0,0.0,0.0,0.0,0.0,0.0,0.0,0.0,0.0,0.0,0.0,0.0,0.0,0.0,0.0,0.0,0.0,0.0,0.0,0.0,0.0,0.0,0.0,0.0,0.0,0.0,0.0,0.0,3.0195,3.3283,3.5159,3.3884,3.3736,3.3736,3.3736,3.3736,3.2601,2.9976,0.0,0.0,0.0,0.0,0.0,0.0,0.0,0.0,0.0,0.0,0.0,0.0,0.0,0.0,0.0,0.0,0.0,0.0,0.0,0.0,0.0,0.0,0.0,0.0,0.0,0.0,0.0,0.0,0.0,0.0,0.0,0.0,0.0,0.0,0.0,0.0,0.0,0.0,0.0,0.0,0.0,0.0,0.0,0.0,0.0,0.0,0.0,0.0,0.0,0.0,0.0,0.0,0.0,0.0,0.0,0.0,0.0,0.0,0.0,0.0,0.0,0.0,0.0,0.0,0.0,0.0,0.0,0.0,0.0,0.0,0.0,0.0,0.0,0.0,0.0,0.0,0.0,0.0,0.0,0.0,0.0,0.0,0.0,0.0,0.0,0.0,0.0,0.0,0.0,0.0,0.0,0.0,0.0,0.0,0.0,0.0,0.0,0.0,0.0,0.0,0.0,0.0,3.0805,3.3525,3.5252,3.4622,3.4501,3.4481,3.4481,3.4481,3.326,3.0403,0.0,0.0,0.0,0.0,0.0,0.0,0.0,0.0,0.0,0.0,0.0,0.0,0.0,0.0,0.0,0.0,0.0,0.0,0.0,0.0,0.0,0.0,0.0,0.0,0.0,0.0,0.0,0.0,0.0,0.0,0.0,0.0,0.0,0.0,0.0,0.0,0.0,0.0,0.0,0.0,0.0,0.0,0.0,0.0,0.0,0.0,0.0,0.0,0.0,0.0,0.0,0.0,0.0,0.0,0.0,0.0,0.0,0.0,0.0,0.0,3.351,3.2892,0.0,0.0,0.0,0.0,0.0,0.0,0.0,0.0,0.0,0.0,0.0,0.0,0.0,0.0,0.0,0.0,0.0,0.0,0.0,0.0,0.0,0.0,0.0,0.0,0.0,0.0,0.0,0.0,0.0,0.0,0.0,0.0,0.0,0.0,0.0,0.0,0.0,0.0,0.0,0.0,3.1687,3.425,3.5961,3.5632,3.5267,3.5037,3.5037,3.5037,3.3924,3.1346,3.0637,0.0,0.0,0.0,0.0,0.0,0.0,0.0,0.0,0.0,0.0,0.0,0.0,0.0,0.0,0.0,0.0,0.0,0.0,0.0,0.0,0.0,0.0,0.0,0.0,0.0,0.0,0.0,0.0,0.0,0.0,0.0,0.0,0.0,0.0,0.0,0.0,0.0,0.0,0.0,0.0,0.0,0.0,0.0,0.0,0.0,0.0,0.0,0.0,0.0,0.0,0.0,0.0,0.0,0.0,0.0,0.0,0.0,0.0,0.0,3.5177,3.4356,0.0,0.0,0.0,0.0,0.0,0.0,0.0,0.0,0.0,0.0,0.0,0.0,0.0,0.0,0.0,0.0,0.0,0.0,0.0,0.0,0.0,0.0,0.0,0.0,0.0,0.0,0.0,0.0,0.0,0.0,0.0,0.0,0.0,0.0,0.0,0.0,0.0,0.0,0.0,0.0,3.2837,3.561,3.7549,3.74,3.6855,3.6449,3.6319,3.5999,3.4918,3.2838,3.1797,0.0,0.0,0.0,0.0,0.0,0.0,0.0,0.0,0.0,0.0,0.0,0.0,0.0,0.0,0.0,0.0,0.0,0.0,0.0,0.0,0.0,0.0,0.0,0.0,0.0,0.0,0.0,0.0,0.0,0.0,0.0,0.0,0.0,0.0,0.0,0.0,0.0,0.0,0.0,0.0,0.0,0.0,0.0,0.0,0.0,0.0,0.0,0.0,0.0,0.0,0.0,0.0,0.0,3.7595,3.8416,3.9019,3.9577,3.9997,4.0081,3.7075,3.6311,3.7082,3.5812,0.0,0.0,0.0,0.0,0.0,0.0,0.0,0.0,0.0,0.0,0.0,0.0,0.0,0.0,0.0,0.0,0.0,0.0,0.0,0.0,0.0,0.0,3.5412,3.4053,3.5031,3.5467,3.2533,0.0,0.0,0.0,0.0,0.0,0.0,0.0,0.0,0.0,0.0,0.0,3.4207,3.7008,3.9062,3.9251,3.8528,3.7997,3.7918,3.7219,3.6152,3.4621,3.3245,3.1913,0.0,0.0,0.0,0.0,0.0,0.0,0.0,0.0,0.0,0.0,0.0,0.0,0.0,0.0,0.0,0.0,0.0,0.0,0.0,0.0,0.0,0.0,0.0,0.0,0.0,0.0,0.0,0.0,0.0,0.0,0.0,0.0,3.3371,3.5556,0.0,0.0,0.0,0.0,0.0,0.0,0.0,0.0,0.0,0.0,0.0,0.0,0.0,3.7169,3.8473,3.916,3.96,3.9798,4.0535,4.0915,4.1014,4.1114,4.1163,4.1203,4.0706,0.0,3.9502,3.8668,0.0,0.0,0.0,0.0,0.0,0.0,0.0,0.0,0.0,0.0,0.0,0.0,0.0,0.0,0.0,0.0,0.0,0.0,0.0,0.0,0.0,0.0,3.8372,3.6915,3.6759,3.6843,3.6362,3.397,3.1683,3.097,3.0291,2.9632,0.0,0.0,0.0,0.0,0.0,0.0,3.5878,3.7684,3.9283,4.0206,3.9264,3.8832,3.9452,3.8818,3.7893,3.6686,3.5283,3.3923,3.2565,3.1659,0.0,0.0,0.0,0.0,0.0,0.0,0.0,0.0,0.0,0.0,0.0,0.0,0.0,0.0,0.0,0.0,0.0,0.0,0.0,0.0,0.0,0.0,0.0,0.0,0.0,0.0,0.0,0.0,0.0,3.3537,3.5154,3.6037,3.5886,3.5266,0.0,0.0,0.0,0.0,0.0,0.0,0.0,0.0,0.0,3.8874,3.8941,3.9437,4.0464,4.0796,4.1177,4.1591,4.1889,4.2282,4.28,4.2696,4.2696,4.28,4.2696,4.2398,4.1898,4.0364,3.9237,3.8389,0.0,0.0,0.0,0.0,3.7722,3.7492,3.8389,3.8438,3.7955,3.6898,0.0,0.0,0.0,0.0,0.0,0.0,0.0,3.6936,3.7853,3.8803,3.9571,3.9754,3.9487,3.9178,3.9178,3.7261,3.5089,3.3519,3.2878,3.2158,3.0635,3.0678,0.0,0.0,0.0,3.674,3.6767,3.9182,4.0959,4.0996,4.021,3.9699,3.9833,3.9544,3.9092,3.8435,3.7428,3.6418,3.5454,3.3783,3.2256,0.0,0.0,0.0,0.0,0.0,0.0,0.0,0.0,0.0,0.0,0.0,0.0,0.0,0.0,0.0,0.0,0.0,0.0,0.0,0.0,0.0,0.0,0.0,0.0,0.0,0.0,0.0,0.0,3.5553,3.6731,3.6588,3.7023,3.6585,0.0,0.0,0.0,0.0,0.0,0.0,3.7976,3.8059,3.8973,4.1001,4.1067,4.1416,4.2086,4.2086,4.2368,4.2916,4.2916,4.3273,4.3956,4.3805,4.3822,4.3939,4.3776,4.3717,4.3568,4.1702,4.0597,4.0034,3.9322,3.8666,3.8344,3.9475,3.9584,3.9325,4.0973,4.1189,4.0629,3.9637,3.9413,3.9196,3.7283,0.0,0.0,0.0,0.0,3.8179,3.9837,4.0407,4.0776,4.168,4.1479,4.1017,4.0833,3.9699,3.8144,3.619,3.5453,3.4601,3.2757,3.2895,0.0,0.0,0.0,3.8079,3.7715,4.0183,4.1823,4.1458,4.0796,4.0365,4.029,4.0114,4.0012,3.998,3.9296,3.8688,3.8177,3.6178,3.4472,3.3235,0.0,0.0,0.0,0.0,0.0,0.0,0.0,0.0,0.0,0.0,0.0,0.0,0.0,0.0,0.0,0.0,0.0,0.0,0.0,0.0,0.0,0.0,0.0,0.0,0.0,0.0,0.0,0.0,0.0,3.8086,3.8742,0.0,0.0,0.0,0.0,3.7308,3.7995,3.9067,4.0541,4.0608,4.1312,4.2825,4.2875,4.3227,4.3951,4.3951,4.3968,4.4018,4.4018,4.4035,4.4097,4.4068,4.4068,4.4097,4.4068,4.4068,4.3972,4.2866,4.2357,4.2258,4.1541,4.1226,4.121,4.1477,4.1549,4.1561,4.1782,4.1837,4.1804,4.1764,4.0809,3.9804,4.0366,3.9562,0.0,0.0,4.1094,4.1647,4.1747,4.2317,4.2685,4.2049,4.1864,4.1647,4.0933,4.018,3.935,3.8394,3.6987,3.5694,3.4866,0.0,3.4767,3.4733,3.6721,3.8444,3.91,3.9962,4.0729,4.1342,4.0796,4.0647,4.1281,4.0735,4.0635,4.1269,4.0669,4.0271,4.0238,3.946,3.7811,3.5217,3.437,0.0,0.0,0.0,0.0,0.0,0.0,0.0,0.0,0.0,0.0,0.0,0.0,0.0,0.0,0.0,0.0,0.0,0.0,0.0,0.0,0.0,0.0,0.0,0.0,0.0,0.0,0.0,0.0,3.9089,4.0113,0.0,3.8605,3.9133,3.9577,3.9629,4.0646,4.1673,4.2666,4.2717,4.3192,4.42,4.3878,4.3829,4.4097,4.4097,4.4097,4.4097,4.4097,4.4155,4.4224,4.4155,4.4155,4.4224,4.4126,4.4097,4.408,4.3697,4.3239,4.2789,4.255,4.215,4.1783,4.2339,4.2534,4.2601,4.3143,4.331,4.3322,4.3435,4.2509,4.1613,4.2871,4.2196,4.1175,4.2203,4.2321,4.2271,4.2732,4.3052,4.3305,4.3569,4.3248,4.2783,4.253,4.1449,4.0428,4.0134,3.8321,3.6604,3.5856,3.6066,3.6158,3.5678,3.7483,3.8825,3.8626,3.9636,4.0326,4.005,3.9846,3.9796,4.0044,4.0276,4.068,4.1375,4.1177,4.1259,4.174,4.0177,3.8854,3.7903,3.6214,3.4192,0.0,0.0,0.0,0.0,0.0,0.0,0.0,0.0,0.0,0.0,0.0,0.0,0.0,0.0,0.0,0.0,0.0,0.0,0.0,0.0,0.0,0.0,0.0,0.0,0.0,0.0,4.0346,3.9981,4.1232,4.1615,4.0258,4.0822,4.1432,4.1907,4.2731,4.3597,4.4535,4.4388,4.454,4.501,4.4547,4.4286,4.4286,4.4286,4.4286,4.4286,4.4286,4.4298,4.4412,4.4298,4.4327,4.4412,4.4298,4.4286,4.4286,4.4286,4.3984,4.353,4.3417,4.3059,4.2702,4.3261,4.3429,4.3513,4.4073,4.4286,4.427,4.4384,4.3793,4.3278,4.4293,4.3904,4.3166,4.3673,4.3453,4.3183,4.3673,4.3809,4.3944,4.4479,4.4181,4.3741,4.3443,4.2561,4.1731,4.1478,3.9638,3.7887,3.7152,3.7536,3.771,3.6929,3.8308,3.9239,3.8669,3.9458,3.99,3.9365,3.9299,3.9299,3.9299,3.9531,3.9951,4.0647,4.0464,4.0663,4.1392,3.9818,3.8818,3.8569,3.6373,3.4402,3.2702,0.0,0.0,0.0,0.0,0.0,0.0,0.0,0.0,0.0,0.0,0.0,0.0,0.0,0.0,0.0,0.0,0.0,0.0,0.0,0.0,0.0,0.0,0.0,3.847,3.9727,4.0725,4.0869,4.2149,4.254,4.1257,4.1762,4.2765,4.413,4.4259,4.4825,4.6063,4.5622,4.5329,4.5329,4.4879,4.4626,4.4626,4.4626,4.4626,4.4654,4.4654,4.4654,4.4654,4.4654,4.4654,4.4654,4.4626,4.4626,4.4626,4.4615,4.4615,4.457,4.4241,4.4114,4.4126,4.4253,4.431,4.4338,4.4542,4.4615,4.4615,4.4615,4.4615,4.4615,4.4615,4.4615,4.4615,4.4615,4.4615,4.4615,4.4615,4.4615,4.4615,4.4615,4.4615,4.4395,4.3623,4.3409,4.3172,4.2472,4.0944,3.9536,3.879,3.9225,3.94,3.8587,3.9148,0.0,3.9352,3.9448,3.9475,3.9325,3.9299,3.9299,3.9299,3.8652,3.851,3.9265,3.8636,3.8526,3.9265,3.8619,3.7864,3.7119,3.4973,3.3481,3.2735,0.0,0.0,0.0,0.0,0.0,0.0,0.0,0.0,0.0,0.0,0.0,0.0,0.0,0.0,0.0,0.0,0.0,0.0,0.0,0.0,0.0,3.8288,3.9385,3.935,4.1073,4.2401,4.2522,4.3362,4.3855,4.3635,4.4085,4.4576,4.4966,4.5726,4.6312,4.6665,4.6525,4.6286,4.5875,4.5372,4.5098,4.5098,4.5098,4.5294,4.5683,4.5683,4.5683,4.5683,4.5683,4.5683,4.5683,4.5284,4.5098,4.5072,4.4748,4.4615,4.4598,4.4485,4.4457,4.4457,4.4514,4.4514,4.4542,4.457,4.4615,4.4615,4.4615,4.4615,4.4615,4.4615,4.4615,4.4615,4.4615,4.4615,4.4615,4.4615,4.4615,4.4615,4.4615,4.4615,4.4547,4.4316,4.3809,4.3325,4.3149,4.2284,4.1309,4.0481,3.9973,3.961,3.9384,3.9543,0.0,3.9599,3.9625,3.9625,3.9599,3.9599,3.9599,3.9599,3.8922,3.8796,3.953,3.8846,3.8762,3.9497,3.8813,3.8095,3.7411,3.5726,3.4514,0.0,0.0,0.0,0.0,0.0,0.0,0.0,0.0,0.0,0.0,0.0,0.0,0.0,0.0,0.0,0.0,0.0,0.0,0.0,0.0,0.0,0.0,4.0051,4.1237,4.1237,4.2309,4.3261,4.3748,4.417,4.4536,4.4879,4.5152,4.5485,4.5943,4.6548,4.6908,4.6908,4.6683,4.6334,4.5775,4.5459,4.5303,4.5303,4.552,4.5775,4.6098,4.6098,4.6098,4.6074,4.5868,4.5893,4.6074,4.552,4.5303,4.5276,4.5008,4.4786,4.4615,0.0,0.0,0.0,0.0,4.4615,4.4615,4.4615,4.4615,4.4615,4.4615,4.4615,4.4615,4.4615,4.4615,4.4615,4.4615,4.4615,4.4615,4.4615,4.4615,4.4615,4.4615,4.4615,4.4615,4.4615,4.4215,4.391,4.391,4.3284,0.0,4.2095,4.1324,4.0783,4.0704,4.074,4.074,4.0651,4.0409,4.0208,4.0172,3.9888,3.9703,3.9703,3.9008,0.0,0.0,0.0,3.7685,3.7794,3.7393,0.0,0.0,0.0,0.0,0.0,0.0,0.0,0.0,3.456,3.4723,0.0,0.0,0.0,0.0,0.0,0.0,0.0,0.0,0.0,0.0,0.0,0.0,0.0,0.0,0.0,0.0,4.2122,4.3578,4.3747,4.372,4.3905,4.4547,4.4654,4.4824,4.5267,4.5407,4.585,4.673,4.6863,4.6886,4.6799,4.6358,0.0,0.0,0.0,4.5433,4.5485,4.595,4.6189,4.6189,4.6189,4.6165,4.6074,4.5614,4.5648,4.6074,4.552,4.5303,4.5303,4.5241,4.4971,4.4615,4.4615,4.4615,4.4615,4.4615,4.4615,4.4615,4.4615,0.0,0.0,4.4615,4.4615,4.4615,4.4615,4.4615,4.4615,4.4615,4.4615,4.4615,4.4615,4.4615,4.4615,4.4615,4.4615,4.4615,4.4615,4.4615,4.4615,4.4615,4.4012,4.3527,4.3527,4.2844,4.2277,4.2142,4.2223,4.2206,4.198,4.149,4.1112,4.0996,0.0,0.0,3.9873,3.9109,3.8371,3.7701,3.6987,3.6283,3.5622,3.5589,3.5924,3.6669,3.6685,3.7071,3.7785,3.8563,3.8991,3.9008,3.6169,3.6024,0.0,0.0,0.0,0.0,0.0,0.0,0.0,0.0,0.0,0.0,0.0,0.0,0.0,0.0,0.0,4.2317,4.3646,4.4773,4.5974,4.6487,4.6216,4.4772,4.4917,4.5188,4.5276,4.6074,4.6519,4.6286,4.666,4.6707,4.6286,4.6165,4.6049,4.595,4.5968,4.6147,4.659,4.6683,4.6753,4.6753,4.6753,0.0,4.6116,4.6,4.6,4.6074,4.552,4.5303,4.525,4.4906,4.4665,4.4615,4.4615,4.4615,4.4615,4.4615,4.4615,4.4615,4.4615,4.4615,4.4615,4.4615,4.4615,4.4615,4.4615,4.4615,0.0,4.4615,4.4615,4.4615,4.4615,4.4615,4.4615,4.4615,4.4615,4.4615,4.4615,4.4615,4.4615,4.4615,4.4479,4.4378,4.4378,4.3217,4.2286,4.2277,4.2286,4.2286,4.2233,4.2115,4.2057,4.2004,4.1345,4.0906,4.0906,3.9691,3.8863,3.8712,3.8019,3.7547,3.7412,3.7395,3.7732,3.8475,3.8516,3.8871,3.9598,3.9767,4.0155,4.0721,3.9513,3.953,0.0,0.0,0.0,0.0,0.0,0.0,0.0,0.0,0.0,0.0,0.0,3.761,3.9184,0.0,4.1822,4.4055,4.5066,4.6038,4.7458,4.7879,4.7436,4.5761,4.5986,4.6261,4.6109,4.6358,4.6501,4.6501,4.6501,4.6382,4.6098,4.6098,4.6098,4.6098,4.6358,4.6501,4.6501,4.7039,4.7039,4.6501,4.6776,4.6637,4.6074,4.5825,4.5868,4.6074,4.552,4.5303,4.525,4.4786,4.4615,4.4615,4.4615,4.4615,4.4615,4.4615,4.4615,4.4615,4.4615,4.4615,4.4615,4.4615,4.4615,4.4615,4.4615,4.4615,4.4615,4.4615,4.4615,4.4615,4.4615,4.4615,4.4615,4.4615,4.4615,4.4615,4.4615,4.4615,4.4615,4.4615,4.4615,4.4615,4.4615,4.3972,4.3464,4.3464,4.3464,4.3464,4.3464,4.3098,4.2861,4.2861,4.2185,4.1745,4.1745,4.0747,4.0104,4.0104,3.9411,3.9005,3.8988,3.9005,3.936,4.0087,4.0104,4.046,4.1213,4.1576,4.1922,4.232,4.2337,4.2337,0.0,0.0,0.0,0.0,0.0,0.0,0.0,0.0,3.6976,3.8308,3.9158,4.0037,4.139,4.279,4.4231,4.5596,4.6532,4.7525,4.8766,4.9044,4.8582,4.7195,4.7278,4.7296,4.6934,4.6501,4.6382,4.673,4.6358,4.6049,4.595,4.6049,4.6165,4.6262,4.6683,4.6683,4.6262,4.7107,4.7017,4.595,4.6382,4.631,4.5792,4.5372,4.5399,4.5767,4.5346,4.5161,4.5125,4.4759,4.4615,4.4615,4.4615,4.4615,4.4615,4.4615,4.4615,4.4615,4.4615,4.4615,4.4615,4.4615,4.4615,4.4615,4.4615,4.4615,4.4615,4.4615,4.4615,4.4615,4.4615,4.4615,4.4615,4.4615,4.4615,4.4615,4.4615,4.4615,4.4615,4.4615,4.4615,4.4615,4.4615,4.4615,4.4615,4.4615,4.4615,4.4615,4.4615,4.4028,4.3639,4.3639,4.2963,4.2455,4.2303,4.1762,4.1407,4.1407,4.0865,4.0527,4.0536,4.0527,4.0857,4.161,4.1644,4.1999,4.277,4.3335,4.3639,4.3656,4.4282,4.4248,3.7619,3.6217,3.5538,3.6175,3.6895,3.7964,0.0,0.0,4.0789,4.1627,4.1863,4.2168,4.2987,4.4253,4.5648,4.7133,4.8432,4.9548,5.0329,5.0917,5.0656,4.9088,4.8378,4.7736,4.698,4.6863,4.6637,4.6238,4.6123,4.5875,4.5407,4.5825,4.6334,4.6817,4.6863,4.6863,4.6799,4.6931,4.6454,4.5381,4.5459,4.5232,4.4776,4.4709,4.4692,4.4776,4.4692,4.4665,4.4665,4.4626,4.4615,4.4615,4.4615,4.4615,4.4615,4.4615,4.4615,4.4615,4.4615,4.4615,4.4615,4.4615,4.4615,4.4615,4.4615,4.4615,4.4615,4.4615,4.4615,4.4615,4.4615,4.4615,4.4615,4.4615,4.4615,4.4615,4.4615,4.4615,4.4615,4.4615,4.4615,4.4615,4.4615,4.4615,4.4615,4.4615,4.4615,4.4615,4.4615,4.453,4.4479,4.4479,4.3758,4.3014,4.2354,4.2219,4.2168,4.2168,4.21,4.2049,4.2033,4.2049,4.2405,4.3139,4.3139,4.3555,4.4344,4.4445,4.4479,4.4479,4.4564,4.4564,4.0424,3.9059,3.8092,0.0,3.9184,3.9986,4.0975,4.1525,4.2049,4.2794,4.2946,4.3274,4.4312,4.5343,4.6595,0.0,4.945,5.0373,5.1128,5.1065,5.0396,4.8919,4.8074,4.7441,4.6957,4.6334,4.6017,4.6098,4.58,4.58,4.6213,4.643,4.6799,4.7363,4.7062,4.6753,4.643,4.643,4.5918,4.4906,4.5178,4.5062,4.4615,4.4615,4.4615,4.4615,4.4615,4.4615,4.4615,4.4615,4.4615,4.4615,4.4615,4.4615,4.4615,4.4615,4.4615,4.4615,4.4615,4.4615,4.4615,4.4615,4.4615,4.4615,4.4615,4.4615,4.4615,4.4615,4.4615,4.4615,4.4615,4.4615,4.4615,4.4615,4.4615,4.4615,4.4615,4.4615,4.4615,4.4615,4.4615,4.4615,4.4615,4.4615,4.4615,4.4615,4.4615,4.4615,4.4615,4.4615,4.4615,4.4615,4.4282,4.3961,4.3667,4.365,4.365,4.365,4.365,4.365,4.365,4.365,4.3775,4.4079,4.4096,4.4248,4.4615,4.4615,4.4615,4.4615,4.4615,4.4615,4.1964,4.1064,4.0281,4.04,4.1093,4.1813,4.1813,4.2388,4.3081,4.3623,4.3741,4.4041,4.5111,4.595,4.7056,4.877,4.9717,5.0446,5.099,5.0606,4.971,4.8281,4.7633,4.7149,4.6708,4.5992,4.5673,4.6074,4.5893,4.6074,4.6863,4.6908,4.7084,4.7468,4.6954,4.643,4.5875,4.6042,4.5606,4.4615,4.5089,4.5062,4.4615,4.4615,4.4615,4.4615,4.4615,4.4615,4.4615,4.4615,4.4615,4.4615,4.4615,4.4615,4.4615,4.4615,4.4615,4.4615,4.4615,4.4615,4.4615,4.4615,4.4615,4.4615,4.4615,4.4615,4.4615,4.4615,4.4615,4.4615,4.4615,4.4615,4.4615,4.4615,4.4615,4.4615,4.4615,4.4615,4.4615,4.4615,4.4615,4.4615,4.4615,4.4615,4.4615,4.4615,4.4615,4.4615,4.4615,4.4615,4.4615,4.4615,4.4615,4.4615,4.4615,4.4615,4.4615,4.4615,4.4615,4.4615,4.4615,4.4615,4.4615,4.4615,4.4615,4.4615,4.4615,4.4615,4.4615,4.4615,4.4615,4.4716,4.1202,4.1204,4.117,4.117,4.2243,4.3325,4.3325,4.3944,4.4547,4.4564,4.4564,4.4714,4.5214,4.595,4.6924,4.8223,4.9099,4.9627,4.9644,4.9627,4.9064,4.751,4.7317,4.6983,0.0,4.6098,4.6074,4.6098,4.6566,4.6863,4.6908,4.6908,4.6908,4.6931,4.6406,4.5868,4.5329,4.5825,4.5606,4.4615,4.5089,4.5062,4.4615,4.4615,4.4615,4.4615,4.4615,4.4615,4.4615,4.4615,4.4615,4.4615,4.4615,4.4615,4.4615,4.4615,4.4615,4.4615,4.4615,4.4615,4.4615,4.4615,4.4615,4.4615,4.4615,4.4615,4.4615,4.4615,4.4615,4.4615,4.4615,4.4615,4.4615,4.4615,4.4615,4.4615,4.4615,4.4615,4.4615,4.4615,4.4615,4.4615,4.4615,4.4615,4.4615,4.4615,4.4615,4.4615,4.4615,4.4615,4.4615,4.4615,4.4615,4.4615,4.4615,4.4615,4.4615,4.4615,4.4615,4.4615,4.4615,4.4615,4.4615,4.4615,4.4615,4.4615,4.4615,4.4615,4.4615,4.4615,4.4615,4.4976,4.1931,4.1931,4.2049,4.254,4.302,4.3527,4.4062,4.4429,4.4615,4.4615,4.4615,4.4731,4.5214,4.595,4.6768,4.7532,4.8757,4.9302,4.8421,4.8253,4.7906,4.6907,4.63,0.0,0.0,0.0,0.0,4.6098,4.6262,4.6382,4.6382,4.6382,4.6382,4.6382,4.585,4.5648,4.5825,4.5665,4.5381,4.5045,4.4917,4.4759,4.4615,4.4615,4.4615,4.4615,4.4615,4.4615,4.4615,4.4615,4.4615,4.4615,4.4615,4.4615,4.4615,4.4615,4.4615,4.4615,4.4615,4.4615,4.4615,4.4615,4.4615,4.4615,4.4615,4.4615,4.4615,4.4615,4.4615,4.4615,4.4615,4.4615,4.4615,4.4615,4.4615,4.4615,4.4615,4.4615,4.4615,4.4615,4.4615,4.4615,4.4615,4.4615,4.4615,4.4615,4.4615,4.4615,4.4615,4.4615,4.4615,4.4615,4.4615,4.4615,4.4615,4.4615,4.4615,4.4615,4.4615,4.4615,4.4615,4.4615,4.4615,4.4615,4.4615,4.4615,4.4615,4.4615,4.4615,4.4615,4.4615,4.4993,4.2557,4.2692,4.2878,4.3639,4.3826,4.3961,4.4496,4.4615,4.4615,4.4615,4.4615,4.4731,4.5214,4.5601,4.6084,4.6899,4.7917,4.8211,4.7082,4.7163,4.6929,4.5925,4.5515,4.5433,0.0,0.0,0.0,4.6098,4.6098,4.6098,4.6098,4.5925,4.58,4.58,4.5485,4.5459,4.58,4.585,4.5792,4.5588,4.5089,4.4759,4.4615,4.4615,4.4615,4.4615,4.4615,4.4615,4.4615,4.4615,4.4615,4.4615,4.4615,4.4615,4.4632,4.4919,4.4976,4.4942,4.4699,4.4615,4.4615,4.4615,4.4615,4.4615,4.4615,4.4615,4.4615,4.4615,4.4615,4.4615,4.4615,4.4615,4.4615,4.4615,4.4615,4.4615,4.4615,4.4615,4.4615,4.4615,4.4615,4.4615,4.4615,4.4615,4.4615,4.4615,4.4615,4.4615,4.4615,4.4615,4.4615,4.4615,4.4615,4.4615,4.4615,4.4615,4.4615,4.4615,4.4615,4.4615,4.4615,4.4615,4.4615,4.4615,4.4615,4.4615,4.4615,4.4615,4.4615,4.4615,4.4886,4.5382,4.3003,4.3426,4.3656,4.4429,4.4615,4.4615,4.4615,4.4615,4.4615,4.4615,4.4581,4.468,0.0,0.0,4.4952,4.6192,4.6635,4.6532,4.5805,4.6329,4.6273,0.0,0.0,0.0,0.0,0.0,0.0,4.6049,0.0,4.6067,4.6024,4.5537,4.525,4.525,4.525,4.5294,4.5303,4.631,4.6548,4.6049,4.5511,4.5035,4.4615,4.4615,4.4615,4.4615,4.4615,4.4615,4.4615,4.4615,4.4615,4.4615,4.4615,4.4615,4.4699,4.5432,4.5703,4.5618,4.4953,4.4716,4.4716,4.4682,4.4666,4.4649,4.4615,4.4615,4.4615,4.4615,4.4615,4.4615,4.4615,4.4615,4.4615,4.4615,4.4615,4.4615,4.4615,4.4615,4.4615,4.4615,4.4615,4.4615,4.4615,4.4615,4.4615,4.4615,4.4615,4.4615,4.4615,4.4615,4.4615,4.4615,4.4615,4.4615,4.4615,4.4615,4.4615,4.4615,4.4615,4.4615,4.4615,4.4615,4.4615,4.4615,4.4615,4.4615,4.4615,4.4615,4.4632,4.4682,4.5365,4.6126,4.3166,4.3842,4.4333,4.4564,4.4615,4.4615,4.4615,4.4615,4.4615,4.4615,4.4113,4.3735,0.0,0.0,0.0,4.4946,4.6055,0.0,4.5805,4.6329,0.0,4.526,0.0,4.5459,4.5868,4.5648,0.0,0.0,4.5494,4.5346,4.5015,4.4852,4.4786,4.4786,4.4786,4.4944,4.5303,4.5588,4.5622,4.5511,4.5025,4.472,4.4615,4.4615,4.4615,4.4615,4.4615,4.4615,4.4615,4.4615,4.4615,4.4615,4.4615,4.4615,4.4699,4.5432,4.5703,4.5754,4.6109,4.6227,4.6143,4.5602,4.5415,4.5314,4.4784,4.4615,4.4615,4.4615,4.4615,4.4615,4.4615,4.4615,4.4615,4.4615,4.4615,4.4615,4.4615,4.4615,4.4615,4.4615,4.4615,4.4615,4.4615,4.4615,4.4615,4.4615,4.4615,4.4615,4.4615,4.4615,4.4615,4.4615,4.4615,4.4615,4.4615,4.4615,4.4615,4.4615,4.4615,4.4615,4.4615,4.4615,4.4615,4.4615,4.4615,4.4615,4.4615,4.4615,4.4874,4.5415,4.5618,4.6397,4.3724,4.4248,4.4615,4.4615,4.4615,4.4513,4.4147,4.4062,4.3978,4.3667,4.3234,0.0,4.2929,4.32,0.0,0.0,0.0,0.0,4.5805,4.6329,4.6355,0.0,4.4981,0.0,4.5416,4.5169,4.4981,0.0,4.4981,4.4879,4.4598,4.4615,4.4615,4.4615,4.4814,4.5169,4.5665,4.5648,4.552,4.5303,4.5035,4.4814,4.4615,4.4615,4.4615,4.4615,4.4615,4.4615,4.4615,4.4615,4.4615,4.4632,4.4942,4.5077,4.5213,4.6278,4.6684,4.6786,4.7513,4.7767,4.7581,4.6532,4.5957,4.5618,4.5213,4.4869,4.4615,4.4615,4.4615,4.4615,4.4615,4.4615,4.4615,4.4615,4.4615,4.4615,4.4615,4.4615,4.4615,4.4615,4.4615,4.4615,4.4615,4.4615,4.4615,4.4615,4.4615,4.4615,4.4615,4.4615,4.4615,4.4615,4.4615,4.4615,4.4615,4.4615,4.4615,4.4615,4.4615,4.4615,4.4615,4.4615,4.4615,4.4615,4.4615,4.4615,4.4615,4.4908,4.5297,4.572,4.6363,4.7124,4.4395,4.4615,4.4615,4.4615,4.4615,4.4395,4.3589,4.3308,4.3047,4.2303,0.0,4.1999,4.1999,4.2692,4.3521,4.4327,0.0,4.643,4.5788,4.6244,4.6126,4.4767,4.4615,4.4615,4.4615,4.4615,4.4615,4.4615,4.4615,4.4615,4.4615,4.4615,4.4615,4.4615,4.4981,4.5451,4.5893,4.5893,4.5665,4.5214,4.5214,4.4981,4.4615,4.4615,4.4615,4.4615,4.4615,4.4615,4.4615,4.4615,4.4666,4.4818,4.5449,4.5703,4.5889,4.7348,4.7821,4.7885,4.8714,4.9001,4.8781,4.7394,4.6515,4.5974,4.5889,4.5399,4.4902,4.4902,4.4902,4.4902,4.4902,4.4835,4.4784,4.4886,4.4835,4.475,4.475,4.4682,4.4615,4.4615,4.4615,4.4615,4.4615,4.4615,4.4615,4.4615,4.4615,4.4615,4.4615,4.4615,4.4615,4.4615,4.4615,4.4615,4.4615,4.4615,4.4615,4.4615,4.4615,4.4615,4.4615,4.4615,4.4615,4.4615,4.4615,4.4649,4.475,4.5382,4.5805,4.6024,4.728,4.7939,4.4395,4.4615,4.4615,4.4615,4.4615,4.4395,4.3589,4.2929,0.0,0.0,4.0916,4.0493,4.0485,4.1576,4.2743,4.3504,4.4908,4.5855,4.572,4.5821,4.5568,0.0,4.4615,4.4615,4.4615,4.4615,0.0,0.0,4.4615,4.4615,4.4615,4.4615,4.4615,4.4615,4.4665,4.4776,4.4869,4.4869,4.4814,4.472,4.472,4.4665,4.4615,4.4615,4.4615,4.4615,4.4615,0.0,4.4615,4.4615,4.4942,4.5517,4.5652,4.5703,4.5889,4.7348,4.7513,4.7175,4.8528,4.9001,4.8866,4.8003,4.7601,4.7411,4.6786,4.6515,4.6413,4.6413,4.6413,4.6413,4.6413,4.5974,4.5652,4.6261,4.594,4.5517,4.5517,4.501,4.4615,4.4615,4.4615,4.4615,4.4615,4.4615,4.4615,4.4615,4.4615,4.4615,4.4615,4.4615,4.4615,4.4615,4.4615,4.4615,4.4615,4.4615,4.4615,4.4615,4.4615,4.4615,4.4615,4.4615,4.4615,4.4615,4.4615,4.4919,4.5517,4.5652,4.6346,4.7517,4.777,4.824,4.4513,4.4615,4.4615,4.4615,4.4615,4.4293,4.3098,0.0,0.0,0.0,3.9478,3.8971,3.8954,4.0155,0.0,4.2658,4.3775,4.479,4.5602,4.5365,0.0,4.4649,4.4615,4.4615,0.0,4.4615,4.4615,4.4615,4.4615,4.4615,4.4615,4.4615,4.4615,4.4615,4.4615,4.4615,4.4615,4.4615,4.4615,4.4615,4.4615,4.4615,4.4615,4.4615,4.4615,4.4615,4.4615,4.4615,4.4615,4.4615,4.4818,4.5196,4.5974,4.6261,4.6447,4.7936,4.8257,4.8054,4.8748,4.9001,4.8951,4.8595,4.8193,4.7821,4.7479,4.7107,4.6786,4.6786,4.6786,4.6786,4.6786,4.6532,4.6363,4.6718,4.6532,4.6261,4.6261,4.5991,4.5647,4.5246,4.5162,4.5043,4.4682,4.4936,4.5026,4.4666,4.4925,4.5026,4.4649,4.4615,4.4615,4.4615,4.4615,4.4615,4.4615,4.4615,4.4615,4.4615,4.4615,4.4615,4.4615,4.4615,4.4615,4.4615,4.4976,4.5348,4.5703,4.6481,4.7225,4.7906,4.8308,4.8663,4.4615,4.4615,4.4615,4.4615,4.4615,4.4209,4.2642,4.161,0.0,0.0,3.8176,3.7669,3.7669,0.0,4.0307,0.0,4.2455,4.3443,4.4993,4.4705,4.4429,0.0,4.4615,0.0,4.4615,4.4615,0.0,4.4615,4.4615,4.4615,4.4615,4.4615,4.4615,4.4615,4.4615,4.4615,4.4615,4.4615,4.4615,4.4615,4.4615,4.4615,4.4615,4.4615,4.4615,4.4615,4.4615,4.4615,4.4615,4.4615,4.4699,4.4942,4.6109,4.665,4.6938,4.8105,4.8528,4.8528,4.8528,4.8629,4.8765,4.8765,4.8494,4.8125,4.8125,4.7733,4.7259,4.7259,4.7259,4.7259,4.7259,4.7141,4.7039,4.7039,4.7039,4.7039,4.7039,4.6904,4.6616,4.6058,4.594,4.5754,4.5173,4.5534,4.5686,4.4942,4.5331,4.5432,4.4699,4.4615,4.4615,4.4615,4.4615,4.4615,4.4615,4.475,4.4852,4.4852,4.4987,4.5089,4.5089,4.5089,4.5089,4.5089,4.5635,4.6024,4.6177,4.7314,4.7973,4.8142,4.8731,4.9086,4.4615,4.4615,4.4615,4.4615,4.4615,4.4209,4.2642,0.0,3.9791,3.8311,3.7398,3.6897,3.6897,3.8108,0.0,0.0,0.0,4.1931,4.3392,4.3544,4.3792,4.4513,0.0,0.0,4.4615,4.4615,4.4615,4.4615,4.4615,4.4615,4.4615,4.4615,4.4615,4.4615,4.4615,4.4615,4.4615,4.4615,4.4615,4.4615,4.4615,4.4615,4.4615,4.4615,4.4615,4.4615,4.4615,4.4615,0.0,4.4615,4.4976,4.5618,4.5754,4.621,4.6802,4.6938,4.6989,4.6989,4.6989,4.7445,4.799,4.799,4.8426,4.89,4.89,4.8849,4.8798,4.8798,4.8798,4.8798,4.8798,4.8308,4.7787,4.7787,4.7787,4.7787,4.7787,4.7276,4.6769,4.6701,4.6684,4.6667,4.6599,4.665,4.6447,4.572,4.5669,4.5432,4.4699,4.4615,4.4615,4.4615,4.4615,4.4615,4.4615,4.5213,4.5602,4.5602,4.6227,4.6583,4.6583,4.6583,4.6583,4.6583,4.665,4.7022,4.7686,4.7821,4.8227,4.89,4.8968,4.9357,4.4479,4.4615,4.4615,4.4615,4.4615,4.4209,4.2642,0.0,3.969,3.821,3.6941,3.6079,3.6079,3.6941,3.8065,0.0,0.0,0.0,4.2472,4.2743,4.3014,4.3792,4.4327,0.0,0.0,0.0,4.4615,4.4615,4.4615,4.4615,4.4615,4.4615,4.4615,4.4615,4.4615,4.4615,4.4615,4.4615,4.4615,4.4615,4.4615,4.4615,4.4615,4.4615,4.4615,4.4615,4.4615,4.4615,0.0,4.4615,4.4784,4.5077,4.5534,4.5889,4.6194,4.6633,4.6786,4.6786,4.6786,4.7293,4.7889,4.7889,4.8409,4.9001,4.9001,4.9001,4.9001,4.9001,4.9001,4.9001,4.9001,4.8781,4.8578,4.8578,4.8578,4.8578,4.8578,4.8325,4.7986,4.7564,4.7462,4.7327,4.687,4.7175,4.7208,4.6464,4.6752,4.6769,4.6007,4.5906,4.5906,4.5906,4.5517,4.5263,4.5263,4.594,4.6363,4.6363,4.6633,4.6786,4.6786,4.6786,4.6786,4.6786,4.7242,4.7614,4.7889,4.8359,4.8714,4.9001,4.9001,4.9407,4.4637,4.4784,4.4615,4.4615,4.4615,4.4209,0.0,4.1179,3.969,3.821,3.6664,3.56,3.56,3.6265,3.7218,3.8464,0.0,3.9698,4.1677,4.1965,4.2337,0.0,0.0,4.4333,0.0,4.4615,4.4615,4.4615,4.4615,4.4615,4.4615,4.4615,4.4615,4.4615,4.4615,4.4615,4.4615,4.4615,4.4615,4.4615,4.4615,4.4615,4.4615,4.4615,4.4615,4.4615,4.4615,4.4615,0.0,4.4615,4.4615,4.4649,4.5162,4.5517,4.5737,4.6024,4.6278,4.643,4.621,4.6769,4.7581,4.7581,4.8223,4.9001,4.9001,4.9001,4.9001,4.9001,4.9001,4.9001,4.9001,4.9001,4.9001,4.9001,4.9001,4.9001,4.9001,4.9001,4.8849,4.8342,4.824,4.8071,4.753,4.7885,4.7986,4.7242,4.7581,4.7648,4.6887,4.6786,4.6786,4.6786,4.6532,4.6261,4.6041,4.6701,4.7124,4.7124,4.7327,4.7445,4.7445,4.7445,4.7445,4.7445,4.797,4.824,4.824,4.8748,4.9001,4.9018,4.9221,4.983,4.5252,4.5145,4.4615,4.4615,4.4615,4.4209,4.2642,4.1179,3.969,3.821,3.6664,3.56,3.56,3.6265,3.7026,3.7787,3.8514,0.0,4.1001,4.1221,4.1762,0.0,0.0,4.3741,4.453,4.4615,4.4615,4.4615,4.4615,0.0,4.4615,4.4615,4.4615,4.4615,4.4615,4.4615,4.4615,4.4615,4.4615,4.4615,4.4615,4.4615,4.4615,4.4615,4.4615,4.4615,4.4615,4.4615,0.0,4.4615,4.4615,4.4615,4.4615,4.5043,4.5618,4.4902,4.5077,4.5618,4.4886,4.5596,4.6802,4.6802,4.78,4.9001,4.9001,4.9001,4.9001,4.9001,4.9001,4.9001,4.9001,4.9001,4.9001,4.9001,4.9001,4.9001,4.9001,4.9001,4.9001,4.8984,4.8984,4.8984,4.8984,4.8984,4.8748,4.799,4.7889,4.7648,4.6887,4.6786,4.6786,4.6786,4.7462,4.7597,4.6836,4.7462,4.7872,4.7872,4.8578,4.8984,4.8984,4.8984,4.8984,4.8984,4.8984,4.8984,4.8984,4.9001,4.9001,4.9018,4.9746,5.0862,4.3821,4.3961,4.3656,4.3132,4.3041,4.2625,4.1153,4.0054,3.892,3.7449,3.6332,3.56,3.56,3.5825,3.6569,3.8362,3.8853,0.0,0.0,0.0,0.0,4.2658,4.3572,4.4316,0.0,0.0,4.4615,4.4615,4.4615,4.4615,4.4615,4.4615,4.4615,4.4615,4.4615,4.4615,4.4615,4.4615,4.4615,4.4615,4.4615,4.4615,4.4615,4.4615,4.4615,4.4615,4.4615,4.4615,4.4615,4.4615,4.4615,4.4615,4.4615,4.475,4.4936,4.4699,4.475,4.4976,4.5263,4.5991,4.687,4.7394,4.8223,4.9001,4.9001,4.9001,4.9001,4.9001,4.9001,4.9001,4.9001,4.9001,4.9001,4.9001,4.9001,4.9001,4.9001,4.9001,4.9001,4.9001,4.9001,4.9001,4.9001,4.9001,4.8934,4.8697,4.8663,4.8578,4.8325,4.8308,4.8308,4.8308,4.8511,4.8359,4.7614,4.824,4.8663,4.8663,4.8883,4.9001,4.9001,4.9001,4.9001,4.9001,4.9001,4.9001,4.9001,4.9001,4.9255,4.9763,5.0507,5.1369,4.2915,4.3217,4.2878,4.2405,4.2286,4.1914,4.0434,3.9529,3.8565,3.71,3.6163,3.56,3.56,3.5859,3.6518,3.7922,3.8633,0.0,0.0,0.0,0.0,4.2709,0.0,0.0,0.0,4.4615,4.4615,4.4615,4.4615,4.4615,4.4615,4.4615,4.4615,4.4615,4.4615,4.4615,4.4615,4.4615,4.4615,4.4615,4.4615,4.4615,4.4615,4.4615,4.4615,4.4615,4.4615,4.4615,0.0,4.4615,4.4615,4.4615,4.4615,4.4615,4.4615,4.4615,4.4615,4.4716,4.5449,4.6177,4.6921,4.7682,4.8409,4.9001,4.9001,4.9001,4.9001,4.9001,4.9001,4.9001,4.9001,4.9001,4.9001,4.9001,4.9001,4.9001,4.9001,4.9001,4.9001,4.9001,4.9001,4.9001,4.9001,4.9001,4.9001,4.9001,4.9001,4.9001,4.9001,4.9001,4.9001,4.9001,4.9001,4.8815,4.8359,4.8748,4.9001,4.9001,4.9001,4.9001,4.9001,4.9001,4.9001,4.9001,4.9001,4.9001,4.9001,4.9272,4.9932,5.093,5.1403,5.2029,0.0,4.2557,4.2049,4.1999,4.1982,4.161,4.018,3.9343,0.0,3.7015,3.6129,3.5616,3.5667,3.6248,3.6795,3.6998,3.8149,0.0,0.0,4.0375,0.0,0.0,4.4147,0.0,4.4615,4.4615,4.4615,4.4615,4.4615,4.4615,4.4615,4.4615,4.4615,4.4615,4.4615,4.4615,4.4615,4.4615,4.4615,4.4615,4.4615,4.4615,4.4615,4.4615,4.4615,0.0,4.4615,4.4615,4.4615,4.4615,4.4615,4.4615,4.4615,4.4615,4.4615,4.4615,4.4615,4.4716,4.55,4.6227,4.6921,4.7733,4.846,4.9001,4.9001,4.9001,4.9001,4.9001,4.9001,4.9001,4.9001,4.9001,4.9001,4.9001,4.9001,4.9001,4.9001,4.9001,4.9001,4.9001,4.9001,4.9001,4.9001,4.9001,4.9001,4.9001,4.9001,4.9001,4.9001,4.9001,4.9001,4.9001,4.9001,4.9001,4.9001,4.9001,4.9001,4.9001,4.9001,4.9001,4.9001,4.9001,4.9001,4.9001,4.9052,4.9086,4.9086,4.9813,5.0913,5.23,5.23,5.2739,3.8779,0.0,3.9631,3.9073,3.8937,3.87,0.0,3.7455,3.7026,3.6096,3.5718,3.5785,3.64,3.6163,3.6637,3.8962,0.0,3.9377,4.0527,0.0,0.0,4.413,4.4496,4.4615,4.4615,4.4615,4.4615,4.4615,4.4615,4.4615,4.4615,4.4615,4.4615,4.4615,4.4615,4.4615,4.4615,4.4615,4.4615,4.4615,4.4615,4.4615,4.4615,4.4615,4.4615,4.4615,4.4615,4.4615,4.4615,4.4615,4.4615,4.4615,4.4615,4.4615,4.4615,4.4615,4.4615,4.4801,4.6075,4.665,4.7005,4.8325,4.8866,4.9001,4.9001,4.9001,4.9001,4.9001,4.9001,4.9001,4.9001,4.9001,4.9001,4.9001,4.9001,4.9001,4.9001,4.9001,4.9001,4.9001,4.9001,4.9001,4.9001,4.9001,4.9001,4.9001,4.9001,4.9001,4.9001,4.9001,4.9001,4.9001,4.9001,4.9001,4.9001,4.9001,4.9001,4.9001,4.9001,4.9001,4.9001,4.9001,4.9001,4.9001,4.9543,4.983,4.983,5.0591,5.142,5.23,5.23,5.2739,3.6632,3.7874,3.8903,3.8497,3.8396,3.821,3.7466,3.7049,3.6552,3.5752,0.0,3.5718,3.6163,3.6197,3.6688,3.8319,3.8826,0.0,0.0,0.0,4.325,4.4462,4.4615,4.4615,0.0,4.4615,4.4615,4.4615,4.4615,4.4615,4.4615,4.4615,4.4615,4.4615,4.4615,4.4615,4.4615,4.4615,4.4615,4.4615,4.4615,4.4615,4.4615,4.4615,4.4615,4.4615,4.4615,4.4615,4.4615,4.4615,4.4615,4.4615,4.4615,4.4615,4.4615,4.4615,4.4615,4.4818,4.6278,4.7242,4.7936,4.8748,4.9001,4.9001,4.9001,4.9001,4.9001,4.9001,4.9001,4.9001,4.9001,4.9001,4.9001,4.9001,4.9001,4.9001,4.9001,4.9001,4.9001,4.9001,4.9001,4.9001,4.9001,4.9001,4.9001,4.9001,4.9001,4.9001,4.9001,4.9001,4.9001,4.9001,4.9001,4.9001,4.9001,4.9001,4.9001,4.9001,4.9001,4.9001,4.9001,4.9001,4.9171,4.9492,5.0236,5.0777,5.1099,5.1522,5.2114,5.2858,5.2858,5.3078,3.5626,3.7226,3.8768,3.8531,3.8565,3.8464,3.7719,0.0,0.0,0.0,0.0,0.0,0.0,3.6603,0.0,0.0,0.0,0.0,4.2185,4.3014,4.3707,4.4513,4.4615,0.0,4.4615,4.4615,4.4615,4.4615,4.4615,4.4615,4.4615,4.4615,4.4615,4.4615,4.4615,4.4615,4.4615,4.4615,4.4615,4.4615,4.4615,4.4615,4.4615,4.4615,4.4615,4.4615,4.4615,0.0,4.4615,4.4615,4.4615,4.4615,4.4615,4.4615,4.4615,4.4615,4.4682,4.4987,4.6447,4.7851,4.9001,4.9001,4.9001,4.9001,4.9001,4.9001,4.9001,4.9001,4.9001,4.9001,4.9001,4.9001,4.9001,4.9001,4.9001,4.9001,4.9001,4.9001,4.9001,4.9001,4.9001,4.9001,4.9001,4.9001,4.9001,4.9001,4.9001,4.9001,4.9001,4.9001,4.9001,4.9001,4.9001,4.9001,4.9001,4.9001,4.9052,4.9171,4.9069,4.9052,4.9171,4.9171,4.9509,5.0253,5.0997,5.1691,5.23,5.2418,5.2841,5.3501,5.3501,5.3501,3.6365,3.733,3.777,3.6445,3.6637,3.6948,3.6124,3.5853,3.5735,0.0,0.0,0.0,0.0,3.8159,3.9056,0.0,0.0,4.2134,0.0,0.0,4.3707,4.4513,0.0,4.4615,4.4615,4.4615,4.4615,4.4615,4.4615,4.4615,4.4615,4.4615,4.4615,4.4615,4.4615,4.4615,4.4615,4.4615,4.4615,4.4615,4.4615,4.4615,4.4615,4.4615,4.4615,4.4615,0.0,4.4615,4.4615,4.4615,4.4615,4.4615,4.4615,4.4615,4.4615,4.4615,4.4993,4.5737,4.7225,4.8291,4.9001,4.9001,4.9001,4.9001,4.9001,4.9001,4.9001,4.9001,4.9001,4.9001,4.9001,4.9001,4.9001,4.9001,4.9001,4.9001,4.9001,4.9001,4.9001,4.9001,4.9001,4.9001,4.9001,4.9001,4.9001,4.9001,4.9001,4.9001,4.9001,4.9001,4.9001,4.9001,4.9001,4.9001,4.9001,4.9001,4.9272,4.9881,4.9357,4.9272,4.9898,4.9915,5.027,5.1031,5.1775,5.2198,5.23,5.2993,5.3382,5.3501,5.3501,5.3501,3.5872,3.6915,3.7635,3.6535,3.7127,3.7872,3.7516,3.7144,3.6834,0.0,0.0,0.0,0.0,0.0,4.0087,4.1542,0.0,4.3014,4.3341,4.3775,4.4181,0.0,0.0,4.4615,4.4615,4.4615,4.4615,4.4615,4.4615,4.4615,4.4615,4.4615,4.4615,4.4615,4.4615,4.4615,4.4615,4.4615,4.4615,4.4615,4.4615,4.4615,4.4615,4.4615,4.4615,4.4615,0.0,4.4615,4.4615,4.4615,4.4615,4.4615,4.4615,4.4615,4.4649,4.5043,4.5906,4.7005,4.7652,4.8392,4.9001,4.9001,4.9001,4.9001,4.9001,4.9001,4.9001,4.9001,4.9001,4.9001,4.9001,4.9001,4.9001,4.9001,4.9001,4.9001,4.9001,4.9001,4.9001,4.9001,4.9001,4.9001,4.9001,4.9001,4.9001,4.9001,4.9001,4.9001,4.9001,4.9357,4.9441,4.9035,4.9712,5.0033,4.9627,4.9965,5.0168,5.0084,5.0152,5.0355,5.0676,5.1082,5.1454,5.1792,5.2553,5.2959,5.2959,5.3315,5.3501,5.3501,5.3501,5.3501,3.5807,3.6727,3.755,3.7144,3.7905,3.8785,3.8954,3.843,3.8007,0.0,0.0,0.0,0.0,3.9631,0.0,4.2591,4.3318,4.369,4.369,4.4198,4.4615,4.4615,4.4615,4.4615,4.4615,4.4615,4.4615,4.4615,4.4615,4.4615,4.4615,4.4615,4.4615,4.4615,4.4615,4.4615,4.4615,4.4615,4.4615,4.4615,4.4615,4.4615,4.4615,4.4615,4.4615,4.4615,4.4615,4.4615,4.4615,4.4615,4.4615,4.4615,4.4615,4.4716,4.4942,4.5686,4.6786,4.7906,4.8091,4.8545,4.9001,4.9001,4.9001,4.9001,4.9001,4.9001,4.9001,4.9001,4.9001,4.9001,4.9001,4.9001,4.9001,4.9001,4.9001,4.9001,4.9001,4.9001,4.9001,4.9001,4.9001,4.9001,4.9001,4.9001,4.9001,4.9001,4.9154,4.9255,4.9255,4.9898,5.0135,4.9593,5.0541,5.098,5.0405,5.1031,5.1234,5.0642,5.098,5.1302,5.1471,5.2012,5.2384,5.2587,5.3196,5.3501,5.3501,5.3501,5.3501,5.3501,5.3501,5.3501,3.7312,3.7202,3.7032,3.7669,3.7905,3.8159,3.8836,3.843,3.8294,3.9656,0.0,0.0,0.0,4.1153,4.2625,4.4192,4.4479,4.4513,4.4513,0.0,4.4615,4.4615,4.4615,4.4615,4.4615,4.4615,4.4615,4.4615,4.4615,4.4615,4.4615,4.4615,4.4615,4.4615,4.4615,4.4615,4.4615,4.4615,4.4615,4.4615,4.4615,4.4615,4.4615,4.4615,4.4615,4.4615,4.4615,4.4615,4.4615,4.4615,4.4615,4.4615,4.4615,4.501,4.572,4.6447,4.7225,4.799,4.8697,4.8968,4.9001,4.9001,4.9001,4.9001,4.9001,4.9001,4.9001,4.9001,4.9001,4.9001,4.9001,4.9001,4.9001,4.9001,4.9001,4.9001,4.9001,4.9001,4.9001,4.9001,4.9001,4.9001,4.9001,4.9001,4.9001,4.9001,4.9576,5.0016,5.0016,5.0659,5.1083,5.1065,5.115,5.1168,5.115,5.1809,5.2198,5.2147,5.1555,5.1522,5.2198,5.2266,5.2655,5.3399,5.3467,5.3501,5.3501,5.3501,5.3501,5.3501,5.3501,5.3501,3.6662,3.6851,3.6981,3.7719,3.8244,3.8768,0.0,3.9817,4.024,4.1271,4.1474,0.0,0.0,0.0,4.3335,4.4429,4.4615,4.4615,4.4615,4.4615,4.4615,4.4615,4.4615,4.4615,4.4615,4.4615,4.4615,4.4615,4.4615,4.4615,4.4615,4.4615,4.4615,4.4615,4.4615,4.4615,4.4615,4.4615,4.4615,4.4615,4.4615,4.4615,4.4615,4.4615,4.4615,4.4615,4.4615,4.4615,4.4615,4.4615,4.4615,4.4615,4.4615,4.5043,4.5788,4.6532,4.7276,4.799,4.8748,4.9001,4.9001,4.9001,4.9001,4.9001,4.9001,4.9001,4.9001,4.9001,4.9001,4.9001,4.9001,4.9001,4.9001,4.9001,4.9001,4.9001,4.9001,4.9001,4.9001,4.9001,4.9001,4.9154,4.961,4.9678,4.983,5.0304,5.0625,5.0794,5.0794,5.1437,5.1725,5.1236,5.1623,5.2097,5.2604,5.2892,5.3061,5.3061,5.279,5.2773,5.3044,5.3061,5.3196,5.3501,5.3501,5.3501,5.3501,5.3501,5.3501,5.3501,5.3501,5.3501,3.6379,3.6585,3.6981,3.7719,3.8278,0.0,4.0155,4.0832,4.1542,4.276,4.2811,4.2811,4.3291,0.0,0.0,0.0,4.4615,4.4615,4.4615,4.4615,4.4615,4.4615,4.4615,4.4615,4.4615,4.4615,4.4615,4.4615,4.4615,4.4615,4.4615,4.4615,4.4615,4.4615,4.4615,4.4615,4.4615,4.4615,4.4615,4.4615,4.4615,4.4615,4.4615,4.4615,4.4615,4.4615,4.4615,4.4615,4.4615,4.4615,4.4615,4.4615,4.4615,4.5043,4.5788,4.6532,4.7276,4.799,4.8748,4.9001,4.9001,4.9001,4.9001,4.9001,4.9001,4.9001,4.9001,4.9001,4.9001,4.9001,4.9001,4.9001,4.9001,4.9001,4.9001,4.9001,4.9001,4.9001,4.9001,4.9001,4.9001,4.9238,4.9965,5.0084,5.0338,5.1099,5.142,5.1555,5.1555,5.2215,5.2503,5.1995,5.2384,5.2909,5.345,5.3501,5.3501,5.3501,5.3501,5.3501,5.3501,5.3501,5.3501,5.3501,5.3501,5.3501,5.3501,5.3501,5.3501,5.3501,5.3501,5.3501,3.6788,3.6575,3.6981,3.7719,0.0,0.0,4.0713,4.1221,4.1863,4.4141,4.3961,4.3409,4.3409,4.3409,0.0,4.4479,4.4615,4.4615,4.4615,4.4615,4.4615,4.4615,4.4615,4.4615,4.4615,4.4615,4.4615,4.4615,4.4615,4.4615,4.4615,4.4615,4.4615,4.4615,4.4615,4.4615,4.4615,4.4615,4.4615,4.4615,4.4615,4.4615,4.4615,4.4615,4.4615,4.4615,4.4615,4.4615,4.4615,4.4615,4.4615,4.4615,4.4615,4.5043,4.5788,4.6515,4.7259,4.7973,4.8731,4.9001,4.9001,4.9001,4.9001,4.9001,4.9001,4.9001,4.9001,4.9001,4.9001,4.9001,4.9001,4.9001,4.9001,4.9001,4.9001,4.9001,4.9001,4.9001,4.9001,4.9001,4.9018,4.9238,4.9965,5.0101,5.0371,5.1116,5.1843,5.2317,5.2317,5.301,5.3501,5.3501,5.3501,5.3501,5.3501,5.3501,5.3501,5.3501,5.3501,5.3501,5.3501,5.3501,5.3501,5.3501,5.3501,5.3501,5.3501,5.3501,5.3501,5.3501,5.3501,5.3501,3.5703,3.5748,3.6213,3.756,0.0,0.0,0.0,4.1965,0.0,0.0,4.4401,4.4231,4.4231,4.4231,0.0,4.4564,4.4615,4.4615,4.4615,4.4615,4.4615,4.4615,4.4615,4.4615,4.4615,4.4615,4.4615,4.4615,4.4615,4.4615,4.4615,4.4615,4.4615,4.4615,4.4615,4.4615,4.4615,4.4615,4.4615,4.4615,4.4615,4.4615,4.4615,4.4615,4.4615,4.4615,4.4615,4.4615,4.4615,4.4615,4.4615,4.4615,4.4615,4.475,4.501,4.5754,4.6498,4.7225,4.7986,4.8578,4.9001,4.9001,4.9001,4.9001,4.9001,4.9001,4.9001,4.9001,4.9001,4.9001,4.9001,4.9001,4.9001,4.9001,4.9001,4.9001,4.9001,4.9001,4.9001,4.9001,4.9424,4.9999,5.076,5.1302,5.1911,5.2706,5.301,5.3145,5.3145,5.3348,5.3501,5.3501,5.3501,5.3501,5.3501,5.3501,5.3501,5.3501,5.3501,5.3501,5.3501,5.3501,5.3501,5.3501,5.3501,5.3501,5.3501,5.3501,5.3501,5.3501,5.3501,5.3788,3.6054,3.6303,0.0,3.8744,3.9986,4.1102,4.2439,0.0,0.0,0.0,4.4615,4.4615,4.4615,4.4615,0.0,4.4615,4.4615,4.4615,4.4615,4.4615,4.4615,4.4615,4.4615,4.4615,4.4615,4.4615,4.4615,4.4615,4.4615,4.4615,4.4615,4.4615,4.4615,4.4615,4.4615,4.4615,4.4615,4.4615,4.4615,4.4615,4.4615,4.4615,4.4615,4.4615,4.4615,4.4615,4.4615,4.4615,4.4615,4.4615,4.4615,4.4615,4.4615,4.4615,4.4699,4.5432,4.616,4.6904,4.7618,4.8392,4.9001,4.9001,4.9001,4.9001,4.9001,4.9001,4.9001,4.9001,4.9001,4.9001,4.9001,4.9001,4.9001,4.9001,4.9001,4.9001,4.9001,4.9001,4.9001,4.9001,4.9593,5.0321,5.1082,5.1809,5.257,5.3382,5.3501,5.3501,5.3501,5.3501,5.3501,5.3501,5.3501,5.3501,5.3501,5.3501,5.3501,5.3501,5.3501,5.3501,5.3501,5.3501,5.3501,5.3501,5.3501,5.3501,5.3501,5.3501,5.3501,5.3518,5.3805,5.4177,3.7099,3.7571,3.8389,4.0578,4.0747,0.0,4.3047,4.4079,4.4615,4.4615,0.0,4.4615,4.4615,4.4615,4.4615,4.4615,4.4615,4.4615,4.4615,4.4615,4.4615,4.4615,4.4615,4.4615,4.4615,4.4615,4.4615,4.4615,4.4615,4.4615,4.4615,4.4615,4.4615,4.4615,4.4615,4.4615,4.4615,4.4615,4.4615,4.4615,4.4615,4.4615,4.4615,4.4615,4.4615,4.4615,4.4615,4.4615,4.4615,4.4615,4.4615,4.4615,4.4615,4.4615,4.4682,4.5348,4.6058,4.6802,4.7547,4.8291,4.8917,4.8984,4.9001,4.9001,4.9001,4.9001,4.9001,4.9001,4.9001,4.9001,4.9001,4.9001,4.9001,4.9001,4.9001,4.9001,4.9001,4.9001,4.9001,4.9001,4.9644,5.0405,5.1067,5.1877,5.2655,5.3399,5.3501,5.3501,5.3501,5.3501,5.3501,5.3501,5.3501,5.3501,5.3501,5.3501,5.3501,5.3501,5.3501,5.3501,5.3501,5.3501,5.3501,5.3501,5.3501,5.3501,5.3501,5.3501,5.3534,5.3619,5.4279,5.4668,3.5663,3.6662,0.0,3.9893,4.1525,4.298,4.4079,4.4496,4.4615,4.4615,4.4615,4.4615,4.4615,4.4615,4.4615,4.4615,4.4615,4.4615,4.4615,4.4615,4.4615,4.4615,4.4615,4.4615,4.4615,4.4615,4.4615,4.4615,4.4615,4.4615,4.4615,4.4615,4.4615,4.4615,4.4615,4.4615,4.4615,4.4615,4.4615,4.4615,4.4615,4.4615,4.4615,4.4615,4.4615,4.4615,4.4615,4.4615,4.4615,4.4615,4.4615,4.4615,4.4615,4.4615,4.4632,4.4784,4.5297,4.6041,4.6786,4.753,4.824,4.8815,4.9001,4.9001,4.9001,4.9001,4.9001,4.9001,4.9001,4.9001,4.9001,4.9001,4.9001,4.9001,4.9001,4.9001,4.9001,4.9001,4.9001,4.9001,5.0067,5.1014,5.1183,5.235,5.3298,5.3467,5.3501,5.3501,5.3501,5.3501,5.3501,5.3501,5.3501,5.3501,5.3501,5.3501,5.3501,5.3501,5.3501,5.3501,5.3501,5.3501,5.3501,5.3501,5.3501,5.3501,5.3501,5.3501,5.3805,5.4363,5.4515,5.5209,3.5897,0.0,0.0,4.0569,0.0,4.4079,4.4513,4.4615,4.4615,4.4615,4.4615,4.4615,4.4615,4.4615,4.4615,4.4615,4.4615,4.4615,4.4615,4.4615,4.4615,4.4615,4.4615,4.4615,4.4615,4.4615,4.4615,4.4615,4.4615,4.4615,4.4615,4.4615,4.4615,4.4615,4.4615,4.4615,4.4615,4.4615,4.4615,4.4615,4.4615,4.4615,4.4615,4.4615,4.4615,4.4615,4.4615,4.4615,4.4615,4.4615,4.4615,4.4615,4.4615,4.4615,4.4615,4.4615,4.506,4.5754,4.6143,4.7005,4.7939,4.8359,4.8714,4.9001,4.9001,4.9001,4.9001,4.9001,4.9001,4.9001,4.9001,4.9001,4.9001,4.9001,4.9001,4.9001,4.9001,4.9272,4.9526,4.9526,5.0727,5.1742,5.1742,5.2723,5.3501,5.3501,5.3501,5.3501,5.3501,5.3501,5.3501,5.3501,5.3501,5.3501,5.3501,5.3501,5.3501,5.3501,5.3501,5.3501,5.3501,5.3501,5.3501,5.3501,5.3501,5.3501,5.3501,5.3501,5.3873,5.46,5.4955,5.5733,3.6198,0.0,3.8756,4.1557,4.3436,0.0,4.4615,4.4615,4.4615,4.4615,4.4615,4.4615,4.4615,4.4615,4.4615,4.4615,4.4615,4.4615,4.4615,4.4615,4.4615,4.4615,4.4615,4.4615,4.4615,4.4615,4.4615,4.4615,4.4615,4.4615,4.4615,4.4615,4.4615,4.4615,4.4615,4.4615,4.4615,4.4615,4.4615,4.4615,4.4615,4.4615,4.4615,4.4615,4.4615,4.4615,4.4615,4.4615,4.4615,4.4615,4.4615,4.4615,4.4615,4.4615,4.4615,4.4615,4.4976,4.5534,4.5669,4.6515,4.7551,4.7804,4.8294,4.8832,4.8968,4.9001,4.9001,4.9001,4.9001,4.9001,4.9001,4.9001,4.9001,4.9001,4.9001,4.9001,4.9001,4.9576,5.0084,5.0084,5.1285,5.235,5.2486,5.3061,5.3501,5.3501,5.3501,5.3501,5.3501,5.3501,5.3501,5.3501,5.3501,5.3501,5.3501,5.3501,5.3501,5.3501,5.3501,5.3501,5.3501,5.3501,5.3501,5.3501,5.3501,5.3501,5.3501,5.3636,5.4076,5.4803,5.5564,5.6292,3.4322,0.0,3.9994,0.0,4.3371,4.4615,0.0,0.0,4.4615,0.0,4.4615,4.4615,4.4615,4.4615,4.4615,4.4615,4.4615,4.4615,4.4615,4.4615,4.4615,4.4615,4.4615,4.4615,4.4615,4.4615,4.4615,4.4615,4.4615,4.4615,4.4615,4.4615,4.4615,4.4615,4.4615,4.4615,4.4615,4.4615,4.4615,4.4615,4.4615,4.4615,4.4615,4.4615,4.4615,4.4615,4.4615,4.4615,4.4615,4.4615,4.4615,4.4615,4.4615,4.4615,4.4615,4.4615,4.4666,4.4852,4.5483,4.5838,4.621,4.7466,4.7956,4.8159,4.8815,4.9001,4.9001,4.9001,4.9001,4.9001,4.9001,4.9001,4.9001,4.9001,4.9001,4.9001,4.9001,4.9576,5.0084,5.0084,5.1285,5.252,5.323,5.3433,5.3501,5.3501,5.3501,5.3501,5.3501,5.3501,5.3501,5.3501,5.3501,5.3501,5.3501,5.3501,5.3501,5.3501,5.3501,5.3501,5.3501,5.3501,5.3501,5.3501,5.3501,5.3501,5.3501,5.4143,5.4837,5.5581,5.6325,5.7053,3.4755,3.746,4.0143,0.0,4.2951,4.3945,4.4468,4.4615,4.4615,4.4615,4.4615,4.4615,4.4615,4.4615,4.4615,4.4615,4.4615,4.4615,4.4615,4.4615,4.4615,4.4615,4.4615,4.4615,4.4615,4.4615,4.4615,4.4615,4.4615,4.4615,4.4615,4.4615,4.4615,4.4615,4.4615,4.4615,4.4615,4.4615,4.4615,4.4615,4.4615,4.4615,4.4615,4.4615,4.4615,4.4615,4.4615,4.4615,4.4615,4.4615,4.4615,4.4615,4.4615,4.4615,4.4615,4.4615,4.4615,4.4649,4.4959,4.5348,4.5889,4.6938,4.7581,4.8024,4.8781,4.9001,4.9001,4.9001,4.9001,4.9001,4.9001,4.9001,4.9001,4.9001,4.9323,4.961,4.961,5.0202,5.098,5.1843,5.2536,5.3078,5.345,5.3501,5.3501,5.3501,5.3501,5.3501,5.3501,5.3501,5.3501,5.3501,5.3501,5.3501,5.3501,5.3501,5.3501,5.3501,5.3501,5.3501,5.3501,5.3501,5.3501,5.3501,5.3501,5.3704,5.411,5.4431,5.5192,5.6325,5.6664,5.7205,0.0,0.0,3.9225,4.0996,4.232,4.3389,0.0,0.0,4.4615,0.0,4.4615,4.4615,4.4615,4.4615,4.4615,4.4615,4.4615,4.4615,4.4615,4.4615,4.4615,4.4615,4.4615,4.4615,4.4615,4.4615,4.4615,4.4615,4.4615,4.4615,4.4615,4.4615,4.4615,4.4615,4.4615,4.4615,4.4615,4.4615,4.4615,4.4615,4.4615,4.4615,4.4615,4.4615,4.4615,4.4615,4.4615,4.4615,4.4615,4.4615,4.4615,4.4615,4.4615,4.4615,4.4615,4.4615,4.4615,4.4615,4.4615,4.4942,4.5568,4.6498,4.7175,4.78,4.8731,4.9001,4.9001,4.9001,4.9001,4.9001,4.9001,4.9001,4.9001,4.9001,4.956,5.0185,5.0574,5.1099,5.1894,5.3247,5.3501,5.3501,5.3501,5.3501,5.3501,5.3501,5.3501,5.3501,5.3501,5.3501,5.3501,5.3501,5.3501,5.3501,5.3501,5.3501,5.3501,5.3501,5.3501,5.3501,5.3501,5.3687,5.3788,5.3788,5.3974,5.4245,5.4583,5.4972,5.5716,5.6799,5.6985,5.7357,0.0,3.5649,0.0,3.9094,4.1429,4.321,0.0,0.0,4.4615,4.4615,4.4615,4.4615,4.4615,4.4615,4.4615,4.4615,4.4615,4.4615,4.4615,4.4615,4.4615,4.4615,4.4615,4.4615,4.4615,4.4615,4.4615,4.4615,4.4615,4.4615,4.4615,4.4615,4.4615,4.4615,4.4615,4.4615,4.4615,4.4615,4.4615,4.4615,4.4615,4.4615,4.4615,4.4615,4.4615,4.4615,4.4615,4.4615,4.4615,4.4615,4.4615,4.4615,4.4615,4.4615,4.4615,4.4615,4.4615,4.4615,4.4615,4.4632,4.4902,4.6312,4.6819,4.7124,4.8562,4.9001,4.9001,4.9001,4.9001,4.9001,4.9001,4.9001,4.9001,4.9001,4.956,5.0473,5.1877,5.2215,5.2486,5.3348,5.3501,5.3501,5.3501,5.3501,5.3501,5.3501,5.3501,5.3501,5.3501,5.3501,5.3501,5.3501,5.3501,5.3501,5.3501,5.3501,5.3501,5.3501,5.3501,5.3501,5.3501,5.416,5.4532,5.4532,5.5243,5.526,5.4583,5.6004,5.6731,5.6816,5.7509,5.7848,0.0,0.0,0.0,3.8352,4.0174,4.1831,4.2936,4.3827,4.444,4.457,4.4615,4.4615,4.4615,4.4615,4.4615,4.4615,4.4615,4.4615,4.4615,4.4615,4.4615,4.4615,4.4615,4.4615,4.4615,4.4615,4.4615,4.4615,4.4615,4.4615,4.4615,4.4615,4.4615,4.4615,4.4615,4.4615,4.4615,4.4615,4.4615,4.4615,4.4615,4.4615,4.4615,4.4615,4.4615,4.4615,4.4615,4.4615,4.4615,4.4615,4.4615,4.4615,4.4615,4.4615,4.4615,4.4615,4.4615,4.4615,4.4615,4.4891,4.5466,4.6464,4.7124,4.7699,4.8714,4.9001,4.9001,4.9001,4.9001,4.9001,4.9001,4.9357,4.9932,5.0896,5.1319,5.1792,5.2841,5.3078,5.3162,5.345,5.3501,5.3501,5.3501,5.3501,5.3501,5.3501,5.3501,5.3501,5.3501,5.3501,5.3501,5.3501,5.3501,5.3501,5.3501,5.3501,5.3501,5.3501,5.394,5.4211,5.4211,5.4921,5.531,5.531,5.6038,5.6275,5.6004,5.6545,5.7036,5.7509,5.7763,5.7881,3.2332,0.0,0.0,0.0,3.8726,4.0074,4.2265,4.3171,4.3676,4.4102,4.4401,4.4615,4.4615,4.4615,4.4615,4.4615,4.4615,4.4615,4.4615,4.4615,4.4615,4.4615,4.4615,4.4615,4.4615,4.4615,4.4615,4.4615,4.4615,4.4615,4.4615,4.4615,4.4615,4.4615,4.4615,4.4615,4.4615,4.4615,4.4615,4.4615,4.4615,4.4615,4.4615,4.4615,4.4615,4.4615,4.4615,4.4615,4.4615,4.4615,4.4615,4.4615,4.4615,4.4615,4.4615,4.4615,4.4615,4.4649,4.4874,4.528,4.5872,4.6853,4.7513,4.8024,4.8781,4.9001,4.9001,4.9001,4.9001,4.9069,4.9306,4.9915,5.0777,5.2012,5.23,5.252,5.3331,5.3501,5.3501,5.3501,5.3501,5.3501,5.3501,5.3501,5.3501,5.3501,5.3501,5.3501,5.3501,5.3501,5.3501,5.3501,5.3501,5.3501,5.3501,5.3501,5.3619,5.3856,5.4329,5.4702,5.4955,5.5683,5.6089,5.6089,5.6799,5.7171,5.7171,5.7171,5.7408,5.7881,5.7881,5.7881,0.0,0.0,0.0,0.0,0.0,0.0,4.1063,0.0,4.2244,4.3162,4.3978,4.4547,4.4598,4.4615,4.4615,4.4615,4.4615,4.4615,4.4615,4.4615,4.4615,4.4615,4.4615,4.4615,4.4615,4.4615,4.4615,4.4615,4.4615,4.4615,4.4615,4.4615,4.4615,4.4615,4.4615,4.4615,4.4615,4.4615,4.4615,4.4615,4.4615,4.4615,4.4615,4.4615,4.4615,4.4615,4.4615,4.4615,4.4615,4.4615,4.4615,4.4615,4.4615,4.4615,4.4615,4.4615,4.4615,4.4716,4.5449,4.572,4.5974,4.7415,4.7906,4.8058,4.8781,4.9001,4.9001,4.9001,4.9018,4.9204,4.9965,5.071,5.1437,5.2164,5.2334,5.2553,5.3331,5.3501,5.3501,5.3501,5.3501,5.3501,5.3501,5.3501,5.3501,5.3501,5.3501,5.3501,5.3501,5.3501,5.3501,5.3501,5.3501,5.3518,5.3534,5.3534,5.3856,5.4583,5.4634,5.4989,5.5681,5.6444,5.6833,5.6833,5.7526,5.7881,5.7881,5.7881,5.7881,5.7881,5.7881,5.7881,3.1598,0.0,0.0,0.0,0.0,0.0,0.0,0.0,3.9995,4.2031,4.2625,4.3168,4.4367,4.4615,4.4615,4.4615,4.4615,4.4615,4.4615,4.4615,4.4615,4.4615,4.4615,4.4615,4.4615,4.4615,4.4615,0.0,4.4615,4.4615,4.4615,4.4615,4.4615,4.4615,4.4615,4.4615,4.4615,4.4615,4.4615,4.4615,4.4615,4.4615,4.4615,4.4615,4.4615,4.4615,4.4615,4.4615,4.4615,4.4615,4.4615,4.4615,4.4615,4.4615,4.4615,4.4615,4.4615,4.4716,4.5449,4.6058,4.665,4.7597,4.8244,4.8731,4.8951,4.9001,4.9001,4.9001,4.9373,5.0084,5.1352,5.1843,5.2198,5.2993,5.3179,5.323,5.345,5.3501,5.3501,5.3501,5.3501,5.3501,5.3501,5.3501,5.3501,5.3501,5.3501,5.3501,5.3501,5.3501,5.3501,5.3501,5.3501,5.3721,5.4245,5.4296,5.4617,5.5361,5.5902,5.6275,5.6494,5.7205,5.7594,5.7594,5.778,5.7881,5.7881,5.7881,5.7881,5.7881,5.7881,5.7881,3.1763,3.2365,0.0,0.0,0.0,0.0,3.7586,3.8078,3.8712,0.0,4.227,4.2885,4.4221,4.4468,4.4497,4.4587,4.4615,4.4615,4.4615,4.4615,4.4615,4.4615,4.4615,4.4615,4.4615,4.4615,4.4615,4.4615,4.4615,4.4615,4.4615,4.4615,4.4615,4.4615,4.4615,4.4615,4.4615,4.4615,4.4615,4.4615,4.4615,4.4615,4.4615,4.4615,4.4615,4.4615,4.4615,4.4615,4.4615,4.4615,4.4615,4.4615,4.4615,4.4615,4.4615,4.4615,4.4801,4.5162,4.5906,4.6633,4.7378,4.8139,4.8663,4.9001,4.9001,4.9001,4.9069,4.9373,5.0202,5.1217,5.208,5.2553,5.2926,5.3399,5.3501,5.3501,5.3501,5.3501,5.3501,5.3501,5.3501,5.3501,5.3501,5.3501,5.3501,5.3501,5.3501,5.3501,5.3501,5.3501,5.3501,5.3501,5.3788,5.4126,5.4549,5.4871,5.5378,5.6122,5.6562,5.6934,5.7239,5.7662,5.7881,5.7881,5.7881,5.7881,5.7881,5.7881,5.7881,5.7881,5.7881,5.7881,3.2177,3.2812,0.0,0.0,3.4336,0.0,3.7951,3.7919,3.7844,0.0,4.196,4.2769,4.3732,4.3979,4.4069,4.4142,4.4333,4.4468,4.4598,4.4615,4.4615,4.4615,4.4615,4.4615,4.4615,4.4615,4.4615,4.4615,4.4615,4.4615,4.4615,4.4615,4.4615,4.4615,4.4615,4.4615,4.4615,4.4615,4.4615,4.4615,4.4615,4.4615,4.4615,4.4615,4.4615,4.4615,4.4615,4.4615,4.4615,4.4615,4.4615,4.4615,4.4615,4.4615,4.4615,4.4699,4.5128,4.5821,4.6633,4.7361,4.8007,4.8765,4.9001,4.9001,4.9001,4.9001,4.9171,4.9982,5.1234,5.2317,5.2418,5.2959,5.3501,5.3501,5.3501,5.3501,5.3501,5.3501,5.3501,5.3501,5.3501,5.3501,5.3501,5.3501,5.3501,5.3501,5.3501,5.3501,5.3501,5.3501,5.3501,5.3501,5.416,5.4617,5.4718,5.5412,5.6156,5.6884,5.6917,5.7222,5.7865,5.7881,5.7881,5.7881,5.7881,5.7881,5.7881,5.7881,5.7881,5.7881,5.7881,5.7881,3.3292,3.3574,3.3856,3.4154,3.4336,0.0,3.4847,3.5146,3.5924,0.0,3.877,3.974,4.1204,4.1969,4.2187,4.1638,4.2627,4.3748,4.4485,4.4615,4.4615,4.4615,4.4615,4.4615,4.4615,4.4615,4.4615,4.4615,4.4615,4.4615,4.4615,4.4615,4.4615,4.4615,4.4615,4.4615,4.4615,4.4615,4.4615,4.4615,4.4615,4.4615,4.4615,4.4615,4.4615,4.4615,4.4615,4.4615,4.4615,4.4615,4.4615,4.4615,4.4615,4.4615,4.4682,4.5263,4.5585,4.5889,4.7225,4.78,4.8007,4.8765,4.9001,4.9001,4.9001,4.9001,4.9289,5.0625,5.1623,5.2452,5.3112,5.3382,5.3501,5.3501,5.3501,5.3501,5.3501,5.3501,5.3501,5.3501,5.3501,5.3501,5.3501,5.3501,5.3501,5.3501,5.3501,5.3501,5.3501,5.3501,5.3501,5.3501,5.416,5.4837,5.5446,5.6173,5.69,5.7628,5.7679,5.7746,5.7881,5.7881,5.7881,5.7881,5.7881,5.7881,5.7881,5.7881,5.7881,5.7881,5.7881,5.7881,3.3889,3.4054,3.4435,3.48,0.0,0.0,0.0,3.5164,3.5553,3.7817,3.8282,3.8783,4.0391,4.0702,4.0729,4.0776,4.1795,4.2723,4.3193,4.4041,4.4615,4.4615,4.4615,4.4615,4.4615,4.4615,4.4615,4.4615,4.4615,4.4615,4.4615,4.4615,4.4615,4.4615,4.4615,4.4615,4.4615,4.4615,4.4615,4.4615,4.4615,4.4615,4.4615,4.4615,4.4615,4.4615,4.4615,4.4615,4.4615,4.4615,4.4615,4.4615,4.4615,4.4615,4.4699,4.5432,4.594,4.6413,4.753,4.8125,4.8528,4.8883,4.9001,4.9001,4.9001,4.9509,5.0338,5.1454,5.23,5.2993,5.3399,5.3501,5.3501,5.3501,5.3501,5.3501,5.3501,5.3501,5.3501,5.3501,5.3501,5.3501,5.3501,5.3501,5.3501,5.3501,5.3501,5.3501,5.3501,5.3501,5.3501,5.3501,5.416,5.4905,5.5649,5.6393,5.7103,5.7831,5.7881,5.7881,5.7881,5.7881,5.7881,5.7881,5.7881,5.7881,5.7881,5.7881,5.7881,5.7881,5.7881,5.7881,3.475,3.4965,3.5611,0.0,0.0,3.4998,0.0,0.0,0.0,0.0,0.0,0.0,0.0,0.0,0.0,3.9792,0.0,0.0,0.0,4.2745,0.0,4.4288,4.435,4.4445,4.4581,4.4344,4.4293,4.4581,4.4327,4.4293,4.4581,4.4615,4.4615,4.4615,4.4615,4.4615,4.4615,4.4615,4.4615,4.4615,4.4615,4.4615,4.4615,4.4615,4.4615,4.4615,4.4615,4.4615,4.4615,4.4615,4.4615,4.4615,4.4615,4.4699,4.4919,4.5635,4.638,4.7124,4.7868,4.8511,4.9001,4.9001,4.9001,4.9035,4.9171,5.0152,5.1369,5.2097,5.2892,5.3501,5.3501,5.3501,5.3501,5.3501,5.3501,5.3501,5.3501,5.3501,5.3501,5.3501,5.3501,5.3501,5.3501,5.3501,5.3501,5.3501,5.3501,5.3501,5.3501,5.3501,5.3501,5.3501,5.416,5.4905,5.5649,5.6393,5.7103,5.7831,5.7881,5.7881,5.7881,5.7881,5.7881,5.7881,5.7881,5.7881,5.7881,5.7881,5.7881,5.7881,5.7881,5.7881,0.0,0.0,0.0,0.0,3.687,0.0,0.0,0.0,3.5777,3.5462,0.0,0.0,0.0,0.0,0.0,0.0,0.0,0.0,3.8904,4.0213,4.1755,4.3176,4.3455,4.3826,4.4547,4.3379,4.3115,4.4513,4.3345,4.3176,4.453,4.4615,4.4615,4.4615,4.4615,4.4615,4.4615,4.4615,4.4615,4.4615,4.4615,4.4615,4.4615,4.4615,4.4615,4.4615,4.4615,4.4615,4.4615,4.4615,4.4615,4.4615,4.4615,4.4993,4.5669,4.6397,4.7141,4.7872,4.8629,4.8934,4.9001,4.9001,4.9001,4.912,4.9779,5.0557,5.1369,5.2097,5.2892,5.3501,5.3501,5.3501,5.3501,5.3501,5.3501,5.3501,5.3501,5.3501,5.3501,5.3501,5.3501,5.3501,5.3501,5.3501,5.3501,5.3501,5.3501,5.3501,5.3501,5.3501,5.3501,5.3501,5.416,5.4905,5.5649,5.6393,5.7103,5.7831,5.7881,5.7881,5.7881,5.7881,5.7881,5.7881,5.7881,5.7881,5.7881,5.7881,5.7881,5.7881,5.7881,5.7881,0.0,0.0,0.0,0.0,0.0,0.0,3.5843,0.0,3.5396,0.0,0.0,0.0,0.0,0.0,0.0,0.0,3.7186,0.0,0.0,0.0,4.017,0.0,0.0,0.0,4.3023,4.3037,4.3217,4.3859,4.3301,4.3234,4.3876,4.4361,4.4615,4.4615,4.4615,4.4615,4.4615,4.4615,4.4615,4.4615,4.4615,4.4615,4.4615,4.4615,4.4615,4.4615,4.4615,4.4615,4.4615,4.4615,4.4615,4.4615,4.4615,4.5043,4.5788,4.6532,4.7276,4.799,4.8748,4.9001,4.9001,4.9001,4.9289,4.9779,5.0507,5.1251,5.2012,5.279,5.3247,5.3501,5.3501,5.3501,5.3501,5.3501,5.3501,5.3501,5.3501,5.3501,5.3501,5.3501,5.3501,5.3501,5.3501,5.3501,5.3501,5.3501,5.3501,5.3501,5.3501,5.3501,5.3501,5.3501,5.416,5.4905,5.5649,5.6393,5.7103,5.7831,5.7881,5.7881,5.7881,5.7881,5.7881,5.7881,5.7881,5.7881,5.7881,5.7881,5.7881,5.7881,5.7881,5.7881,3.7897,0.0,0.0,0.0,0.0,0.0,0.0,0.0,0.0,0.0,0.0,0.0,0.0,0.0,0.0,0.0,0.0,3.7036,0.0,3.7352,0.0,0.0,0.0,0.0,0.0,4.2287,4.2594,4.3,4.2699,4.2777,4.3358,4.3944,4.435,4.4598,4.4615,4.4615,4.4615,4.4615,4.4615,4.4615,4.4615,4.4615,4.4615,4.4615,4.4615,4.4615,4.4615,4.4615,4.4615,4.4615,4.4615,4.4632,4.4835,4.5348,4.6075,4.6599,4.7394,4.8261,4.8815,4.9001,4.9035,4.9238,4.9661,5.027,5.1234,5.1894,5.2469,5.3281,5.3501,5.3501,5.3501,5.3501,5.3501,5.3501,5.3501,5.3501,5.3501,5.3501,5.3501,5.3501,5.3501,5.3568,5.3771,5.3636,5.3501,5.3501,5.367,5.3805,5.3805,5.3991,5.411,5.411,5.4583,5.5192,5.5953,5.6494,5.7103,5.7831,5.7881,5.7881,5.7881,5.7881,5.7881,5.7881,5.7881,5.7881,5.7881,5.7881,5.7881,5.7881,5.7881,5.7881,0.0,0.0,0.0,3.7649,0.0,0.0,0.0,0.0,3.6837,0.0,0.0,0.0,0.0,0.0,0.0,0.0,0.0,0.0,0.0,0.0,0.0,0.0,0.0,0.0,0.0,4.0747,4.0591,0.0,4.0923,4.1136,4.3274,4.3409,4.3809,4.4581,4.4615,4.4615,4.4615,4.4615,4.4615,4.4615,4.4615,4.4615,4.4615,4.4615,4.4615,4.4615,4.4615,4.4615,4.4615,4.4615,4.4615,4.4682,4.5382,4.6109,4.6752,4.6786,4.7716,4.8968,4.9001,4.9001,4.912,4.9813,5.0067,5.0355,5.1826,5.2283,5.2469,5.3281,5.3501,5.3501,5.3501,5.3501,5.3501,5.3501,5.3501,5.3501,5.3501,5.3501,5.3501,5.3501,5.3501,5.3737,5.4431,5.3974,5.3501,5.3501,5.411,5.4549,5.4549,5.5192,5.5614,5.5614,5.5666,5.597,5.6714,5.6799,5.7103,5.7831,5.7881,5.7881,5.7881,5.7881,5.7881,5.7881,5.7881,5.7881,5.7881,5.7881,5.7881,5.7881,5.7881,5.7881,0.0,0.0,4.1276,3.909,0.0,0.0,0.0,0.0,0.0,0.0,0.0,0.0,0.0,0.0,0.0,0.0,0.0,0.0,0.0,0.0,0.0,0.0,0.0,0.0,0.0,0.0,4.0624,4.0641,4.0754,4.1153,4.1914,4.2868,4.3511,4.3809,4.4316,4.4615,4.4615,4.4615,4.4615,4.4615,4.4615,4.4615,4.4615,4.4615,4.4615,4.4615,4.4615,4.4615,4.4615,4.4615,4.4615,4.4682,4.5415,4.616,4.6853,4.7361,4.8156,4.9001,4.9001,4.9001,4.912,4.9847,5.0422,5.1014,5.1995,5.2672,5.3162,5.3433,5.3501,5.3501,5.3501,5.3501,5.3501,5.3501,5.3501,5.3501,5.3501,5.3501,5.3501,5.3501,5.389,5.4296,5.4549,5.4803,5.4972,5.4972,5.4752,5.4769,5.5277,5.5564,5.5681,5.5681,5.6156,5.6528,5.6782,5.7239,5.7628,5.7865,5.7881,5.7881,5.7881,5.7881,5.7881,5.7881,5.7881,5.7881,5.7881,5.7881,5.7881,5.7881,5.7881,5.7881,4.1463,4.1926,0.0,4.0177,3.9696,0.0,3.7235,0.0,3.8063,0.0,0.0,0.0,0.0,0.0,0.0,0.0,0.0,0.0,0.0,3.4717,0.0,0.0,0.0,0.0,0.0,0.0,3.9714,3.9807,3.991,4.0307,0.0,4.2354,4.3149,4.3375,4.4181,4.4615,4.4615,4.4615,4.4615,4.4615,4.4615,4.4615,4.4615,4.4615,4.4615,4.4615,4.4615,4.4615,4.4615,4.4615,4.4615,4.4699,4.5686,4.638,4.6887,4.7648,4.8376,4.9001,4.9001,4.9171,4.9509,5.0253,5.0997,5.1742,5.2503,5.3095,5.3501,5.3501,5.3501,5.3501,5.3501,5.3501,5.3501,5.3501,5.3501,5.3501,5.3501,5.3501,5.3585,5.3839,5.4262,5.4752,5.5277,5.5564,5.5681,5.5681,5.553,5.5547,5.6038,5.6325,5.6494,5.6494,5.6917,5.7188,5.7188,5.7628,5.7881,5.7881,5.7881,5.7881,5.7881,5.7881,5.7881,5.7881,5.7881,5.7881,5.7881,5.7881,5.7881,5.7881,5.7881,5.7881]}]]